[[{"header":{"parameterUnit":"m.s-1","parameterCategory":1,"la1":31.0,"la2":29.5877,"lo1":-88.7671,"lo2":-86.6584,"dy":0.0162,"dx":0.0185,"nx":115,"ny":88,"refTime":"2023-05-04T12:00:00:Z","depth":0,"parameterNumber":2,"parameterNumberName":"U-component_of_WINDS"},"data":[0.0,0.0,0.0,0.0,0.0,0.0,0.0,0.0,0.0,0.0,0.0,0.0,0.0,0.0,0.0,0.0,0.0,0.0,0.0,0.0,0.0,0.0,0.0,0.0,0.0,0.0,0.0,0.0,0.0,0.0,0.0,0.0,0.0,0.0,0.0,0.0,0.0,0.0,0.0,0.0,0.0,0.0,0.0,0.0,0.0,0.0,0.0,0.0,0.0,0.0,0.0,0.0,0.0,0.0,0.0,0.0,0.0,0.0,0.0,0.0,0.0,0.0,0.0,0.0,0.0,0.0,0.0,0.0,0.0,0.0,0.0,0.0,0.0,0.0,0.0,0.0,0.0,0.0,0.0,0.0,0.0,0.0,0.0,0.0,0.0,0.0,0.0,0.0,0.0,0.0,0.0,0.0,0.0,0.0,0.0,0.0,0.0,0.0,0.0,0.0,0.0,0.0,0.0,0.0,0.0,0.0,0.0,0.0,0.0,0.0,0.0,0.0,0.0,0.0,0.0,0.0,0.0,0.0,0.0,0.0,0.0,0.0,0.0,0.0,0.0,0.0,0.0,0.0,0.0,0.0,0.0,0.0,0.0,0.0,0.0,0.0,0.0,0.0,0.0,0.0,0.0,0.0,0.0,0.0,0.0,0.0,0.0,0.0,0.0,0.0,0.0,0.0,0.0,0.0,0.0,0.0,0.0,0.0,0.0,0.0,0.0,0.0,0.0,0.0,0.0,0.0,0.0,0.0,0.0,0.0,0.0,0.0,0.0,0.0,0.0,0.0,0.0,0.0,0.0,0.0,0.0,0.0,0.0,0.0,0.0,0.0,0.0,0.0,0.0,0.0,0.0,0.0,0.0,0.0,0.0,0.0,0.0,0.0,0.0,0.0,0.0,0.0,0.0,0.0,0.0,0.0,0.0,0.0,0.0,0.0,0.0,0.0,0.0,0.0,0.0,0.0,0.0,0.0,0.0,0.0,0.0,0.0,0.0,0.0,0.0,0.0,0.0,0.0,0.0,0.0,0.0,0.0,0.0,0.0,0.0,0.0,0.0,0.0,0.0,0.0,0.0,0.0,0.0,0.0,0.0,0.0,0.0,0.0,0.0,0.0,0.0,0.0,0.0,0.0,0.0,0.0,0.0,0.0,0.0,0.0,0.0,0.0,0.0,0.0,0.0,0.0,0.0,0.0,0.0,0.0,0.0,0.0,0.0,0.0,0.0,0.0,0.0,0.0,0.0,0.0,0.0,0.0,0.0,0.0,0.0,0.0,0.0,0.0,0.0,0.0,0.0,0.0,0.0,0.0,0.0,0.0,0.0,0.0,0.0,0.0,0.0,0.0,0.0,0.0,0.0,0.0,0.0,0.0,0.0,0.0,0.0,0.0,0.0,0.0,0.0,0.0,0.0,0.0,0.0,0.0,0.0,0.0,0.0,0.0,0.0,0.0,0.0,0.0,0.0,0.0,0.0,0.0,0.0,0.0,0.0,0.0,0.0,0.0,0.0,0.0,0.0,0.0,0.0,0.0,0.0,0.0,0.0,0.0,0.0,0.0,0.0,0.0,0.0,0.0,0.0,0.0,0.0,0.0,0.0,0.0,0.0,0.0,0.0,0.0,0.0,0.0,0.0,0.0,0.0,0.0,0.0,0.0,0.0,0.0,0.0,0.0,0.0,0.0,0.0,0.0,0.0,0.0,0.0,0.0,0.0,0.0,0.0,0.0,0.0,0.0,0.0,0.0,0.0,0.0,0.0,0.0,0.0,0.0,0.0,0.0,0.0,0.0,0.0,0.0,0.0,0.0,0.0,0.0,0.0,0.0,0.0,0.0,0.0,0.0,0.0,0.0,0.0,0.0,0.0,0.0,0.0,0.0,0.0,0.0,0.0,0.0,0.0,0.0,0.0,0.0,0.0,0.0,0.0,0.0,0.0,0.0,0.0,0.0,0.0,0.0,0.0,0.0,0.0,0.0,0.0,0.0,0.0,0.0,0.0,0.0,0.0,0.0,0.0,0.0,0.0,0.0,0.0,0.0,0.0,0.0,0.0,0.0,0.0,0.0,0.0,0.0,0.0,0.0,0.0,0.0,0.0,0.0,0.0,0.0,0.0,0.0,0.0,0.0,0.0,0.0,0.0,0.0,0.0,0.0,0.0,0.0,0.0,0.0,0.0,0.0,0.0,0.0,0.0,0.0,0.0,0.0,0.0,0.0,0.0,0.0,0.0,0.0,0.0,0.0,0.0,0.0,0.0,0.0,0.0,0.0,0.0,0.0,0.0,0.0,0.0,0.0,0.0,0.0,0.0,0.0,0.0,0.0,0.0,0.0,0.0,0.0,0.0,0.0,0.0,0.0,0.0,0.0,0.0,0.0,0.0,0.0,0.0,0.0,0.0,0.0,0.0,0.0,0.0,0.0,0.0,0.0,0.0,0.0,0.0,0.0,0.0,0.0,0.0,0.0,0.0,0.0,0.0,0.0,0.0,0.0,0.0,0.0,0.0,0.0,0.0,0.0,0.0,0.0,0.0,0.0,0.0,0.0,0.0,0.0,0.0,0.0,0.0,0.0,0.0,0.0,0.0,0.0,0.0,0.0,0.0,0.0,0.0,0.0,0.0,0.0,0.0,0.0,0.0,0.0,0.0,0.0,0.0,0.0,0.0,0.0,0.0,0.0,0.0,0.0,0.0,0.0,0.0,0.0,0.0,0.0,0.0,0.0,0.0,0.0,0.0,0.0,0.0,0.0,0.0,0.0,0.0,0.0,0.0,0.0,0.0,0.0,0.0,0.0,0.0,0.0,0.0,0.0,0.0,0.0,0.0,0.0,0.0,0.0,0.0,0.0,0.0,0.0,0.0,0.0,0.0,0.0,0.0,0.0,0.0,0.0,0.0,0.0,0.0,0.0,0.0,0.0,0.0,0.0,0.0,0.0,0.0,0.0,0.0,0.0,0.0,0.0,0.0,0.0,0.0,0.0,0.0,0.0,0.0,0.0,0.0,0.0,0.0,0.0,0.0,0.0,0.0,0.0,0.0,0.0,0.0,0.0,0.0,0.0,0.0,0.0,0.0,0.0,0.0,0.0,0.0,0.0,0.0,0.0,0.0,0.0,0.0,0.0,0.0,0.0,0.0,0.0,0.0,0.0,0.0,0.0,0.0,0.0,0.0,0.0,0.0,0.0,0.0,0.0,0.0,0.0,0.0,0.0,0.0,0.0,0.0,0.0,0.0,0.0,0.0,0.0,0.0,0.0,0.0,0.0,0.0,0.0,0.0,0.0,0.0,0.0,0.0,0.0,0.0,0.0,0.0,0.0,0.0,0.0,0.0,0.0,0.0,0.0,0.0,0.0,0.0,0.0,0.0,0.0,0.0,0.0,0.0,0.0,0.0,0.0,0.0,0.0,0.0,0.0,0.0,0.0,0.0,0.0,0.0,0.0,0.0,0.0,0.0,0.0,0.0,0.0,0.0,0.0,0.0,0.0,0.0,0.0,0.0,0.0,0.0,0.0,0.0,0.0,0.0,0.0,0.0,0.0,0.0,0.0,0.0,0.0,0.0,0.0,0.0,0.0,0.0,0.0,0.0,0.0,0.0,0.0,0.0,0.0,0.0,0.0,0.0,0.0,0.0,0.0,0.0,0.0,0.0,0.0,0.0,0.0,0.0,0.0,0.0,0.0,0.0,0.0,0.0,0.0,0.0,0.0,0.0,0.0,0.0,0.0,0.0,0.0,0.0,0.0,0.0,0.0,0.0,0.0,0.0,0.0,0.0,0.0,0.0,0.0,0.0,0.0,0.0,0.0,0.0,0.0,0.0,0.0,0.0,0.0,0.0,0.0,0.0,0.0,0.0,0.0,0.0,0.0,0.0,0.0,0.0,0.0,0.0,0.0,0.0,0.0,0.0,0.0,0.0,0.0,0.0,0.0,0.0,0.0,0.0,0.0,0.0,0.0,0.0,0.0,0.0,0.0,0.0,0.0,0.0,0.0,0.0,0.0,0.0,0.0,0.0,0.0,0.0,0.0,0.0,0.0,0.0,0.0,0.0,0.0,0.0,0.0,0.0,0.0,0.0,0.0,0.0,0.0,0.0,0.0,0.0,0.0,0.0,0.0,0.0,0.0,0.0,0.0,0.0,0.0,0.0,0.0,0.0,0.0,0.0,0.0,0.0,0.0,0.0,0.0,0.0,0.0,0.0,0.0,0.0,0.0,0.0,0.0,0.0,0.0,0.0,0.0,0.0,0.0,0.0,0.0,0.0,0.0,0.0,0.0,0.0,0.0,0.0,0.0,-2.2279,0.0,0.0,0.0,0.0,0.0,0.0,0.0,0.0,0.0,0.0,0.0,0.0,0.0,0.0,0.0,0.0,0.0,0.0,0.0,0.0,0.0,0.0,0.0,0.0,0.0,0.0,0.0,0.0,0.0,0.0,0.0,0.0,0.0,0.0,0.0,0.0,0.0,0.0,0.0,0.0,0.0,0.0,0.0,0.0,0.0,0.0,0.0,0.0,0.0,0.0,0.0,0.0,0.0,0.0,0.0,0.0,0.0,0.0,0.0,0.0,0.0,0.0,0.0,0.0,0.0,0.0,0.0,0.0,0.0,0.0,0.0,0.0,0.0,0.0,0.0,0.0,0.0,0.0,0.0,0.0,0.0,0.0,0.0,0.0,0.0,0.0,0.0,0.0,0.0,0.0,0.0,0.0,0.0,0.0,0.0,0.0,0.0,0.0,0.0,0.0,0.0,0.0,0.0,0.0,0.0,0.0,0.0,0.0,0.0,0.0,-2.2313,-2.2296,-2.1904,-2.1887,-2.2279,0.0,0.0,0.0,0.0,0.0,0.0,0.0,0.0,0.0,0.0,0.0,0.0,0.0,0.0,0.0,0.0,0.0,0.0,0.0,0.0,0.0,0.0,0.0,0.0,0.0,0.0,0.0,0.0,0.0,0.0,0.0,0.0,0.0,0.0,0.0,0.0,0.0,0.0,0.0,0.0,0.0,0.0,0.0,0.0,0.0,0.0,0.0,0.0,0.0,0.0,0.0,0.0,0.0,0.0,0.0,0.0,0.0,0.0,0.0,0.0,0.0,0.0,0.0,0.0,0.0,0.0,0.0,0.0,0.0,0.0,0.0,0.0,0.0,0.0,0.0,0.0,0.0,0.0,0.0,0.0,0.0,0.0,0.0,0.0,0.0,0.0,0.0,0.0,0.0,0.0,0.0,0.0,0.0,0.0,0.0,0.0,0.0,0.0,0.0,0.0,0.0,0.0,0.0,0.0,0.0,0.0,0.0,0.0,0.0,0.0,0.0,0.0,-2.1989,-2.1955,-2.2513,0.0,0.0,0.0,0.0,0.0,0.0,0.0,0.0,0.0,0.0,0.0,0.0,0.0,0.0,0.0,0.0,0.0,0.0,0.0,0.0,0.0,0.0,0.0,0.0,0.0,0.0,0.0,0.0,0.0,0.0,0.0,0.0,0.0,0.0,0.0,0.0,0.0,0.0,0.0,0.0,0.0,0.0,0.0,0.0,0.0,0.0,0.0,0.0,0.0,0.0,0.0,0.0,0.0,0.0,0.0,0.0,0.0,0.0,0.0,0.0,0.0,0.0,0.0,0.0,0.0,0.0,0.0,0.0,0.0,0.0,0.0,0.0,0.0,0.0,0.0,0.0,0.0,0.0,0.0,0.0,0.0,0.0,0.0,0.0,0.0,0.0,0.0,0.0,0.0,0.0,0.0,0.0,0.0,0.0,0.0,0.0,0.0,0.0,0.0,0.0,0.0,0.0,0.0,0.0,0.0,0.0,0.0,0.0,0.0,0.0,-2.26,-2.3274,-2.3224,0.0,-2.3272,0.0,0.0,0.0,0.0,0.0,0.0,0.0,0.0,0.0,0.0,0.0,0.0,0.0,0.0,0.0,0.0,0.0,0.0,0.0,0.0,0.0,0.0,0.0,0.0,0.0,0.0,0.0,0.0,0.0,0.0,0.0,0.0,0.0,0.0,0.0,0.0,0.0,0.0,0.0,0.0,0.0,0.0,0.0,0.0,0.0,0.0,0.0,0.0,0.0,0.0,0.0,0.0,0.0,0.0,0.0,0.0,0.0,0.0,0.0,0.0,0.0,0.0,0.0,0.0,0.0,0.0,0.0,0.0,0.0,0.0,0.0,0.0,0.0,0.0,0.0,0.0,0.0,0.0,0.0,0.0,0.0,0.0,0.0,0.0,0.0,0.0,0.0,0.0,0.0,0.0,0.0,0.0,0.0,0.0,0.0,0.0,0.0,0.0,0.0,0.0,0.0,0.0,0.0,0.0,0.0,0.0,0.0,0.0,0.0,0.0,-2.2649,-2.3391,-2.3408,-2.319,0.0,0.0,0.0,0.0,0.0,0.0,0.0,0.0,0.0,0.0,0.0,0.0,0.0,0.0,0.0,0.0,0.0,0.0,0.0,0.0,0.0,0.0,0.0,0.0,0.0,0.0,0.0,0.0,0.0,0.0,0.0,0.0,0.0,0.0,0.0,0.0,0.0,0.0,0.0,0.0,0.0,0.0,0.0,0.0,0.0,0.0,0.0,0.0,0.0,0.0,0.0,0.0,0.0,0.0,0.0,0.0,0.0,0.0,0.0,0.0,0.0,0.0,0.0,0.0,0.0,0.0,0.0,0.0,0.0,0.0,0.0,0.0,0.0,0.0,0.0,0.0,0.0,0.0,0.0,0.0,0.0,0.0,0.0,0.0,0.0,0.0,0.0,0.0,0.0,0.0,0.0,0.0,0.0,0.0,0.0,0.0,0.0,0.0,0.0,0.0,0.0,0.0,0.0,0.0,0.0,0.0,0.0,0.0,0.0,0.0,-2.2398,-2.255,-2.3054,-2.2885,-2.2632,-2.2313,0.0,0.0,0.0,0.0,0.0,0.0,0.0,0.0,0.0,0.0,0.0,0.0,0.0,0.0,0.0,0.0,0.0,0.0,0.0,0.0,0.0,0.0,0.0,0.0,0.0,0.0,0.0,0.0,0.0,0.0,0.0,0.0,0.0,0.0,0.0,0.0,0.0,0.0,0.0,0.0,0.0,0.0,0.0,0.0,0.0,0.0,0.0,0.0,0.0,0.0,0.0,0.0,0.0,0.0,0.0,0.0,0.0,0.0,0.0,0.0,0.0,0.0,0.0,0.0,0.0,0.0,0.0,0.0,0.0,0.0,0.0,0.0,0.0,0.0,0.0,0.0,0.0,0.0,0.0,0.0,0.0,0.0,0.0,0.0,0.0,0.0,0.0,0.0,0.0,0.0,0.0,0.0,0.0,0.0,0.0,0.0,0.0,0.0,0.0,0.0,0.0,0.0,0.0,0.0,0.0,0.0,0.0,0.0,-2.3257,-2.2649,-2.231,-2.233,-2.1664,-2.16,0.0,0.0,0.0,0.0,0.0,0.0,0.0,0.0,0.0,0.0,0.0,0.0,0.0,0.0,0.0,0.0,0.0,0.0,0.0,0.0,0.0,0.0,0.0,0.0,0.0,0.0,0.0,0.0,0.0,0.0,0.0,0.0,0.0,0.0,0.0,0.0,0.0,0.0,0.0,0.0,0.0,0.0,0.0,0.0,0.0,0.0,0.0,0.0,0.0,0.0,0.0,0.0,0.0,0.0,0.0,0.0,0.0,0.0,0.0,0.0,0.0,0.0,0.0,0.0,0.0,0.0,0.0,0.0,0.0,0.0,0.0,0.0,0.0,0.0,0.0,0.0,0.0,0.0,0.0,0.0,0.0,0.0,0.0,0.0,0.0,0.0,0.0,0.0,0.0,0.0,0.0,0.0,0.0,0.0,0.0,0.0,0.0,0.0,0.0,0.0,0.0,0.0,0.0,0.0,0.0,0.0,0.0,0.0,0.0,-2.1938,-2.1718,-2.1597,-2.1597,-2.1343,-2.1343,0.0,0.0,0.0,0.0,0.0,0.0,0.0,0.0,0.0,0.0,0.0,0.0,0.0,0.0,0.0,0.0,0.0,0.0,0.0,0.0,0.0,0.0,0.0,0.0,0.0,0.0,0.0,0.0,0.0,0.0,0.0,0.0,0.0,0.0,0.0,0.0,0.0,0.0,0.0,0.0,0.0,0.0,0.0,0.0,0.0,0.0,0.0,0.0,0.0,0.0,0.0,0.0,0.0,0.0,0.0,0.0,0.0,0.0,0.0,0.0,0.0,0.0,0.0,0.0,0.0,0.0,0.0,0.0,0.0,0.0,0.0,0.0,0.0,0.0,0.0,0.0,0.0,0.0,0.0,0.0,0.0,0.0,0.0,0.0,0.0,0.0,0.0,0.0,0.0,0.0,0.0,0.0,0.0,0.0,0.0,0.0,0.0,0.0,0.0,0.0,0.0,0.0,0.0,0.0,0.0,0.0,0.0,0.0,0.0,-2.1207,0.0,-2.1019,-2.0835,-2.0835,-2.0805,0.0,0.0,0.0,0.0,0.0,0.0,0.0,0.0,0.0,0.0,0.0,0.0,0.0,0.0,0.0,0.0,0.0,0.0,0.0,0.0,0.0,0.0,0.0,0.0,0.0,0.0,0.0,0.0,0.0,0.0,0.0,0.0,0.0,0.0,0.0,0.0,0.0,0.0,0.0,0.0,0.0,0.0,0.0,0.0,0.0,0.0,0.0,0.0,0.0,0.0,0.0,0.0,0.0,0.0,0.0,0.0,0.0,0.0,0.0,0.0,0.0,0.0,0.0,0.0,0.0,0.0,0.0,0.0,0.0,0.0,0.0,0.0,0.0,0.0,0.0,0.0,0.0,0.0,0.0,0.0,0.0,0.0,0.0,0.0,0.0,0.0,0.0,0.0,0.0,0.0,0.0,0.0,0.0,0.0,0.0,0.0,0.0,0.0,0.0,0.0,0.0,0.0,0.0,0.0,0.0,0.0,0.0,0.0,-2.0951,-2.1113,-2.0962,-2.0616,-2.0069,-2.0056,-2.0023,0.0,0.0,0.0,0.0,0.0,0.0,0.0,0.0,0.0,0.0,0.0,0.0,0.0,0.0,0.0,0.0,0.0,0.0,0.0,0.0,0.0,0.0,0.0,0.0,0.0,0.0,0.0,0.0,0.0,0.0,0.0,0.0,0.0,0.0,0.0,0.0,0.0,0.0,0.0,0.0,0.0,0.0,0.0,0.0,0.0,0.0,0.0,0.0,0.0,0.0,0.0,0.0,0.0,0.0,0.0,0.0,0.0,0.0,0.0,0.0,0.0,0.0,0.0,0.0,0.0,0.0,0.0,0.0,0.0,0.0,0.0,0.0,0.0,0.0,0.0,0.0,0.0,0.0,0.0,0.0,0.0,0.0,0.0,0.0,0.0,0.0,0.0,0.0,0.0,0.0,0.0,0.0,0.0,0.0,0.0,0.0,0.0,0.0,0.0,0.0,0.0,0.0,0.0,0.0,0.0,0.0,0.0,0.0,0.0,-1.9424,-1.9717,-2.0345,-2.129,-2.0341,-2.0254,0.0,0.0,0.0,0.0,0.0,0.0,0.0,0.0,0.0,0.0,0.0,0.0,0.0,0.0,0.0,0.0,0.0,0.0,0.0,0.0,0.0,0.0,0.0,0.0,0.0,0.0,0.0,0.0,0.0,0.0,0.0,0.0,0.0,0.0,0.0,0.0,0.0,0.0,0.0,0.0,0.0,0.0,0.0,0.0,0.0,0.0,0.0,0.0,0.0,0.0,0.0,0.0,0.0,0.0,0.0,0.0,0.0,0.0,0.0,0.0,0.0,0.0,0.0,0.0,0.0,0.0,0.0,0.0,0.0,0.0,0.0,0.0,0.0,0.0,0.0,0.0,0.0,0.0,0.0,0.0,0.0,0.0,0.0,0.0,0.0,0.0,0.0,0.0,0.0,0.0,0.0,0.0,0.0,0.0,0.0,0.0,0.0,0.0,0.0,0.0,0.0,0.0,0.0,0.0,0.0,0.0,0.0,0.0,0.0,-1.9817,-1.9994,-2.0695,-2.1901,-2.0764,-2.0539,-2.1321,0.0,0.0,0.0,0.0,0.0,0.0,0.0,0.0,0.0,0.0,0.0,0.0,0.0,0.0,0.0,0.0,0.0,0.0,0.0,0.0,0.0,0.0,0.0,0.0,0.0,0.0,0.0,0.0,0.0,0.0,0.0,0.0,0.0,0.0,0.0,0.0,0.0,0.0,0.0,0.0,0.0,0.0,0.0,0.0,0.0,0.0,0.0,0.0,0.0,0.0,0.0,0.0,0.0,0.0,0.0,0.0,0.0,0.0,0.0,0.0,0.0,0.0,0.0,0.0,0.0,0.0,0.0,0.0,0.0,0.0,0.0,0.0,0.0,0.0,0.0,0.0,0.0,0.0,0.0,0.0,0.0,0.0,0.0,0.0,0.0,0.0,0.0,0.0,0.0,0.0,0.0,0.0,0.0,0.0,0.0,0.0,0.0,0.0,0.0,0.0,0.0,0.0,0.0,0.0,0.0,0.0,0.0,0.0,-2.2003,-2.1664,-2.1631,-2.1939,-2.1325,-2.0905,0.0,0.0,0.0,0.0,0.0,0.0,0.0,0.0,0.0,0.0,0.0,0.0,0.0,0.0,0.0,0.0,0.0,0.0,0.0,0.0,0.0,0.0,0.0,0.0,0.0,0.0,0.0,0.0,0.0,0.0,0.0,0.0,0.0,0.0,0.0,0.0,0.0,0.0,0.0,0.0,0.0,0.0,0.0,0.0,0.0,0.0,0.0,0.0,0.0,0.0,0.0,0.0,0.0,0.0,0.0,0.0,0.0,0.0,0.0,0.0,0.0,0.0,0.0,0.0,0.0,0.0,0.0,0.0,0.0,0.0,0.0,0.0,0.0,0.0,0.0,0.0,0.0,0.0,0.0,0.0,0.0,0.0,0.0,0.0,0.0,0.0,0.0,0.0,0.0,0.0,0.0,0.0,0.0,0.0,0.0,0.0,0.0,0.0,0.0,0.0,0.0,0.0,0.0,0.0,0.0,0.0,0.0,0.0,0.0,-2.323,-2.3592,-2.3647,-2.3484,-2.2442,-2.1827,0.0,0.0,0.0,0.0,0.0,0.0,0.0,0.0,0.0,0.0,0.0,0.0,0.0,0.0,0.0,0.0,0.0,0.0,0.0,0.0,0.0,0.0,0.0,0.0,0.0,0.0,0.0,0.0,0.0,0.0,0.0,0.0,0.0,0.0,0.0,0.0,0.0,0.0,0.0,0.0,0.0,0.0,0.0,0.0,0.0,0.0,0.0,0.0,0.0,0.0,0.0,0.0,0.0,0.0,0.0,0.0,0.0,0.0,0.0,0.0,0.0,0.0,0.0,0.0,0.0,0.0,0.0,0.0,0.0,0.0,0.0,0.0,0.0,0.0,0.0,0.0,0.0,0.0,0.0,0.0,0.0,0.0,0.0,0.0,0.0,0.0,0.0,0.0,0.0,0.0,0.0,0.0,0.0,0.0,0.0,0.0,0.0,0.0,0.0,0.0,0.0,0.0,0.0,0.0,0.0,0.0,0.0,0.0,-2.2891,-2.4398,-2.5051,-2.5134,-2.4638,-2.3851,-2.2863,0.0,0.0,0.0,0.0,0.0,0.0,0.0,0.0,0.0,0.0,0.0,0.0,0.0,0.0,0.0,0.0,0.0,0.0,0.0,0.0,0.0,0.0,0.0,0.0,0.0,0.0,0.0,0.0,0.0,0.0,0.0,0.0,0.0,0.0,0.0,0.0,0.0,0.0,0.0,0.0,0.0,0.0,0.0,0.0,0.0,0.0,0.0,0.0,0.0,0.0,0.0,0.0,0.0,0.0,0.0,0.0,0.0,0.0,0.0,0.0,0.0,0.0,0.0,0.0,0.0,0.0,0.0,0.0,0.0,0.0,0.0,0.0,0.0,0.0,0.0,0.0,0.0,0.0,0.0,0.0,0.0,0.0,0.0,0.0,0.0,0.0,0.0,0.0,0.0,0.0,0.0,0.0,0.0,0.0,0.0,0.0,0.0,0.0,0.0,0.0,0.0,0.0,0.0,0.0,0.0,0.0,0.0,0.0,-2.4056,-2.5373,-2.6195,-2.6195,-2.5333,-2.5073,-2.3756,0.0,0.0,0.0,0.0,0.0,0.0,0.0,0.0,0.0,0.0,0.0,0.0,0.0,0.0,0.0,0.0,0.0,0.0,0.0,0.0,0.0,0.0,0.0,0.0,0.0,0.0,0.0,0.0,0.0,0.0,0.0,0.0,0.0,0.0,0.0,0.0,0.0,0.0,0.0,0.0,0.0,0.0,0.0,0.0,0.0,0.0,0.0,0.0,0.0,0.0,0.0,0.0,0.0,0.0,0.0,0.0,0.0,0.0,0.0,0.0,0.0,0.0,0.0,0.0,0.0,0.0,0.0,0.0,0.0,0.0,0.0,0.0,0.0,0.0,0.0,0.0,0.0,0.0,0.0,0.0,0.0,0.0,0.0,0.0,0.0,0.0,0.0,0.0,0.0,0.0,0.0,0.0,0.0,0.0,0.0,0.0,0.0,0.0,0.0,0.0,0.0,0.0,0.0,0.0,0.0,0.0,0.0,0.0,-2.4727,-2.6065,-2.7334,-2.7119,-2.5342,-2.4413,-2.3133,0.0,0.0,0.0,0.0,0.0,0.0,0.0,0.0,0.0,0.0,0.0,0.0,0.0,0.0,0.0,0.0,0.0,0.0,0.0,0.0,0.0,0.0,0.0,0.0,0.0,0.0,0.0,0.0,0.0,0.0,0.0,0.0,0.0,0.0,0.0,0.0,0.0,0.0,0.0,0.0,0.0,0.0,0.0,0.0,0.0,0.0,0.0,0.0,-1.8955,0.0,0.0,0.0,0.0,0.0,0.0,0.0,0.0,0.0,0.0,0.0,0.0,0.0,0.0,0.0,0.0,0.0,0.0,0.0,0.0,0.0,0.0,0.0,0.0,0.0,0.0,0.0,0.0,0.0,0.0,0.0,0.0,0.0,0.0,0.0,0.0,0.0,0.0,0.0,0.0,0.0,0.0,0.0,0.0,0.0,0.0,0.0,0.0,0.0,0.0,0.0,0.0,0.0,0.0,0.0,0.0,0.0,0.0,0.0,-2.5118,-2.6757,-2.7873,-2.758,-2.5872,-2.4884,-2.3495,0.0,0.0,0.0,0.0,0.0,0.0,0.0,0.0,0.0,0.0,0.0,0.0,0.0,0.0,0.0,0.0,0.0,0.0,0.0,0.0,0.0,0.0,0.0,0.0,0.0,0.0,0.0,0.0,0.0,0.0,0.0,0.0,0.0,0.0,0.0,0.0,0.0,0.0,0.0,0.0,0.0,0.0,0.0,0.0,0.0,0.0,0.0,0.0,0.0,0.0,0.0,0.0,0.0,0.0,0.0,0.0,0.0,0.0,0.0,0.0,0.0,0.0,0.0,0.0,0.0,0.0,0.0,0.0,0.0,0.0,0.0,0.0,0.0,0.0,0.0,0.0,0.0,0.0,0.0,0.0,0.0,0.0,0.0,0.0,0.0,0.0,0.0,0.0,0.0,0.0,0.0,0.0,0.0,0.0,0.0,0.0,0.0,0.0,0.0,0.0,0.0,0.0,0.0,0.0,0.0,0.0,0.0,-2.4087,-2.5349,-2.7457,-2.8011,-2.7657,-2.6426,-2.5487,-2.3947,-2.1748,0.0,0.0,0.0,0.0,0.0,0.0,0.0,0.0,0.0,0.0,0.0,0.0,0.0,0.0,0.0,0.0,0.0,0.0,0.0,0.0,0.0,0.0,0.0,0.0,0.0,0.0,0.0,0.0,0.0,0.0,0.0,0.0,0.0,0.0,0.0,0.0,0.0,0.0,-1.9527,-1.9841,0.0,0.0,0.0,0.0,0.0,0.0,0.0,0.0,-1.7889,0.0,0.0,0.0,0.0,0.0,0.0,0.0,0.0,0.0,0.0,0.0,0.0,0.0,0.0,0.0,0.0,0.0,0.0,0.0,0.0,0.0,0.0,0.0,0.0,0.0,0.0,0.0,0.0,0.0,0.0,0.0,0.0,0.0,0.0,0.0,0.0,0.0,0.0,0.0,0.0,0.0,0.0,0.0,0.0,0.0,0.0,0.0,0.0,0.0,0.0,0.0,0.0,0.0,0.0,0.0,0.0,-2.5076,-2.459,-2.558,-2.815,-2.7796,-2.718,-2.6402,-2.461,-2.3167,-2.2219,0.0,0.0,0.0,0.0,0.0,0.0,0.0,0.0,0.0,0.0,0.0,0.0,0.0,0.0,0.0,0.0,0.0,0.0,0.0,0.0,0.0,0.0,0.0,0.0,0.0,0.0,0.0,0.0,0.0,0.0,0.0,0.0,0.0,0.0,0.0,0.0,0.0,0.0,0.0,-1.9431,-2.0182,0.0,0.0,0.0,0.0,0.0,0.0,0.0,0.0,-1.7833,0.0,0.0,0.0,0.0,0.0,0.0,0.0,0.0,0.0,0.0,0.0,0.0,0.0,0.0,0.0,0.0,0.0,0.0,0.0,0.0,0.0,0.0,0.0,0.0,0.0,0.0,0.0,0.0,0.0,0.0,0.0,0.0,0.0,0.0,0.0,0.0,0.0,0.0,0.0,0.0,0.0,0.0,0.0,0.0,0.0,0.0,0.0,0.0,0.0,0.0,0.0,0.0,0.0,0.0,0.0,-2.4719,-2.4847,-2.598,-2.8288,-2.7734,-2.7088,-2.638,-2.4718,-2.3348,0.0,0.0,0.0,0.0,0.0,0.0,0.0,0.0,0.0,0.0,0.0,0.0,0.0,0.0,0.0,0.0,0.0,0.0,0.0,0.0,0.0,0.0,0.0,0.0,0.0,0.0,0.0,0.0,0.0,0.0,0.0,0.0,0.0,0.0,0.0,0.0,0.0,0.0,0.0,0.0,-1.9335,-1.9547,-1.9738,0.0,0.0,0.0,0.0,0.0,0.0,-1.8288,-1.8161,0.0,0.0,0.0,0.0,0.0,0.0,0.0,0.0,0.0,0.0,0.0,0.0,0.0,0.0,0.0,0.0,0.0,0.0,0.0,0.0,0.0,0.0,0.0,0.0,0.0,0.0,0.0,0.0,0.0,0.0,0.0,0.0,0.0,0.0,0.0,0.0,0.0,0.0,0.0,0.0,0.0,0.0,0.0,0.0,0.0,0.0,0.0,0.0,0.0,0.0,0.0,0.0,0.0,0.0,0.0,-2.4235,-2.4872,-2.616,-2.8112,-2.7446,-2.6719,-2.6052,-2.4602,-2.3257,0.0,0.0,0.0,0.0,0.0,0.0,0.0,0.0,0.0,0.0,0.0,0.0,0.0,0.0,0.0,0.0,0.0,0.0,0.0,0.0,0.0,0.0,0.0,0.0,0.0,0.0,0.0,0.0,0.0,0.0,0.0,0.0,0.0,0.0,0.0,0.0,0.0,0.0,0.0,0.0,0.0,-1.9135,-1.9611,-1.9255,0.0,0.0,0.0,0.0,-1.9119,-1.8813,0.0,0.0,0.0,0.0,0.0,0.0,0.0,0.0,0.0,0.0,0.0,0.0,0.0,0.0,0.0,0.0,0.0,0.0,0.0,0.0,0.0,0.0,0.0,0.0,0.0,0.0,0.0,0.0,0.0,0.0,0.0,0.0,0.0,0.0,0.0,0.0,0.0,0.0,0.0,0.0,0.0,0.0,0.0,0.0,0.0,0.0,0.0,0.0,0.0,0.0,0.0,0.0,0.0,0.0,0.0,0.0,-2.4122,-2.4526,-2.5655,-2.752,-2.6459,-2.5483,-2.4815,-2.3096,-2.1846,0.0,0.0,0.0,0.0,0.0,0.0,0.0,0.0,0.0,0.0,0.0,0.0,0.0,0.0,0.0,0.0,0.0,0.0,0.0,0.0,0.0,0.0,0.0,0.0,0.0,0.0,0.0,0.0,0.0,0.0,0.0,0.0,0.0,0.0,0.0,0.0,0.0,0.0,0.0,0.0,0.0,-1.989,-1.9956,-1.9443,-1.9294,0.0,0.0,-1.8971,-1.8943,-1.8868,0.0,0.0,0.0,0.0,0.0,0.0,0.0,0.0,0.0,0.0,0.0,0.0,0.0,0.0,0.0,0.0,0.0,0.0,0.0,0.0,0.0,0.0,0.0,0.0,0.0,0.0,0.0,0.0,0.0,0.0,0.0,0.0,0.0,0.0,0.0,0.0,0.0,0.0,0.0,0.0,0.0,0.0,0.0,0.0,0.0,0.0,0.0,0.0,0.0,0.0,0.0,0.0,0.0,0.0,0.0,-2.2229,-2.3837,-2.4642,-2.5872,-2.7495,-2.6288,-2.5285,-2.462,-2.278,-2.154,0.0,0.0,0.0,0.0,0.0,0.0,0.0,0.0,0.0,0.0,0.0,0.0,0.0,0.0,0.0,0.0,0.0,0.0,0.0,0.0,0.0,0.0,0.0,0.0,0.0,0.0,0.0,0.0,0.0,0.0,0.0,0.0,0.0,0.0,0.0,0.0,0.0,0.0,0.0,0.0,0.0,0.0,-2.0366,-1.9967,0.0,0.0,0.0,-1.9809,-2.0406,0.0,0.0,0.0,0.0,0.0,0.0,0.0,0.0,0.0,0.0,0.0,0.0,0.0,0.0,0.0,0.0,0.0,0.0,0.0,0.0,0.0,0.0,0.0,0.0,0.0,0.0,0.0,0.0,0.0,0.0,0.0,0.0,0.0,0.0,0.0,0.0,0.0,0.0,0.0,0.0,0.0,0.0,0.0,0.0,0.0,0.0,0.0,0.0,0.0,0.0,0.0,0.0,0.0,0.0,0.0,0.0,0.0,-2.3291,-2.4376,-2.5628,-2.7005,-2.5818,-2.4824,-2.4164,-2.2497,0.0,0.0,0.0,0.0,0.0,0.0,0.0,0.0,0.0,0.0,0.0,0.0,0.0,0.0,0.0,0.0,0.0,0.0,0.0,0.0,0.0,0.0,0.0,0.0,0.0,0.0,0.0,-2.0932,0.0,0.0,0.0,0.0,0.0,0.0,0.0,0.0,0.0,0.0,0.0,0.0,0.0,0.0,-2.0437,-2.0831,-2.0604,-2.0733,0.0,0.0,-2.0667,-2.1497,-2.1235,-2.0844,0.0,0.0,0.0,0.0,0.0,0.0,0.0,0.0,0.0,0.0,0.0,0.0,0.0,0.0,0.0,0.0,0.0,0.0,0.0,0.0,0.0,0.0,0.0,0.0,0.0,0.0,0.0,0.0,0.0,0.0,0.0,0.0,0.0,0.0,0.0,0.0,0.0,0.0,0.0,0.0,0.0,0.0,0.0,0.0,0.0,0.0,0.0,0.0,0.0,0.0,0.0,0.0,0.0,0.0,-2.1776,-2.2475,-2.325,-2.4355,-2.5647,-2.4481,-2.3574,-2.3006,-2.1905,-2.0769,0.0,0.0,0.0,0.0,0.0,0.0,0.0,0.0,0.0,0.0,0.0,0.0,0.0,0.0,0.0,0.0,0.0,0.0,0.0,0.0,0.0,0.0,0.0,0.0,0.0,0.0,0.0,0.0,0.0,0.0,0.0,0.0,0.0,0.0,0.0,0.0,0.0,0.0,0.0,0.0,0.0,-2.1523,-2.1446,-2.142,-2.1616,0.0,-2.1812,-2.142,-2.1511,-2.1472,-2.1276,-2.0791,0.0,0.0,0.0,0.0,0.0,0.0,0.0,0.0,0.0,0.0,0.0,0.0,0.0,0.0,0.0,0.0,0.0,0.0,0.0,0.0,0.0,0.0,0.0,0.0,0.0,0.0,0.0,0.0,0.0,0.0,0.0,0.0,0.0,0.0,0.0,0.0,0.0,0.0,0.0,0.0,0.0,0.0,0.0,0.0,0.0,0.0,0.0,0.0,0.0,0.0,0.0,0.0,0.0,-2.1405,-2.2497,-2.3488,-2.4462,-2.5389,-2.4654,-2.3732,-2.2735,-2.1571,-2.0535,0.0,0.0,0.0,0.0,0.0,0.0,0.0,0.0,0.0,0.0,0.0,0.0,0.0,0.0,0.0,0.0,0.0,0.0,0.0,0.0,0.0,0.0,0.0,0.0,0.0,0.0,0.0,0.0,-2.0766,-2.0573,-2.0686,0.0,0.0,0.0,0.0,0.0,0.0,0.0,0.0,0.0,0.0,-2.1681,-2.2009,-2.2047,0.0,0.0,-2.2686,-2.2439,-2.2086,-2.2047,-2.1747,-2.0844,-2.0699,0.0,0.0,0.0,0.0,0.0,0.0,0.0,0.0,0.0,0.0,0.0,0.0,0.0,0.0,0.0,0.0,0.0,0.0,0.0,0.0,0.0,0.0,0.0,0.0,0.0,0.0,0.0,0.0,0.0,0.0,0.0,0.0,0.0,0.0,0.0,0.0,0.0,0.0,0.0,0.0,0.0,0.0,0.0,0.0,0.0,0.0,0.0,0.0,0.0,0.0,0.0,0.0,-2.1225,-2.254,-2.3481,-2.4393,-2.5331,-2.4547,-2.373,-2.2878,-2.1626,-2.0711,0.0,0.0,0.0,0.0,0.0,0.0,0.0,0.0,0.0,0.0,0.0,0.0,0.0,0.0,0.0,0.0,0.0,0.0,0.0,0.0,0.0,0.0,0.0,0.0,0.0,0.0,0.0,0.0,-2.0923,-2.0699,-2.0699,0.0,0.0,0.0,0.0,0.0,0.0,0.0,0.0,0.0,0.0,-2.193,-2.2336,-2.2387,-2.2544,-2.291,-2.2818,-2.2557,-2.2205,-2.231,-2.1995,-2.0895,0.0,0.0,0.0,0.0,0.0,0.0,0.0,0.0,0.0,0.0,0.0,0.0,0.0,0.0,0.0,0.0,0.0,0.0,0.0,0.0,0.0,0.0,0.0,0.0,0.0,0.0,0.0,-2.4099,0.0,0.0,-2.4003,0.0,0.0,0.0,0.0,0.0,0.0,0.0,0.0,0.0,0.0,0.0,0.0,0.0,0.0,0.0,0.0,0.0,0.0,0.0,0.0,0.0,0.0,-2.1305,-2.2486,-2.2965,-2.3819,-2.5105,-2.3971,-2.3406,-2.3426,-2.2232,-2.129,-2.0684,0.0,0.0,0.0,0.0,0.0,0.0,0.0,0.0,0.0,0.0,0.0,0.0,0.0,0.0,0.0,0.0,0.0,0.0,0.0,0.0,0.0,0.0,0.0,0.0,0.0,0.0,-2.0763,-2.0712,-2.0699,0.0,0.0,0.0,0.0,0.0,0.0,0.0,0.0,0.0,-2.1433,-2.2022,-2.2375,-2.2428,-2.24,-2.2465,-2.2453,-2.1969,-2.159,-2.159,-2.2008,-2.2035,0.0,0.0,0.0,0.0,0.0,0.0,0.0,0.0,0.0,0.0,0.0,0.0,0.0,0.0,0.0,0.0,0.0,0.0,0.0,0.0,0.0,0.0,0.0,0.0,0.0,0.0,0.0,-2.5207,-2.4209,0.0,0.0,0.0,0.0,0.0,0.0,0.0,0.0,0.0,0.0,0.0,-2.2449,-2.2426,0.0,0.0,0.0,0.0,0.0,0.0,0.0,0.0,0.0,0.0,0.0,0.0,-2.1702,-2.2856,-2.347,-2.4202,-2.5017,-2.4242,-2.3632,-2.3233,-2.2032,-2.113,-2.0599,0.0,0.0,0.0,0.0,0.0,0.0,0.0,0.0,0.0,0.0,0.0,0.0,0.0,0.0,0.0,0.0,0.0,0.0,0.0,0.0,0.0,0.0,0.0,0.0,0.0,-2.0875,0.0,0.0,0.0,0.0,0.0,0.0,0.0,0.0,0.0,0.0,0.0,-2.1289,-2.1459,-2.2335,-2.2923,-2.2936,-2.3276,-2.3537,0.0,0.0,0.0,0.0,0.0,0.0,0.0,0.0,0.0,0.0,0.0,0.0,0.0,0.0,-2.2018,-2.1329,-2.1224,-2.1263,-2.1342,0.0,0.0,0.0,0.0,0.0,0.0,0.0,0.0,0.0,0.0,0.0,0.0,0.0,0.0,-2.5326,-2.4153,-2.4109,0.0,0.0,0.0,0.0,0.0,0.0,0.0,0.0,-2.2583,-2.2541,-2.2531,-2.2756,-2.2742,-2.2531,-2.2493,-2.2489,0.0,0.0,0.0,0.0,0.0,0.0,0.0,0.0,-2.2222,-2.3407,-2.4092,-2.4711,-2.526,-2.4725,-2.4106,-2.3459,-2.225,-2.1344,-2.079,-2.0864,-2.0949,0.0,0.0,0.0,0.0,0.0,0.0,0.0,0.0,0.0,0.0,0.0,0.0,0.0,0.0,0.0,0.0,0.0,0.0,0.0,0.0,0.0,0.0,0.0,-2.0998,0.0,0.0,0.0,0.0,0.0,0.0,0.0,0.0,0.0,-2.0758,-2.103,-2.1326,-2.1725,-2.2407,-2.2871,-2.2871,0.0,0.0,0.0,0.0,0.0,0.0,0.0,-2.2554,-2.2304,-2.2068,-2.196,-2.2013,-2.2112,-2.2493,-2.3423,0.0,0.0,-2.1937,-2.1929,-2.199,-2.1812,-2.1784,-2.1886,-2.2059,-2.1456,-2.104,0.0,0.0,0.0,0.0,-2.6806,0.0,0.0,0.0,-2.5832,-2.5106,0.0,-2.3929,0.0,0.0,0.0,0.0,-2.2838,-2.2853,0.0,0.0,-2.3088,-2.3261,-2.3206,-2.3769,-2.3755,-2.3154,-2.3101,-2.2806,-2.2283,-2.2255,0.0,0.0,0.0,0.0,0.0,0.0,-2.2855,-2.4078,-2.4697,-2.5288,-2.5837,-2.5289,-2.4697,-2.4061,-2.2841,-2.1912,-2.1378,-2.1755,-2.1741,-2.1183,-2.1442,0.0,0.0,0.0,0.0,0.0,0.0,0.0,0.0,0.0,0.0,0.0,0.0,0.0,0.0,0.0,0.0,0.0,0.0,0.0,0.0,-2.1628,0.0,0.0,0.0,0.0,0.0,0.0,0.0,0.0,0.0,-2.0838,-2.0983,-2.0822,-2.1051,-2.2092,0.0,0.0,0.0,0.0,-2.2487,-2.1653,-2.2029,-2.2221,-2.1568,-2.2408,-2.2844,-2.2035,0.0,0.0,-2.231,-2.2247,-2.2437,-2.2921,-2.2788,-2.2763,-2.3629,-2.3268,-2.2811,-2.239,-2.239,-2.2285,-2.1815,-2.1534,-2.1248,-2.7648,0.0,0.0,0.0,0.0,-2.6794,-2.6704,-2.646,-2.6006,-2.5328,-2.452,-2.4094,0.0,0.0,0.0,0.0,0.0,0.0,-2.3664,-2.4023,-2.4038,-2.3985,-2.3936,-2.4058,-2.3867,-2.3483,-2.3444,-2.3259,-2.2916,-2.3094,-2.2752,-2.1954,0.0,0.0,0.0,0.0,-2.3473,-2.4669,-2.4922,-2.5275,-2.5879,-2.5289,-2.4486,-2.3417,-2.263,-2.2123,-2.194,-2.2063,-2.203,-2.1746,-2.1734,0.0,0.0,0.0,0.0,0.0,0.0,0.0,0.0,0.0,0.0,0.0,0.0,0.0,0.0,0.0,0.0,0.0,0.0,0.0,-2.1248,-2.1186,-2.1058,0.0,0.0,0.0,0.0,0.0,0.0,0.0,0.0,0.0,-2.1153,-2.1375,-2.1424,0.0,0.0,-2.2379,-2.1979,-2.2471,-2.276,-2.2504,-2.2732,0.0,-2.2328,-2.2242,-2.2168,-2.2053,-2.231,-2.2575,-2.2818,-2.2959,-2.324,-2.3755,-2.3769,-2.3664,-2.3486,-2.3132,-2.2751,-2.2651,-2.2947,-2.3199,-2.3057,-2.2663,-2.2305,-2.8463,-2.7547,-2.7576,-2.7561,-2.7561,-2.7561,-2.7561,-2.7517,-2.6837,-2.6199,-2.5549,-2.4921,-2.4297,-2.3693,-2.3656,0.0,0.0,0.0,-2.4317,-2.4622,-2.456,-2.4546,-2.4575,-2.4502,-2.4291,-2.3964,-2.3845,-2.3604,-2.3189,-2.3332,-2.3104,-2.2588,0.0,-2.3136,-2.3477,-2.3741,-2.4233,-2.4978,-2.5246,-2.5528,-2.5879,-2.5289,-2.4528,-2.3544,-2.2873,-2.2423,-2.2208,-2.2194,-2.2147,-2.2091,-2.1935,-2.1855,0.0,0.0,0.0,0.0,0.0,0.0,0.0,0.0,0.0,0.0,0.0,-2.1385,-2.1385,0.0,0.0,0.0,-2.1722,-2.1746,-2.1381,-2.1664,0.0,0.0,0.0,0.0,0.0,0.0,0.0,-2.0947,-2.0816,-2.0855,-2.1214,-2.1437,-2.1458,-2.1235,-2.197,-2.2423,-2.2091,0.0,-2.3093,-2.2761,-2.3004,-2.3053,-2.2594,-2.2311,-2.2201,-2.2385,-2.2512,-2.2701,-2.3008,-2.3306,-2.3605,-2.3857,-2.3942,-2.3843,-2.3536,-2.3132,-2.2798,-2.2772,-2.32,-2.3525,-2.3398,-2.2971,-2.2591,-2.9363,-2.8826,-2.8854,-2.8796,-2.8709,-2.8694,-2.8694,-2.8651,-2.7998,-2.7376,-2.6823,-2.6155,-2.5585,-2.5038,-2.4969,0.0,-2.4993,-2.4993,-2.4926,-2.4786,-2.4962,-2.5082,-2.5096,-2.5066,-2.4872,-2.4517,-2.4245,-2.3838,-2.3311,-2.3217,-2.323,-2.323,-2.3915,-2.4184,-2.4154,-2.4647,-2.497,-2.5082,-2.5559,-2.5825,-2.5852,-2.5303,-2.4711,-2.4092,-2.3459,-2.2826,-2.225,-2.2194,-2.2194,-2.2184,-2.2053,-2.1983,-2.1983,0.0,0.0,0.0,0.0,0.0,0.0,0.0,0.0,0.0,0.0,0.0,0.0,0.0,0.0,0.0,-2.2358,0.0,-2.1954,-2.2627,0.0,0.0,0.0,-2.1574,-2.1394,-2.1278,-2.1133,-2.1026,0.0,0.0,-2.1195,-2.1201,-2.1328,-2.1592,-2.2054,-2.2315,-2.2303,-2.2939,-2.3227,-2.2401,-2.2863,-2.3059,-2.2371,-2.2344,-2.2471,-2.2682,-2.2878,-2.2867,-2.2876,-2.3317,-2.3571,-2.3395,-2.3485,-2.3545,-2.3556,-2.322,-2.2922,-2.2755,-2.3151,-2.3423,-2.3088,-2.2663,-2.2333,-3.0263,-3.0147,-3.0162,-2.961,-2.8709,-2.8694,-2.8694,-2.8651,-2.7998,-2.7623,-2.7434,-2.6837,-2.6474,-2.6329,-2.6315,-2.6419,-2.6624,-2.6624,-2.6732,-2.6919,-2.6746,-2.6408,-2.6007,-2.5789,-2.5272,-2.4535,-2.4423,-2.4228,-2.3894,-2.4081,-2.4181,-2.4207,-2.5047,-2.4997,-2.4135,-2.4245,-2.4764,-2.5695,-2.5394,-2.5342,-2.5578,-2.5196,-2.4711,-2.4132,-2.3449,-2.2802,-2.2236,-2.2194,-2.2194,-2.217,-2.1959,-2.1855,-2.1855,-2.164,0.0,0.0,0.0,0.0,0.0,0.0,0.0,0.0,0.0,-2.1264,-2.0957,0.0,-2.1392,0.0,-2.2009,-2.2309,-2.1868,-2.2005,0.0,0.0,-2.1313,-2.1219,-2.1115,-2.1075,-2.1056,-2.1136,-2.1174,-2.1146,-2.121,-2.1201,-2.1233,-2.1308,-2.1421,-2.147,-2.1502,-2.1742,-2.1873,-2.1751,-2.2236,-2.235,-2.1704,-2.1604,-2.1827,-2.2071,-2.2548,-2.2695,-2.2032,-2.2746,-2.324,-2.2748,-2.2904,-2.3117,-2.3139,-2.3027,-2.2852,-2.2528,-2.2794,-2.3113,-2.3027,-2.2619,-2.2324,-3.0859,-3.0612,-3.0612,-3.0191,-2.9552,-2.9552,-2.9552,-2.9508,-2.8855,-2.8536,-2.8507,-2.7911,-2.7663,-2.7621,-2.7485,-2.7493,-2.764,-2.7499,-2.7497,-2.7586,-2.7262,-2.6935,-2.6589,-2.6205,-2.5748,-2.5295,-2.4895,-2.4744,-2.4857,-2.4774,-2.482,-2.5084,-2.5595,-2.5525,-2.4911,-2.5131,-2.56,-2.6237,-2.6072,-2.5958,-2.5853,-2.5384,-2.4919,-2.45,-2.3236,-2.2476,-2.2342,-2.1907,-2.1732,-2.1926,-2.1769,-2.1793,-2.1973,-2.1616,-2.1507,0.0,0.0,0.0,0.0,0.0,0.0,0.0,0.0,0.0,0.0,0.0,-2.1328,-2.129,-2.1867,-2.2186,-2.1989,-2.2103,-2.2039,-2.1777,-2.1597,-2.1422,-2.1346,-2.1247,-2.1179,-2.1187,-2.1201,-2.1201,-2.1201,-2.1201,-2.1201,-2.1201,-2.1201,-2.1282,-2.1523,-2.1772,-2.1918,-2.1677,-2.2145,-2.2401,-2.1935,-2.2126,-2.2298,-2.2274,-2.2569,-2.2613,-2.21,-2.2575,-2.2961,-2.2667,-2.263,-2.2732,-2.2783,-2.256,-2.228,-2.2127,-2.2193,-2.2346,-2.2368,-2.2171,-2.204,-3.1161,-3.0654,-3.0581,-3.0507,-3.0477,-3.0522,-3.0552,-3.0509,-2.9928,-2.9623,-2.9565,-2.9045,-2.8799,-2.8813,-2.8512,-2.8353,-2.8295,-2.803,-2.7794,-2.7628,-2.7316,-2.7138,-2.7023,-2.6489,-2.6219,-2.6188,-2.5437,-2.5297,-2.5704,-2.5253,-2.5266,-2.5704,-2.5808,-2.5834,-2.5866,-2.6419,-2.6656,-2.66,-2.7001,-2.685,-2.6149,-2.5642,-2.5163,-2.4696,-2.2994,-2.2167,-2.2333,-2.1495,-2.1164,-2.1506,-2.1458,-2.1602,-2.1935,-2.155,-2.1502,0.0,-2.1498,0.0,0.0,0.0,0.0,0.0,0.0,0.0,0.0,-2.1237,-2.1315,-2.1359,-2.1857,-2.218,-2.2151,-2.2364,-2.2451,-2.2421,-2.2056,-2.1769,-2.1683,-2.1514,-2.1336,-2.1265,-2.1221,-2.1221,-2.1201,-2.1201,-2.1201,-2.1201,-2.1201,-2.1328,-2.1732,-2.2099,-2.2236,-2.1917,-2.2294,-2.2535,-2.273,-2.3052,-2.3063,-2.2731,-2.2754,-2.2651,-2.2275,-2.2498,-2.2741,-2.2663,-2.2413,-2.2347,-2.2504,-2.2077,-2.1662,-2.162,-2.1686,-2.1728,-2.1704,-2.1658,-2.1734,-3.1284,-3.0891,-3.0403,-3.0036,-2.982,-3.0066,-3.0203,-3.0189,-3.0074,-2.9864,-2.9605,-2.9492,-2.9435,-2.9435,-2.9388,-2.919,-2.8941,-2.8879,-2.866,-2.8389,-2.8157,-2.7818,-2.74,-2.695,-2.6459,-2.5887,-2.5556,-2.5412,-2.5389,-2.5299,-2.5286,-2.5402,-2.582,-2.6051,-2.6077,0.0,0.0,0.0,-2.6742,-2.6556,-2.5482,-2.5662,-2.5021,-2.3458,-2.3106,0.0,-2.164,-2.1245,-2.1028,-2.1091,-2.0809,0.0,0.0,0.0,0.0,0.0,0.0,0.0,0.0,0.0,0.0,0.0,-2.1807,-2.1578,-2.0888,-2.1034,-2.1264,-2.1611,-2.1994,-2.2078,-2.1839,-2.183,-2.1765,-2.1494,-2.1368,-2.1336,-2.1431,-2.1431,-2.1388,-2.1368,-2.1368,-2.1305,-2.1221,-2.1201,-2.1201,-2.1201,-2.1201,-2.1236,-2.1339,-2.1466,-2.1615,-2.1825,-2.2009,-2.2398,-2.3144,-2.3029,-2.28,-2.2583,-2.2948,-2.2799,-2.1913,-2.2083,-2.224,-2.1913,-2.1933,-2.2121,-2.2179,-2.2077,-2.182,-2.152,-2.1698,-2.1918,-2.1651,-2.1592,-2.1614,-3.1094,-3.0509,-3.0054,-2.9865,0.0,-2.9865,-2.9772,-2.9634,-3.0127,-3.0172,-2.9834,-2.9665,-2.9602,-2.9571,-2.9415,-2.9257,-2.9099,-2.894,-2.8651,-2.8373,-2.8262,-2.7919,-2.7399,-2.7203,-2.685,-2.6369,-2.5987,-2.5936,-2.6114,-2.5845,-2.5825,-2.6153,-2.6401,-2.6542,-2.6555,-2.6756,-2.6616,-2.6094,-2.6726,-2.6453,-2.5252,-2.5097,-2.4435,-2.3135,-2.2191,0.0,0.0,0.0,0.0,0.0,0.0,0.0,0.0,-2.1076,0.0,-2.1667,-2.1647,-2.1778,-2.2156,-2.2206,-2.2115,-2.1964,-2.1844,-2.1556,-2.099,-2.1129,-2.1313,-2.1436,-2.1603,-2.1663,-2.1557,-2.1557,-2.1526,-2.1466,-2.1423,-2.1486,-2.1506,-2.1549,-2.1537,-2.1549,-2.1463,-2.1356,-2.1305,-2.1221,-2.1201,-2.1201,-2.1201,-2.1201,-2.1201,-2.1201,-2.1385,-2.1802,-2.1906,-2.2158,-2.2868,-2.2891,-2.2559,-2.2331,-2.2422,-2.2365,-2.1765,-2.1834,-2.1969,-2.1969,-2.1925,-2.1778,-2.1857,-2.1655,-2.1297,-2.1029,-2.1163,-2.1297,-2.1096,-2.1261,-2.146,-3.1105,-3.0378,-2.9968,-2.9901,-2.999,-2.9757,-2.9481,-2.9257,-2.996,0.0,0.0,-2.954,-2.9415,-2.9415,-2.9131,-2.9004,-2.8972,-2.8651,-2.8373,-2.8112,-2.8013,-2.7736,-2.7335,-2.7302,-2.718,-2.6985,-2.6445,-2.647,-2.6884,-2.6391,-2.6424,-2.6871,-2.6909,-2.6875,-2.6854,-2.6888,-2.6658,-2.6371,-2.6735,-2.6394,-2.5256,-2.4621,-2.3948,-2.3155,-2.1455,-2.07,-2.0967,-2.0138,-1.9823,-2.0152,-2.0541,-2.09,-2.1246,-2.1348,-2.1608,-2.2014,-2.1733,-2.1789,-2.2322,-2.2247,-2.2197,-2.2154,-2.1949,-2.1667,-2.1328,-2.138,-2.1411,-2.1296,-2.1285,-2.1316,-2.1431,-2.1463,-2.1506,-2.1667,-2.171,-2.1698,-2.173,-2.173,-2.1718,-2.173,-2.16,-2.1451,-2.1463,-2.1316,-2.1221,-2.1221,-2.1233,-2.1201,-2.1213,-2.1305,-2.1491,-2.1847,-2.1906,-2.2055,-2.2432,-2.2536,-2.234,-2.1848,-2.1848,-2.1871,-2.1791,-2.1637,-2.1796,-2.2192,-2.1821,-2.1517,-2.1515,-2.1222,-2.0744,-2.0561,-2.0736,-2.0834,-2.066,-2.105,-2.1374,-3.1914,-3.1514,-3.0954,-3.0276,-2.9578,-2.984,-2.9789,-2.9491,-2.9067,-2.8844,-2.8812,-2.8748,-2.8748,-2.8716,-2.8683,-2.8651,-2.8651,-2.8308,-2.8145,-2.8079,-2.7736,-2.7536,-2.7469,-2.7369,-2.7201,-2.6973,-2.6727,-2.6603,-2.6543,-2.648,-2.6492,-2.6555,-2.6568,-2.6465,-2.6339,-2.6305,-2.6201,-2.5968,-2.6487,-2.6261,-2.5311,-2.4913,-2.4117,-2.2917,-2.231,-2.18,-2.1365,-2.0946,-2.0797,-2.0853,-2.0714,-2.0661,-2.073,-2.117,-2.1426,-2.1535,-2.1886,-2.2113,-2.2204,-2.2228,-2.2123,-2.1968,-2.2061,-2.198,-2.1667,-2.1624,-2.1667,-2.1635,-2.1635,-2.1624,-2.1667,-2.1655,-2.1655,-2.1698,-2.171,-2.1718,-2.1874,-2.1874,-2.1874,-2.1874,-2.1831,-2.1769,-2.1643,-2.1474,-2.1368,-2.1368,-2.1273,-2.1201,-2.1259,-2.1548,-2.178,-2.1883,-2.1906,-2.1929,-2.1986,-2.1997,-2.1835,-2.1385,-2.1652,-2.1743,-2.1431,-2.133,-2.1344,-2.1431,-2.1355,-2.1266,-2.1307,-2.1195,-2.1063,-2.1022,-2.1316,-2.1464,-2.1101,-2.1419,-2.1558,-3.1288,-3.1206,-3.0458,-3.0172,-3.0233,-2.9871,-2.9457,-2.9049,-2.8716,-2.8716,-2.8844,-2.8683,-2.8587,-2.8587,-2.8587,-2.8587,-2.8587,-2.8438,-2.8131,-2.7769,-2.759,-2.7302,-2.6998,-2.6897,-2.6829,-2.6726,-2.6624,-2.6568,-2.6499,-2.6487,-2.6487,-2.6487,-2.6487,-2.6465,-2.6374,-2.6361,-2.6258,-2.6062,-2.6176,-2.5868,-2.5065,-2.4874,-2.4054,-2.2518,-2.2329,-2.1844,-2.1007,-2.0856,-2.0799,-2.0799,-2.0945,-2.1043,-2.1055,-2.1548,-2.1837,-2.1837,-2.2053,-2.2197,-2.2197,-2.2197,-2.2166,-2.2092,-2.2154,-2.2135,-2.1968,-2.1886,-2.1781,-2.1698,-2.171,-2.173,-2.1792,-2.1812,-2.1855,-2.1968,-2.1968,-2.2011,-2.2042,-2.2061,-2.2061,-2.2049,-2.1968,-2.1874,-2.1812,-2.1655,-2.158,-2.1549,-2.1411,-2.1305,-2.1305,-2.1449,-2.1514,-2.1514,-2.1514,-2.1502,-2.1514,-2.1502,-2.1431,-2.1224,-2.1385,-2.1431,-2.1224,-2.1201,-2.1201,-2.1201,-2.1201,-2.1201,-2.1201,-2.1201,-2.1169,-2.1085,-2.1287,-2.1344,-2.1186,-2.13,-2.1335,-3.0733,-3.0924,-3.0065,-3.0044,-3.0512,-2.9656,-2.9007,-2.86,-2.8587,-2.8761,-2.894,-2.8716,-2.8587,-2.8587,-2.8522,-2.849,-2.849,-2.8392,-2.802,-2.7436,-2.739,-2.7053,-2.6521,-2.6487,-2.6487,-2.6487,-2.6487,-2.6487,-2.6487,-2.6487,-2.6487,-2.6487,-2.6487,-2.6487,-2.6487,-2.6487,-2.6443,-2.627,-2.6084,-2.5701,-2.5078,-2.4876,-2.4105,-2.273,-2.2457,-2.1933,-2.1031,-2.0971,-2.0971,-2.0983,-2.1368,-2.1584,-2.1596,-2.1957,-2.2197,-2.2197,-2.2197,-2.2197,-2.2197,-2.2197,-2.2197,-2.2197,-2.2197,-2.2197,-2.2185,-2.2061,-2.1906,-2.1824,-2.1824,-2.1886,-2.1968,-2.1956,-2.203,-2.2166,-2.2197,-2.2166,-2.2197,-2.2197,-2.2197,-2.2154,-2.2061,-2.1968,-2.1937,-2.1855,-2.173,-2.1667,-2.1549,-2.1474,-2.1443,-2.1348,-2.1253,-2.1253,-2.1221,-2.1224,-2.1201,-2.1224,-2.1213,-2.1201,-2.1213,-2.1236,-2.1201,-2.1201,-2.1201,-2.1201,-2.1201,-2.1201,-2.1201,-2.1201,-2.1138,-2.1074,-2.1172,-2.1181,-2.1085,-2.1117,-2.1149,-3.1241,-3.1145,-3.0554,-3.0045,-2.9636,-2.8986,-2.8701,-2.8587,-2.8587,-2.8587,-2.8651,-2.8619,-2.8587,-2.8554,-2.8276,-2.8145,-2.8112,-2.7769,-2.7423,-2.7121,-2.704,-2.685,-2.6521,-2.6487,-2.6487,-2.6487,-2.6487,-2.6487,-2.6487,-2.6487,-2.6487,-2.6487,-2.6487,-2.6487,-2.6487,-2.6487,-2.6499,-2.6465,-2.6452,-2.622,-2.5777,-2.5139,-2.4478,-2.3846,-2.3244,-2.2642,-2.2017,-2.2053,-2.2041,-2.2053,-2.2077,-2.2113,-2.2125,-2.2173,-2.2197,-2.2197,-2.2197,-2.2197,-2.2197,-2.2197,-2.2209,-2.2197,-2.2221,-2.2209,-2.2197,-2.2166,-2.2166,-2.2135,-2.2135,-2.2135,-2.2154,-2.2166,-2.2166,-2.2197,-2.2197,-2.2197,-2.2197,-2.2197,-2.2197,-2.2197,-2.219,-2.2197,-2.2183,-2.2035,-2.1831,-2.1761,-2.1686,-2.1655,-2.1655,-2.1506,-2.1368,-2.1336,-2.1273,-2.1221,-2.1201,-2.1201,-2.1201,-2.1201,-2.1201,-2.1201,-2.1201,-2.1201,-2.1201,-2.1201,-2.1201,-2.1201,-2.1201,-2.1201,-2.1201,-2.1169,-2.1169,-2.1201,-2.1169,-2.1169,-2.1138,-3.1504,-3.1707,-3.0798,-3.0052,-2.9502,-2.9211,-2.8912,-2.86,-2.8587,-2.8587,-2.8587,-2.8587,-2.849,-2.8276,-2.7901,-2.7736,-2.7736,-2.7556,-2.7323,-2.704,-2.7007,-2.6816,-2.6521,-2.6487,-2.6487,-2.6487,-2.6487,-2.6487,-2.6487,-2.6487,-2.6487,-2.6487,-2.6487,-2.6487,-2.6487,-2.6487,-2.6487,-2.6487,-2.6487,-2.643,-2.6233,-2.5724,-2.4978,-2.4065,-2.3655,-2.3059,-2.2294,-2.2197,-2.2197,-2.2197,-2.2197,-2.2197,-2.2197,-2.2197,-2.2197,-2.2197,-2.2197,-2.233,-2.2642,-2.2654,-2.2686,-2.2654,-2.2666,-2.2566,-2.2221,-2.2197,-2.2197,-2.2197,-2.2197,-2.2197,-2.2197,-2.2197,-2.2197,-2.2197,-2.2197,-2.2209,-2.2197,-2.2197,-2.2282,-2.257,-2.2378,-2.2342,-2.2534,-2.2315,-2.2085,-2.1968,-2.1917,-2.1843,-2.1812,-2.1686,-2.1537,-2.1431,-2.1356,-2.1273,-2.1233,-2.1201,-2.1201,-2.1201,-2.1201,-2.1201,-2.1201,-2.1201,-2.1201,-2.1201,-2.1201,-2.1201,-2.1201,-2.1201,-2.1201,-2.1201,-2.1201,-2.1201,-2.1201,-2.1201,-2.1169,-3.1287,-3.1477,-3.037,-2.9578,-2.9191,-2.9139,-2.8862,-2.8498,-2.8392,-2.8392,-2.836,-2.8216,-2.8066,-2.7802,-2.7556,-2.7469,-2.739,-2.7356,-2.7188,-2.6905,-2.6939,-2.6803,-2.6521,-2.6487,-2.6487,-2.6487,-2.6487,-2.6487,-2.6487,-2.6487,-2.6487,-2.6487,-2.6487,-2.6487,-2.6487,-2.6487,-2.6487,-2.6487,-2.6487,-2.6487,-2.644,-2.6005,-2.52,-2.4176,-2.3938,-2.3345,-2.2258,-2.2197,-2.2197,-2.2197,-2.2361,-2.2414,-2.2414,-2.2414,-2.2414,-2.2426,-2.2578,-2.2799,-2.3171,-2.3228,-2.3168,-2.3035,-2.3011,-2.2763,-2.2318,-2.2197,-2.2258,-2.2426,-2.2414,-2.239,-2.2209,-2.2318,-2.2402,-2.2414,-2.251,-2.2618,-2.2654,-2.2618,-2.2799,-2.3107,-2.2794,-2.2474,-2.2642,-2.2426,-2.2166,-2.2166,-2.2061,-2.1987,-2.1968,-2.1855,-2.1686,-2.1506,-2.1431,-2.1336,-2.1233,-2.1201,-2.1201,-2.1201,-2.1201,-2.1201,-2.1201,-2.1201,-2.1201,-2.1201,-2.1201,-2.1201,-2.1201,-2.1201,-2.1201,-2.1201,-2.1201,-2.1201,-2.1201,-2.1201,-2.1201,-3.0459,-3.0303,-2.8991,-2.8468,-2.8341,-2.8264,-2.8152,-2.8145,-2.7967,-2.7855,-2.7776,-2.7377,-2.7108,-2.7108,-2.7356,-2.7323,-2.704,-2.704,-2.685,-2.6602,-2.6837,-2.6803,-2.6487,-2.6487,-2.6487,-2.6487,-2.6487,-2.6487,-2.6487,-2.6487,-2.6487,-2.6487,-2.6487,-2.6487,-2.6487,-2.6487,-2.6487,-2.6487,-2.6487,-2.6487,-2.6402,-2.5759,-2.5061,-2.4398,-2.4091,-2.3418,-2.2385,-2.2209,-2.2221,-2.2209,-2.2666,-2.2919,-2.2963,-2.2987,-2.2987,-2.3011,-2.3433,-2.371,-2.3758,-2.377,-2.3565,-2.3132,-2.3119,-2.2818,-2.2342,-2.233,-2.2554,-2.2907,-2.2975,-2.2775,-2.2438,-2.2727,-2.2975,-2.2967,-2.3408,-2.3613,-2.3673,-2.3565,-2.371,-2.3697,-2.3348,-2.2919,-2.2426,-2.2221,-2.2258,-2.2258,-2.2221,-2.2166,-2.2123,-2.1999,-2.1831,-2.1675,-2.1537,-2.1356,-2.1265,-2.1201,-2.1201,-2.1201,-2.1201,-2.1201,-2.1201,-2.1201,-2.1201,-2.1201,-2.1201,-2.1201,-2.1201,-2.1201,-2.1201,-2.1201,-2.1201,-2.1201,-2.1201,-2.1201,-2.1201,-3.1083,-3.0303,-2.9429,-2.8861,-2.849,-2.8425,-2.8308,-2.8112,-2.8,-2.7868,-2.759,-2.739,-2.7209,-2.7007,-2.7108,-2.6985,-2.6679,-2.6692,-2.6624,-2.6533,-2.6624,-2.6624,-2.6521,-2.6487,-2.6487,-2.6487,-2.6487,-2.6487,-2.6487,-2.6487,-2.6487,-2.6487,-2.6487,-2.6487,-2.6487,-2.6487,-2.6487,-2.6487,-2.6487,-2.6487,-2.6487,-2.623,-2.5719,-2.5004,-2.4349,-2.364,-2.2873,-2.2754,-2.2847,-2.3204,-2.3107,-2.3168,-2.3481,-2.3517,-2.3517,-2.3541,-2.371,-2.3938,-2.4194,-2.4242,-2.4025,-2.3613,-2.3785,-2.3568,-2.2943,-2.2991,-2.3324,-2.3469,-2.3517,-2.3396,-2.3304,-2.3421,-2.3517,-2.3541,-2.3685,-2.3842,-2.3806,-2.3806,-2.3914,-2.4133,-2.4049,-2.3773,-2.3264,-2.2939,-2.2734,-2.2666,-2.2414,-2.2258,-2.2197,-2.2135,-2.2054,-2.1874,-2.1781,-2.1632,-2.1368,-2.1253,-2.1221,-2.1201,-2.1201,-2.1201,-2.1201,-2.1201,-2.1201,-2.1201,-2.1201,-2.1201,-2.1201,-2.1201,-2.1201,-2.1201,-2.1201,-2.1201,-2.1201,-2.1201,-2.1201,-3.073,-2.9835,-2.9327,-2.8888,-2.8536,-2.8471,-2.8308,-2.8092,-2.7914,-2.7669,-2.7436,-2.7255,-2.7053,-2.6884,-2.685,-2.6714,-2.6521,-2.6487,-2.6487,-2.6487,-2.6487,-2.6487,-2.6487,-2.6487,-2.6487,-2.6487,-2.6487,-2.6487,-2.6487,-2.6487,-2.6487,-2.6487,-2.6487,-2.6487,-2.6487,-2.6487,-2.6487,-2.6487,-2.6487,-2.6487,-2.6474,-2.6311,-2.5891,-2.5203,-2.4632,-2.3961,-2.3239,-2.3232,-2.3324,-2.3505,-2.3484,-2.364,-2.4011,-2.4181,-2.4181,-2.4049,-2.4215,-2.4398,-2.4711,-2.4736,-2.4554,-2.4085,-2.4278,-2.4133,-2.3408,-2.3601,-2.3842,-2.3986,-2.4013,-2.4049,-2.4263,-2.4312,-2.4194,-2.4085,-2.4191,-2.43,-2.43,-2.4312,-2.4362,-2.4422,-2.429,-2.4073,-2.3842,-2.3481,-2.33,-2.3276,-2.2895,-2.2678,-2.2517,-2.2438,-2.2279,-2.2004,-2.1906,-2.1726,-2.1494,-2.1336,-2.1253,-2.1233,-2.1201,-2.1201,-2.1201,-2.1201,-2.1201,-2.1201,-2.1201,-2.1201,-2.1201,-2.1201,-2.1201,-2.1201,-2.1201,-2.1201,-2.1201,-2.1201,-2.1201,-2.9211,-2.8731,-2.8379,-2.8341,-2.8268,-2.8164,-2.8079,-2.7947,-2.7536,-2.7302,-2.7167,-2.676,-2.6615,-2.6571,-2.6593,-2.6546,-2.6575,-2.6524,-2.6487,-2.6487,-2.6487,-2.6487,-2.6487,-2.6487,-2.6487,-2.6487,-2.6487,-2.6487,-2.6487,-2.6487,-2.6487,-2.6487,-2.6487,-2.6487,-2.6487,-2.6487,-2.6487,-2.6487,-2.6487,-2.6487,-2.6424,-2.6,-2.5448,-2.4892,-2.4945,-2.4499,-2.3337,-2.3606,-2.3649,-2.334,-2.3977,-2.4482,-2.4566,-2.4927,-2.5035,-2.4675,-2.4975,-2.524,-2.5264,-2.5252,-2.4999,-2.4566,-2.4484,-2.4374,-2.3938,-2.3902,-2.4097,-2.4434,-2.4494,-2.465,-2.5071,-2.5095,-2.4939,-2.4628,-2.4867,-2.5119,-2.5192,-2.5252,-2.5095,-2.4638,-2.429,-2.389,-2.3842,-2.383,-2.3773,-2.3761,-2.3613,-2.3348,-2.2951,-2.2818,-2.2591,-2.2154,-2.202,-2.204,-2.1714,-2.14,-2.1316,-2.1265,-2.1233,-2.1201,-2.1201,-2.1201,-2.1201,-2.1201,-2.1201,-2.1201,-2.1201,-2.1201,-2.1201,-2.1201,-2.1201,-2.1201,-2.1201,-2.1201,-2.1201,-2.9294,-2.8958,-2.839,-2.8085,-2.7941,-2.7756,-2.757,-2.7343,-2.7142,-2.6952,-2.6726,-2.6555,-2.67,-2.6901,-2.6688,-2.67,-2.7014,-2.6688,-2.6487,-2.6487,-2.6487,-2.6499,-2.6499,-2.6499,-2.6487,-2.6487,-2.6487,-2.6487,-2.6487,-2.6487,-2.6487,-2.6487,-2.6487,-2.6487,-2.6487,-2.6487,-2.6487,-2.6487,-2.6487,-2.6487,-2.6487,-2.6199,-2.5875,-2.5707,-2.5544,-2.5044,-2.439,-2.4307,-2.4386,-2.4506,-2.453,-2.4652,-2.5011,-2.5216,-2.5228,-2.5095,-2.5204,-2.5312,-2.5312,-2.5288,-2.5071,-2.4676,-2.4843,-2.4783,-2.4422,-2.4602,-2.4855,-2.4987,-2.4759,-2.4735,-2.5119,-2.4963,-2.4844,-2.5035,-2.5204,-2.5312,-2.5312,-2.53,-2.524,-2.5072,-2.4915,-2.4831,-2.4735,-2.4566,-2.4278,-2.4181,-2.3749,-2.3252,-2.3059,-2.2782,-2.2426,-2.2116,-2.2265,-2.2337,-2.1985,-2.185,-2.187,-2.1525,-2.1302,-2.1213,-2.1201,-2.1201,-2.1201,-2.1201,-2.1201,-2.1201,-2.1201,-2.1201,-2.1201,-2.1201,-2.1201,-2.1201,-2.1201,-2.1201,-2.1201,-2.9011,-2.8752,-2.8305,-2.7934,-2.7689,-2.7523,-2.739,-2.7175,-2.704,-2.6871,-2.6692,-2.6555,-2.6675,-2.6889,-2.6637,-2.6688,-2.6952,-2.6637,-2.6487,-2.6487,-2.6487,-2.66,-2.6813,-2.7027,-2.6977,-2.6826,-2.6801,-2.6688,-2.6499,-2.6487,-2.6487,-2.6487,-2.6487,-2.6487,-2.6487,-2.6487,-2.6487,-2.6487,-2.6487,-2.6487,-2.6465,-2.6374,-2.6136,-2.5849,-2.5718,-2.5361,-2.4762,-2.4733,-2.4832,-2.4987,-2.482,-2.4987,-2.5252,-2.5312,-2.5312,-2.5276,-2.5143,-2.5083,-2.5252,-2.5095,-2.4999,-2.4856,-2.5119,-2.518,-2.4892,-2.5132,-2.53,-2.5252,-2.5023,-2.4939,-2.518,-2.5012,-2.4999,-2.5264,-2.53,-2.5312,-2.53,-2.5131,-2.5143,-2.5143,-2.5083,-2.5096,-2.5155,-2.5083,-2.4676,-2.4482,-2.3977,-2.3424,-2.3288,-2.2879,-2.2594,-2.2486,-2.2671,-2.2579,-2.2246,-2.2259,-2.243,-2.1943,-2.1383,-2.1302,-2.1201,-2.1201,-2.1201,-2.1201,-2.1201,-2.1201,-2.1201,-2.1201,-2.1201,-2.1201,-2.1201,-2.1201,-2.1201,-2.1201,-2.1213,-2.8406,-2.8112,-2.8079,-2.7835,-2.749,-2.7436,-2.7369,-2.7356,-2.7074,-2.6939,-2.685,-2.6624,-2.6549,-2.6575,-2.6562,-2.6562,-2.6549,-2.6524,-2.6487,-2.6512,-2.6587,-2.6826,-2.7241,-2.767,-2.7632,-2.7268,-2.7293,-2.709,-2.6663,-2.6713,-2.6562,-2.6625,-2.6625,-2.6512,-2.6512,-2.6487,-2.6487,-2.6487,-2.6487,-2.6487,-2.6487,-2.6465,-2.6093,-2.5351,-2.563,-2.5469,-2.4886,-2.5011,-2.5035,-2.4688,-2.5047,-2.5252,-2.5312,-2.5312,-2.5312,-2.5288,-2.4808,-2.4904,-2.5107,-2.4975,-2.4855,-2.5192,-2.5264,-2.5312,-2.5264,-2.5264,-2.5312,-2.53,-2.5192,-2.5192,-2.5252,-2.5168,-2.5192,-2.5288,-2.5312,-2.5312,-2.5264,-2.4915,-2.4951,-2.5143,-2.4915,-2.4747,-2.5252,-2.5264,-2.5011,-2.4626,-2.4362,-2.3989,-2.3577,-2.3095,-2.2963,-2.2903,-2.2855,-2.2655,-2.2285,-2.2482,-2.2595,-2.2037,-2.1612,-2.1559,-2.129,-2.1224,-2.1201,-2.1201,-2.1201,-2.1201,-2.1201,-2.1201,-2.1201,-2.1201,-2.1201,-2.1201,-2.1201,-2.1201,-2.1213,-2.8476,-2.8203,-2.7822,-2.7536,-2.7302,-2.6964,-2.676,-2.676,-2.6692,-2.6658,-2.6589,-2.6533,-2.67,-2.7027,-2.665,-2.67,-2.6876,-2.665,-2.6487,-2.6562,-2.6939,-2.714,-2.7369,-2.7833,-2.7846,-2.7444,-2.7682,-2.7607,-2.7178,-2.7369,-2.7394,-2.7115,-2.7065,-2.6876,-2.6562,-2.6499,-2.6487,-2.6487,-2.6487,-2.6487,-2.6452,-2.6361,-2.6173,-2.597,-2.5767,-2.5568,-2.5294,-2.5298,-2.5276,-2.5143,-2.518,-2.5312,-2.5312,-2.5312,-2.5312,-2.5276,-2.5168,-2.5131,-2.5228,-2.5143,-2.5155,-2.5276,-2.5312,-2.5312,-2.5312,-2.5312,-2.5312,-2.524,-2.5011,-2.4915,-2.5155,-2.4987,-2.4963,-2.524,-2.5312,-2.5312,-2.5288,-2.5204,-2.5168,-2.5264,-2.5155,-2.518,-2.524,-2.5288,-2.5095,-2.4614,-2.4242,-2.3881,-2.3505,-2.2987,-2.2698,-2.263,-2.2582,-2.2488,-2.244,-2.265,-2.2565,-2.2071,-2.1841,-2.192,-2.1582,-2.129,-2.1224,-2.1201,-2.1201,-2.1201,-2.1201,-2.1201,-2.1201,-2.1201,-2.1201,-2.1201,-2.1201,-2.1201,-2.1201,-2.8457,-2.8183,-2.7868,-2.7536,-2.7154,-2.685,-2.6611,-2.6521,-2.6487,-2.6487,-2.6487,-2.6487,-2.6675,-2.6901,-2.6637,-2.665,-2.6901,-2.6637,-2.6499,-2.6637,-2.7304,-2.7733,-2.8059,-2.8536,-2.8524,-2.8009,-2.8059,-2.7908,-2.7657,-2.7758,-2.767,-2.7595,-2.7394,-2.714,-2.6876,-2.6587,-2.6487,-2.6487,-2.6487,-2.6487,-2.6487,-2.6396,-2.6223,-2.6084,-2.584,-2.5676,-2.55,-2.5347,-2.5312,-2.5312,-2.5312,-2.5312,-2.5312,-2.5312,-2.5312,-2.53,-2.5107,-2.5047,-2.5228,-2.5131,-2.5083,-2.5252,-2.5312,-2.5312,-2.5312,-2.5312,-2.5312,-2.5276,-2.4999,-2.5047,-2.5168,-2.5023,-2.5023,-2.5252,-2.5312,-2.5312,-2.5312,-2.53,-2.5312,-2.5312,-2.5312,-2.5312,-2.5312,-2.5312,-2.5047,-2.465,-2.4338,-2.3917,-2.3493,-2.2915,-2.2541,-2.2582,-2.269,-2.2723,-2.2955,-2.3233,-2.3394,-2.2826,-2.2471,-2.2503,-2.2094,-2.1666,-2.1535,-2.1512,-2.1339,-2.127,-2.1408,-2.1397,-2.1201,-2.1201,-2.1201,-2.1201,-2.1201,-2.1201,-2.1201,-2.8406,-2.8145,-2.8046,-2.7623,-2.7108,-2.6973,-2.6714,-2.6533,-2.6487,-2.6487,-2.6487,-2.6487,-2.6524,-2.6487,-2.6524,-2.6499,-2.6524,-2.6512,-2.6663,-2.7002,-2.7632,-2.8298,-2.895,-2.9352,-2.9252,-2.8787,-2.8423,-2.831,-2.8197,-2.7821,-2.7846,-2.7996,-2.767,-2.7392,-2.714,-2.6763,-2.6512,-2.6487,-2.6487,-2.6487,-2.6487,-2.6452,-2.6327,-2.6119,-2.5945,-2.5676,-2.543,-2.5312,-2.5312,-2.5312,-2.5312,-2.5312,-2.5312,-2.5312,-2.5312,-2.5264,-2.4952,-2.4927,-2.5168,-2.4963,-2.4808,-2.5228,-2.5312,-2.5312,-2.5312,-2.5312,-2.5312,-2.5312,-2.5312,-2.5276,-2.5288,-2.524,-2.5276,-2.5312,-2.5312,-2.5312,-2.5312,-2.5312,-2.5312,-2.5312,-2.5312,-2.5312,-2.5312,-2.5276,-2.5119,-2.4604,-2.4374,-2.4109,-2.3758,-2.3348,-2.3023,-2.2891,-2.3011,-2.3144,-2.3472,-2.3869,-2.3984,-2.3883,-2.3453,-2.3258,-2.2821,-2.2467,-2.2186,-2.1994,-2.1935,-2.1903,-2.1939,-2.1778,-2.1466,-2.1293,-2.1351,-2.1282,-2.1201,-2.1201,-2.1201,-2.8308,-2.8425,-2.7577,-2.7289,-2.7289,-2.685,-2.6568,-2.6487,-2.6487,-2.6487,-2.6487,-2.6487,-2.6487,-2.6487,-2.6487,-2.6487,-2.6487,-2.6537,-2.6914,-2.777,-2.7921,-2.8712,-2.939,-2.9716,-2.9465,-2.9114,-2.9302,-2.9164,-2.8863,-2.8913,-2.9038,-2.8674,-2.821,-2.7708,-2.7329,-2.6864,-2.6487,-2.6487,-2.6487,-2.6487,-2.6487,-2.6487,-2.6418,-2.6292,-2.6015,-2.5688,-2.5382,-2.5312,-2.5312,-2.5312,-2.5312,-2.5312,-2.5312,-2.5312,-2.5312,-2.5288,-2.5192,-2.518,-2.5252,-2.5204,-2.5168,-2.5264,-2.5312,-2.5312,-2.5312,-2.5312,-2.5312,-2.5312,-2.5312,-2.5372,-2.5372,-2.5336,-2.5324,-2.5336,-2.5312,-2.5312,-2.5312,-2.5312,-2.5312,-2.5312,-2.5312,-2.5312,-2.5312,-2.5312,-2.5071,-2.4616,-2.4446,-2.4278,-2.4001,-2.3734,-2.3493,-2.3264,-2.3216,-2.3348,-2.364,-2.4061,-2.4364,-2.4523,-2.43,-2.4066,-2.3658,-2.3288,-2.3036,-2.2796,-2.2579,-2.2557,-2.2523,-2.2145,-2.1801,-2.164,-2.1491,-2.1388,-2.1339,-2.1293,-2.1213,-2.8153,-2.8033,-2.7456,-2.7242,-2.7188,-2.6884,-2.6645,-2.6521,-2.6487,-2.6487,-2.6487,-2.6487,-2.6487,-2.6487,-2.6487,-2.6487,-2.6487,-2.6512,-2.6939,-2.762,-2.7946,-2.8436,-2.9013,-2.9528,-2.9603,-2.9365,-2.9302,-2.9289,-2.9377,-2.9365,-2.9289,-2.9302,-2.8762,-2.8222,-2.767,-2.714,-2.6776,-2.6524,-2.6487,-2.6487,-2.6487,-2.6487,-2.6349,-2.6176,-2.5863,-2.5488,-2.53,-2.5312,-2.5312,-2.5312,-2.5312,-2.5312,-2.5312,-2.5312,-2.5312,-2.5312,-2.5312,-2.5312,-2.5312,-2.5312,-2.53,-2.5312,-2.5312,-2.5312,-2.5312,-2.5312,-2.5312,-2.5372,-2.5516,-2.5685,-2.5685,-2.5673,-2.56,-2.5348,-2.5324,-2.5312,-2.5312,-2.5312,-2.5312,-2.5312,-2.5312,-2.5312,-2.5312,-2.5312,-2.5264,-2.4951,-2.4904,-2.4759,-2.4398,-2.4109,-2.3866,-2.3649,-2.3505,-2.3532,-2.3821,-2.4194,-2.4638,-2.4832,-2.4858,-2.4764,-2.4621,-2.4269,-2.3943,-2.3617,-2.3235,-2.3097,-2.2982,-2.2546,-2.2271,-2.2168,-2.1996,-2.1697,-2.1456,-2.1385,-2.1282,-2.7944,-2.7503,-2.7403,-2.7188,-2.7007,-2.6952,-2.676,-2.6521,-2.6487,-2.6487,-2.6487,-2.6487,-2.6487,-2.6487,-2.6487,-2.6487,-2.6487,-2.6524,-2.6864,-2.7369,-2.772,-2.8122,-2.8561,-2.9176,-2.9641,-2.9704,-2.9415,-2.9415,-2.9528,-2.9377,-2.944,-2.9603,-2.9151,-2.8561,-2.8059,-2.7544,-2.7014,-2.6562,-2.6487,-2.6487,-2.6487,-2.6487,-2.6327,-2.5945,-2.5688,-2.543,-2.5347,-2.5312,-2.5312,-2.5312,-2.5312,-2.5312,-2.5312,-2.5312,-2.5312,-2.5312,-2.5312,-2.5312,-2.5312,-2.5312,-2.5312,-2.5312,-2.5312,-2.5312,-2.5312,-2.5312,-2.5312,-2.5432,-2.56,-2.5889,-2.6057,-2.6021,-2.5829,-2.5588,-2.5444,-2.5384,-2.5312,-2.5312,-2.5312,-2.5312,-2.5312,-2.5312,-2.5312,-2.5312,-2.5312,-2.5312,-2.53,-2.5156,-2.4784,-2.4554,-2.4314,-2.4073,-2.3929,-2.3881,-2.4133,-2.4494,-2.4915,-2.5023,-2.5192,-2.5192,-2.5192,-2.4931,-2.4529,-2.4189,-2.392,-2.3769,-2.3537,-2.3202,-2.2948,-2.281,-2.234,-2.187,-2.1617,-2.1489,-2.1362,-2.7739,-2.7456,-2.6897,-2.6782,-2.6952,-2.6726,-2.6555,-2.6487,-2.6487,-2.6487,-2.6487,-2.6487,-2.6487,-2.6487,-2.6487,-2.6487,-2.6487,-2.6524,-2.6763,-2.7203,-2.7457,-2.7795,-2.8524,-2.8938,-2.9352,-2.9679,-2.9628,-2.9679,-2.9741,-2.9704,-2.9641,-2.9641,-2.9252,-2.8662,-2.8172,-2.757,-2.7115,-2.6663,-2.6524,-2.6487,-2.6487,-2.6418,-2.6292,-2.591,-2.5723,-2.5535,-2.5347,-2.5312,-2.5312,-2.5312,-2.5312,-2.5312,-2.5312,-2.5312,-2.5312,-2.5312,-2.5312,-2.5312,-2.5312,-2.5312,-2.5312,-2.5312,-2.5312,-2.5312,-2.5312,-2.5324,-2.5348,-2.5408,-2.548,-2.5648,-2.6045,-2.6154,-2.6093,-2.5961,-2.5937,-2.5805,-2.548,-2.5372,-2.5348,-2.5324,-2.5324,-2.5312,-2.5312,-2.5312,-2.5312,-2.5312,-2.5312,-2.53,-2.5119,-2.4975,-2.4867,-2.4626,-2.4376,-2.4398,-2.4458,-2.4855,-2.5216,-2.518,-2.5252,-2.524,-2.5252,-2.53,-2.5027,-2.4695,-2.4519,-2.4425,-2.4178,-2.384,-2.3583,-2.3386,-2.2707,-2.1951,-2.1835,-2.173,-2.1365,-2.7485,-2.6943,-2.6624,-2.6602,-2.6679,-2.6555,-2.6487,-2.6487,-2.6487,-2.6487,-2.6487,-2.6487,-2.6487,-2.6487,-2.6487,-2.6487,-2.6499,-2.6487,-2.665,-2.6914,-2.7216,-2.753,-2.8235,-2.8624,-2.9026,-2.9365,-2.9603,-2.9779,-2.9779,-2.9779,-2.9779,-2.9741,-2.9478,-2.9089,-2.8524,-2.8009,-2.7406,-2.6977,-2.665,-2.6487,-2.6452,-2.6314,-2.6072,-2.5933,-2.5723,-2.55,-2.5347,-2.5312,-2.5312,-2.5312,-2.5312,-2.5312,-2.5312,-2.5312,-2.5312,-2.5312,-2.5312,-2.5312,-2.5312,-2.5312,-2.5312,-2.5312,-2.5312,-2.5312,-2.5312,-2.5336,-2.542,-2.5624,-2.5721,-2.5805,-2.6069,-2.6334,-2.637,-2.6214,-2.6334,-2.625,-2.5889,-2.5733,-2.5576,-2.5408,-2.536,-2.5348,-2.5312,-2.5312,-2.5312,-2.5312,-2.5312,-2.5312,-2.5312,-2.5252,-2.5155,-2.5047,-2.4772,-2.4784,-2.4819,-2.5035,-2.5312,-2.5312,-2.5312,-2.5312,-2.5312,-2.5312,-2.5276,-2.5122,-2.5028,-2.4921,-2.4731,-2.4366,-2.4165,-2.386,-2.3052,-2.2408,-2.2178,-2.1904,-2.1548,-2.729,-2.6487,-2.6487,-2.6549,-2.6637,-2.6537,-2.6575,-2.6625,-2.6549,-2.6487,-2.6487,-2.6487,-2.6487,-2.6524,-2.6612,-2.6675,-2.6675,-2.6763,-2.6876,-2.6839,-2.714,-2.7366,-2.772,-2.8222,-2.89,-2.9352,-2.9578,-2.9779,-2.9779,-2.9779,-2.9779,-2.9767,-2.9779,-2.9415,-2.8687,-2.8197,-2.7758,-2.7155,-2.6706,-2.6443,-2.6361,-2.6188,-2.5933,-2.5898,-2.5571,-2.5418,-2.5312,-2.5312,-2.5312,-2.5312,-2.5312,-2.5312,-2.5312,-2.5312,-2.5312,-2.5312,-2.5312,-2.5312,-2.5312,-2.5312,-2.5312,-2.5312,-2.5312,-2.5312,-2.5312,-2.5348,-2.5456,-2.5841,-2.5889,-2.5937,-2.6105,-2.6549,-2.6609,-2.6562,-2.6693,-2.6825,-2.6334,-2.6021,-2.5841,-2.5673,-2.5492,-2.5396,-2.5384,-2.5312,-2.5312,-2.5312,-2.5312,-2.5312,-2.5312,-2.5312,-2.5264,-2.5276,-2.5216,-2.5204,-2.5192,-2.5155,-2.5312,-2.5312,-2.5312,-2.5312,-2.5312,-2.5312,-2.5276,-2.5276,-2.5218,-2.5076,-2.4969,-2.4873,-2.4613,-2.4131,-2.3387,-2.2867,-2.2578,-2.2131,-2.1686,-2.729,-2.6487,-2.6487,-2.6776,-2.7065,-2.6675,-2.6776,-2.7115,-2.67,-2.6499,-2.6562,-2.6499,-2.6499,-2.6612,-2.6977,-2.7153,-2.7304,-2.7457,-2.7381,-2.709,-2.7256,-2.7595,-2.7934,-2.8072,-2.8913,-2.9428,-2.9716,-2.9779,-2.9779,-2.9779,-2.9779,-2.9779,-2.9704,-2.9315,-2.8499,-2.8222,-2.757,-2.6779,-2.6389,-2.6236,-2.6236,-2.6292,-2.6141,-2.5933,-2.5793,-2.5606,-2.5347,-2.5312,-2.5312,-2.5312,-2.5312,-2.5312,-2.5312,-2.5312,-2.5312,-2.5312,-2.5312,-2.5312,-2.5312,-2.5312,-2.5312,-2.5312,-2.5312,-2.5312,-2.5312,-2.5324,-2.536,-2.536,-2.5432,-2.5685,-2.6093,-2.6537,-2.6741,-2.6934,-2.7078,-2.6849,-2.6418,-2.643,-2.6238,-2.5805,-2.5576,-2.5504,-2.5468,-2.5384,-2.5312,-2.5312,-2.5324,-2.5372,-2.5336,-2.536,-2.5312,-2.5312,-2.5312,-2.5312,-2.5312,-2.5312,-2.5312,-2.5312,-2.5312,-2.5312,-2.5312,-2.5312,-2.5312,-2.5276,-2.5253,-2.5206,-2.5111,-2.5004,-2.4909,-2.4472,-2.3758,-2.3316,-2.2956,-2.245,-2.1937,-2.7636,-2.6794,-2.6589,-2.6625,-2.6801,-2.6587,-2.6813,-2.7115,-2.6751,-2.6675,-2.6851,-2.66,-2.665,-2.6889,-2.6964,-2.7027,-2.7316,-2.7595,-2.7344,-2.7241,-2.7457,-2.7871,-2.8122,-2.8448,-2.9076,-2.9553,-2.9779,-2.9779,-2.9779,-2.9779,-2.9779,-2.9779,-2.9741,-2.944,-2.8473,-2.8247,-2.7695,-2.7045,-2.6492,-2.6131,-2.605,-2.6002,-2.5921,-2.5758,-2.5641,-2.55,-2.5359,-2.5312,-2.5312,-2.5312,-2.5312,-2.5312,-2.5312,-2.5312,-2.5312,-2.5312,-2.5312,-2.5312,-2.5312,-2.5312,-2.5312,-2.5312,-2.5312,-2.5312,-2.5312,-2.5324,-2.5468,-2.5757,-2.5468,-2.5588,-2.5973,-2.6298,-2.6406,-2.6683,-2.732,-2.6923,-2.6598,-2.6717,-2.6597,-2.6142,-2.5709,-2.5673,-2.5697,-2.5793,-2.5757,-2.5733,-2.5865,-2.5985,-2.5733,-2.548,-2.5408,-2.5312,-2.5312,-2.5312,-2.5312,-2.5312,-2.5312,-2.5312,-2.5312,-2.5312,-2.5312,-2.5312,-2.5312,-2.5312,-2.5276,-2.5241,-2.5206,-2.5111,-2.5016,-2.4637,-2.4202,-2.3803,-2.3406,-2.3013,-2.2519,-2.7746,-2.6973,-2.6645,-2.6575,-2.6675,-2.6562,-2.6813,-2.718,-2.6738,-2.6725,-2.6914,-2.6688,-2.6725,-2.7014,-2.6889,-2.7102,-2.7519,-2.762,-2.7444,-2.7507,-2.7808,-2.8223,-2.8436,-2.8762,-2.9202,-2.9779,-2.9779,-2.9779,-2.9779,-2.9779,-2.9779,-2.9767,-2.9553,-2.9202,-2.8699,-2.8085,-2.7471,-2.6804,-2.6397,-2.6109,-2.5875,-2.5758,-2.5676,-2.5606,-2.5465,-2.5347,-2.5312,-2.5312,-2.5312,-2.5312,-2.5312,-2.5312,-2.5312,-2.5312,-2.5312,-2.5312,-2.5312,-2.5312,-2.5312,-2.5312,-2.5312,-2.5312,-2.5348,-2.5372,-2.554,-2.5456,-2.5396,-2.5745,-2.5528,-2.5612,-2.5985,-2.6226,-2.6574,-2.6887,-2.7296,-2.6899,-2.661,-2.6731,-2.6525,-2.5949,-2.5673,-2.5877,-2.5961,-2.6202,-2.625,-2.619,-2.6309,-2.6561,-2.6225,-2.5781,-2.5528,-2.542,-2.5312,-2.5312,-2.5312,-2.5312,-2.5312,-2.5312,-2.5312,-2.5312,-2.5312,-2.5312,-2.5312,-2.5312,-2.5312,-2.5276,-2.5241,-2.5182,-2.5135,-2.4849,-2.4553,-2.4224,-2.3837,-2.3465,-2.3119,-2.7361,-2.6973,-2.6624,-2.6776,-2.7165,-2.6713,-2.6813,-2.7231,-2.6738,-2.6562,-2.67,-2.6524,-2.6537,-2.6725,-2.7128,-2.7444,-2.8047,-2.8537,-2.8461,-2.8561,-2.8813,-2.8837,-2.8838,-2.895,-2.9264,-2.9704,-2.9779,-2.9779,-2.9779,-2.9779,-2.9779,-2.9741,-2.9465,-2.88,-2.8298,-2.7921,-2.7228,-2.6662,-2.6381,-2.614,-2.5903,-2.5796,-2.5796,-2.5654,-2.5595,-2.55,-2.5324,-2.5324,-2.5312,-2.5312,-2.5312,-2.5312,-2.5312,-2.5312,-2.5312,-2.5312,-2.5312,-2.5312,-2.5312,-2.5312,-2.5336,-2.5324,-2.5396,-2.5564,-2.5841,-2.554,-2.5432,-2.5492,-2.542,-2.56,-2.6057,-2.6465,-2.6707,-2.6839,-2.6959,-2.6875,-2.6647,-2.6647,-2.6369,-2.5745,-2.5612,-2.5829,-2.6238,-2.649,-2.6695,-2.6659,-2.6729,-2.697,-2.6586,-2.6129,-2.5769,-2.5552,-2.5372,-2.5312,-2.5312,-2.5312,-2.5312,-2.5312,-2.5312,-2.5312,-2.5312,-2.5312,-2.5312,-2.5312,-2.5312,-2.5312,-2.5312,-2.5253,-2.5182,-2.5121,-2.4883,-2.4599,-2.4353,-2.406,-2.37,-2.7524,-2.7126,-2.6706,-2.6612,-2.6801,-2.6587,-2.6813,-2.7178,-2.6751,-2.6713,-2.6964,-2.6688,-2.6876,-2.7268,-2.7256,-2.7582,-2.8122,-2.8637,-2.8662,-2.88,-2.8988,-2.9176,-2.9189,-2.9289,-2.9591,-2.9754,-2.9779,-2.9779,-2.9779,-2.9779,-2.9779,-2.9679,-2.9503,-2.9164,-2.8637,-2.801,-2.7405,-2.7051,-2.6868,-2.665,-2.6045,-2.5985,-2.5985,-2.5913,-2.5514,-2.5612,-2.5685,-2.5444,-2.536,-2.5324,-2.5324,-2.5312,-2.5312,-2.5312,-2.5312,-2.5312,-2.5312,-2.5312,-2.5312,-2.5348,-2.5444,-2.5769,-2.5817,-2.5865,-2.6069,-2.5853,-2.5805,-2.5733,-2.5468,-2.5564,-2.6057,-2.6274,-2.637,-2.6466,-2.661,-2.6743,-2.6669,-2.6657,-2.6513,-2.6021,-2.5805,-2.5805,-2.6286,-2.6741,-2.6946,-2.7102,-2.7246,-2.727,-2.6923,-2.6466,-2.6093,-2.5685,-2.548,-2.5324,-2.5312,-2.5312,-2.5312,-2.5312,-2.5312,-2.5312,-2.5312,-2.5312,-2.5312,-2.5312,-2.5312,-2.5312,-2.5312,-2.5312,-2.524,-2.5192,-2.5109,-2.4967,-2.479,-2.4578,-2.4225,-2.7516,-2.7241,-2.6725,-2.6487,-2.6487,-2.6487,-2.6713,-2.6952,-2.6663,-2.6688,-2.704,-2.6688,-2.6876,-2.7369,-2.7457,-2.7595,-2.8134,-2.8624,-2.8762,-2.9013,-2.9352,-2.949,-2.9453,-2.9515,-2.9729,-2.9779,-2.9779,-2.9779,-2.9779,-2.9779,-2.9779,-2.9779,-2.9741,-2.9415,-2.8863,-2.83,-2.7865,-2.7594,-2.736,-2.7114,-2.6407,-2.6346,-2.6383,-2.6274,-2.5877,-2.5901,-2.5997,-2.5781,-2.5468,-2.5468,-2.5444,-2.5324,-2.5312,-2.5312,-2.5312,-2.5312,-2.5312,-2.5312,-2.5312,-2.536,-2.5552,-2.5937,-2.5817,-2.5889,-2.6033,-2.5973,-2.5697,-2.5733,-2.5504,-2.5588,-2.6178,-2.6429,-2.6827,-2.7115,-2.714,-2.7162,-2.6837,-2.6705,-2.6585,-2.6345,-2.619,-2.5985,-2.6477,-2.7018,-2.7378,-2.7633,-2.7861,-2.7738,-2.7392,-2.6911,-2.637,-2.5961,-2.5588,-2.5444,-2.5312,-2.5312,-2.5312,-2.5312,-2.5312,-2.5312,-2.5312,-2.5312,-2.5312,-2.5312,-2.5312,-2.5312,-2.5312,-2.5312,-2.5312,-2.5312,-2.5228,-2.5145,-2.5039,-2.4826,-2.4637,-2.7138,-2.7228,-2.6751,-2.6524,-2.6537,-2.6487,-2.6524,-2.6587,-2.6524,-2.6562,-2.6663,-2.6549,-2.6612,-2.6889,-2.7293,-2.7733,-2.8273,-2.8787,-2.9151,-2.9541,-2.9628,-2.9741,-2.9741,-2.9767,-2.9779,-2.9779,-2.9779,-2.9779,-2.9779,-2.9779,-2.9779,-2.9779,-2.9754,-2.9553,-2.8913,-2.8201,-2.7755,-2.7545,-2.7482,-2.7245,-2.6998,-2.6899,-2.6873,-2.6791,-2.6382,-2.637,-2.6454,-2.5925,-2.5673,-2.5829,-2.56,-2.548,-2.5444,-2.5432,-2.5396,-2.5312,-2.5312,-2.5312,-2.5312,-2.5324,-2.5673,-2.6129,-2.6105,-2.6069,-2.6045,-2.5853,-2.5673,-2.5961,-2.5624,-2.5949,-2.6417,-2.6922,-2.7368,-2.7476,-2.7414,-2.7366,-2.7018,-2.6777,-2.6669,-2.6609,-2.6381,-2.6298,-2.6777,-2.7294,-2.7789,-2.8114,-2.839,-2.8246,-2.7837,-2.7368,-2.6803,-2.631,-2.5889,-2.5528,-2.5396,-2.5336,-2.5312,-2.5312,-2.5312,-2.5312,-2.5312,-2.5312,-2.5312,-2.5312,-2.5312,-2.5312,-2.5312,-2.5312,-2.5312,-2.5312,-2.5312,-2.5217,-2.5135,-2.5052,-2.4874,-2.6918,-2.7268,-2.7115,-2.704,-2.6989,-2.6637,-2.6487,-2.6487,-2.6512,-2.6688,-2.6901,-2.6688,-2.6977,-2.7454,-2.7708,-2.8084,-2.8649,-2.9239,-2.9716,-2.9741,-2.9779,-2.9779,-2.9779,-2.9779,-2.9779,-2.9779,-2.9779,-2.9779,-2.9779,-2.9779,-2.9779,-2.9779,-2.9779,-2.9691,-2.9528,-2.9163,-2.9036,-2.8782,-2.8565,-2.8212,-2.768,-2.7529,-2.7414,-2.7428,-2.6873,-2.6717,-2.6898,-2.6202,-2.5913,-2.6105,-2.5853,-2.5769,-2.5745,-2.5745,-2.5636,-2.542,-2.5312,-2.5312,-2.5432,-2.56,-2.6093,-2.6418,-2.6659,-2.6695,-2.7079,-2.6994,-2.6729,-2.6345,-2.6166,-2.6465,-2.6813,-2.7246,-2.7522,-2.7258,-2.721,-2.7258,-2.709,-2.6934,-2.6813,-2.6801,-2.6657,-2.6657,-2.6982,-2.7282,-2.7702,-2.8138,-2.8366,-2.8486,-2.821,-2.775,-2.7246,-2.6717,-2.6274,-2.5781,-2.5492,-2.5492,-2.5384,-2.5312,-2.5312,-2.5312,-2.5312,-2.5312,-2.5312,-2.5312,-2.5312,-2.5312,-2.5312,-2.5312,-2.5312,-2.5312,-2.5312,-2.5312,-2.5241,-2.5218,-2.5158,-2.6813,-2.7278,-2.7102,-2.7153,-2.7241,-2.6927,-2.67,-2.6524,-2.6499,-2.6713,-2.6889,-2.665,-2.6952,-2.7632,-2.8059,-2.8398,-2.8913,-2.9515,-2.9779,-2.9779,-2.9779,-2.9779,-2.9779,-2.9779,-2.9779,-2.9779,-2.9779,-2.9779,-2.9779,-2.9779,-2.9779,-2.9779,-2.9779,-2.9767,-2.969,-2.9614,-2.9473,-2.919,-2.8934,-2.8638,-2.8315,-2.8098,-2.7993,-2.7789,-2.7402,-2.7054,-2.703,-2.6647,-2.6021,-2.6178,-2.6214,-2.6045,-2.5961,-2.5949,-2.5793,-2.548,-2.5312,-2.5396,-2.5648,-2.5841,-2.6226,-2.6466,-2.697,-2.714,-2.7091,-2.6671,-2.6647,-2.6526,-2.6719,-2.6971,-2.7186,-2.7594,-2.763,-2.7378,-2.7534,-2.7618,-2.7606,-2.7474,-2.7438,-2.7378,-2.715,-2.715,-2.7138,-2.7306,-2.7594,-2.7981,-2.8306,-2.8402,-2.8474,-2.8077,-2.7642,-2.7162,-2.6669,-2.6262,-2.5901,-2.5721,-2.5576,-2.5348,-2.5348,-2.5384,-2.5312,-2.5312,-2.5312,-2.5312,-2.5312,-2.5312,-2.5312,-2.5312,-2.5312,-2.5312,-2.5312,-2.5312,-2.5312,-2.5276,-2.5253,-2.6826,-2.7203,-2.6763,-2.6889,-2.7218,-2.7203,-2.6927,-2.6499,-2.6487,-2.6512,-2.6499,-2.6524,-2.6927,-2.7394,-2.7896,-2.8461,-2.8976,-2.9578,-2.9716,-2.9779,-2.9779,-2.9779,-2.9779,-2.9779,-2.9779,-2.9779,-2.9779,-2.9779,-2.9779,-2.9779,-2.9779,-2.9779,-2.9779,-2.9779,-2.974,-2.965,-2.9509,-2.9341,-2.9094,-2.8861,-2.8606,-2.8509,-2.8366,-2.8114,-2.7618,-2.7534,-2.7332,-2.6671,-2.6334,-2.6346,-2.6454,-2.5961,-2.5781,-2.5913,-2.5733,-2.5564,-2.548,-2.5661,-2.5925,-2.6105,-2.6238,-2.6442,-2.6442,-2.6262,-2.6286,-2.6406,-2.6574,-2.6671,-2.6827,-2.7236,-2.7609,-2.7774,-2.7954,-2.805,-2.8294,-2.8354,-2.8354,-2.833,-2.8318,-2.8138,-2.7777,-2.7645,-2.7498,-2.7582,-2.7534,-2.7834,-2.8174,-2.8342,-2.8366,-2.8234,-2.7822,-2.7582,-2.7114,-2.6743,-2.643,-2.6178,-2.5877,-2.5697,-2.554,-2.5528,-2.5432,-2.5396,-2.542,-2.542,-2.5348,-2.5312,-2.5312,-2.5312,-2.5312,-2.5312,-2.5312,-2.5312,-2.5312,-2.5312,-2.5276,-2.6813,-2.7329,-2.7532,-2.7542,-2.7231,-2.6901,-2.6625,-2.6512,-2.6487,-2.6487,-2.6487,-2.6487,-2.6989,-2.7846,-2.8059,-2.8674,-2.9289,-2.9691,-2.9754,-2.9779,-2.9779,-2.9779,-2.9779,-2.9779,-2.9779,-2.9779,-2.9779,-2.9779,-2.9779,-2.9779,-2.9779,-2.9779,-2.9779,-2.9779,-2.974,-2.9714,-2.956,-2.9392,-2.9118,-2.8961,-2.8816,-2.8618,-2.855,-2.827,-2.7798,-2.7762,-2.7486,-2.6695,-2.643,-2.6669,-2.6741,-2.6501,-2.6525,-2.6885,-2.6982,-2.649,-2.619,-2.5973,-2.6142,-2.6478,-2.6621,-2.6669,-2.6885,-2.6959,-2.6887,-2.6729,-2.6887,-2.7007,-2.7224,-2.7693,-2.7969,-2.815,-2.8258,-2.8366,-2.851,-2.851,-2.851,-2.851,-2.851,-2.8414,-2.8065,-2.7909,-2.7813,-2.7534,-2.7522,-2.7813,-2.8053,-2.8246,-2.8342,-2.8234,-2.8114,-2.7834,-2.763,-2.7284,-2.6922,-2.6645,-2.6346,-2.6057,-2.5937,-2.5865,-2.5853,-2.5805,-2.5661,-2.554,-2.5468,-2.5384,-2.5312,-2.5312,-2.5312,-2.5312,-2.5312,-2.5312,-2.5312,-2.5312,-2.5312,-2.6826,-2.7268,-2.7394,-2.7291,-2.6977,-2.6637,-2.6487,-2.6487,-2.6487,-2.6487,-2.6487,-2.6487,-2.7102,-2.7921,-2.7946,-2.8436,-2.9691,-2.9478,-2.9503,-2.9779,-2.9779,-2.9779,-2.9779,-2.9779,-2.9779,-2.9779,-2.9779,-2.9779,-2.9779,-2.9779,-2.9779,-2.9779,-2.9779,-2.9779,-2.9779,-2.974,-2.965,-2.947,-2.9263,-2.9118,-2.8882,-2.8697,-2.8618,-2.8402,-2.7954,-2.7822,-2.7822,-2.6947,-2.6791,-2.7102,-2.7198,-2.7078,-2.6994,-2.7174,-2.7474,-2.697,-2.6693,-2.6659,-2.6803,-2.6777,-2.6885,-2.697,-2.7222,-2.7102,-2.7066,-2.6958,-2.7234,-2.7486,-2.7885,-2.821,-2.8366,-2.851,-2.8498,-2.851,-2.851,-2.851,-2.851,-2.851,-2.8498,-2.8474,-2.8318,-2.815,-2.7933,-2.7606,-2.7582,-2.8029,-2.8246,-2.833,-2.8426,-2.8414,-2.8342,-2.8198,-2.8065,-2.7861,-2.7498,-2.7162,-2.6861,-2.6635,-2.649,-2.6406,-2.6358,-2.625,-2.6129,-2.5877,-2.56,-2.548,-2.5312,-2.5312,-2.5312,-2.5312,-2.5312,-2.5312,-2.5312,-2.5312,-2.5312,-2.6788,-2.7203,-2.67,-2.6612,-2.6562,-2.6537,-2.6487,-2.6487,-2.6487,-2.6487,-2.6487,-2.6487,-2.7065,-2.7745,-2.7733,-2.836,-2.9214,-2.9314,-2.949,-2.9779,-2.9779,-2.9779,-2.9779,-2.9779,-2.9779,-2.9779,-2.9779,-2.9779,-2.9779,-2.9779,-2.9779,-2.9779,-2.9779,-2.9779,-2.9779,-2.9779,-2.9702,-2.9573,-2.9431,-2.9314,-2.904,-2.8843,-2.8661,-2.8454,-2.8126,-2.7858,-2.8053,-2.7678,-2.7138,-2.7486,-2.7606,-2.739,-2.733,-2.7234,-2.745,-2.7426,-2.721,-2.7198,-2.7284,-2.7222,-2.7078,-2.7042,-2.7006,-2.7246,-2.744,-2.7258,-2.7474,-2.769,-2.8005,-2.827,-2.8438,-2.8498,-2.851,-2.851,-2.851,-2.851,-2.851,-2.851,-2.8498,-2.8486,-2.845,-2.8306,-2.8282,-2.8002,-2.7954,-2.8354,-2.8438,-2.8462,-2.8474,-2.851,-2.8474,-2.8414,-2.8318,-2.8186,-2.8017,-2.7666,-2.7438,-2.721,-2.6982,-2.6777,-2.6621,-2.6585,-2.661,-2.6081,-2.5504,-2.542,-2.5312,-2.5312,-2.5324,-2.5312,-2.5312,-2.5312,-2.5312,-2.5324,-2.5312,-2.6575,-2.6675,-2.6549,-2.6725,-2.704,-2.6675,-2.6487,-2.6487,-2.6487,-2.6487,-2.6487,-2.6537,-2.6889,-2.7507,-2.7758,-2.8386,-2.9013,-2.9377,-2.9628,-2.9754,-2.9779,-2.9779,-2.9779,-2.9779,-2.9779,-2.9779,-2.9779,-2.9779,-2.9779,-2.9779,-2.9779,-2.9779,-2.9779,-2.9779,-2.9779,-2.9779,-2.974,-2.9663,-2.9611,-2.9353,-2.8961,-2.8736,-2.8526,-2.8354,-2.8114,-2.8065,-2.8041,-2.7609,-2.739,-2.757,-2.7693,-2.7849,-2.8114,-2.8102,-2.8174,-2.8198,-2.7774,-2.769,-2.7693,-2.7657,-2.7534,-2.7642,-2.7762,-2.8029,-2.8041,-2.7729,-2.7606,-2.7837,-2.8029,-2.8294,-2.8462,-2.8486,-2.851,-2.851,-2.851,-2.851,-2.851,-2.851,-2.851,-2.851,-2.851,-2.851,-2.851,-2.851,-2.851,-2.851,-2.8498,-2.8498,-2.8498,-2.851,-2.851,-2.8474,-2.8486,-2.8378,-2.827,-2.8162,-2.7909,-2.7534,-2.7246,-2.7078,-2.6934,-2.6813,-2.6707,-2.5913,-2.536,-2.548,-2.5516,-2.5336,-2.5336,-2.5324,-2.5312,-2.5312,-2.5348,-2.5372,-2.5336,-2.6637,-2.6851,-2.6851,-2.6889,-2.6876,-2.6612,-2.6487,-2.6487,-2.6487,-2.6487,-2.6487,-2.6549,-2.6914,-2.7457,-2.7745,-2.8461,-2.9089,-2.9327,-2.9541,-2.9691,-2.9779,-2.9779,-2.9779,-2.9779,-2.9779,-2.9779,-2.9779,-2.9779,-2.9779,-2.9779,-2.9779,-2.9779,-2.9779,-2.9779,-2.9779,-2.9779,-2.9779,-2.9779,-2.9702,-2.9378,-2.8961,-2.8816,-2.8697,-2.8552,-2.8357,-2.8282,-2.821,-2.7897,-2.7945,-2.7966,-2.8062,-2.8186,-2.8378,-2.8414,-2.8462,-2.8414,-2.8234,-2.8038,-2.8026,-2.8053,-2.8041,-2.8174,-2.8246,-2.8354,-2.8378,-2.8102,-2.8077,-2.8246,-2.827,-2.8486,-2.8486,-2.851,-2.851,-2.851,-2.851,-2.851,-2.851,-2.851,-2.851,-2.851,-2.851,-2.851,-2.851,-2.851,-2.851,-2.851,-2.851,-2.851,-2.851,-2.851,-2.851,-2.851,-2.851,-2.851,-2.8426,-2.8378,-2.8318,-2.7957,-2.7522,-2.739,-2.7246,-2.703,-2.6731,-2.631,-2.6009,-2.5937,-2.5901,-2.5661,-2.5408,-2.5348,-2.5336,-2.5312,-2.5384,-2.5504,-2.5624,-2.6751,-2.719,-2.719,-2.6939,-2.6537,-2.6487,-2.6487,-2.6487,-2.6487,-2.6549,-2.6637,-2.6637,-2.7228,-2.7532,-2.7833,-2.8662,-2.9227,-2.9352,-2.9503,-2.9679,-2.9779,-2.9779,-2.9779,-2.9779,-2.9779,-2.9779,-2.9779,-2.9779,-2.9779,-2.9779,-2.9779,-2.9779,-2.9779,-2.9779,-2.9779,-2.9792,-2.9792,-2.9689,-2.956,-2.9365,-2.9209,-2.9052,-2.8895,-2.8724,-2.8605,-2.851,-2.851,-2.851,-2.8486,-2.8474,-2.8386,-2.845,-2.8474,-2.851,-2.851,-2.8474,-2.8462,-2.8402,-2.8438,-2.8402,-2.8426,-2.8486,-2.851,-2.851,-2.851,-2.8498,-2.8474,-2.8474,-2.8498,-2.851,-2.851,-2.851,-2.851,-2.851,-2.851,-2.851,-2.851,-2.851,-2.851,-2.851,-2.851,-2.851,-2.851,-2.851,-2.851,-2.851,-2.851,-2.851,-2.851,-2.851,-2.851,-2.851,-2.851,-2.851,-2.851,-2.8498,-2.8462,-2.8258,-2.7846,-2.7714,-2.751,-2.7138,-2.7018,-2.7212,-2.6959,-2.6586,-2.6298,-2.6069,-2.5805,-2.5504,-2.5348,-2.5372,-2.5636,-2.5781,-2.6033,-2.6549,-2.665,-2.665,-2.6575,-2.6499,-2.6487,-2.6487,-2.6487,-2.6512,-2.6725,-2.7065,-2.7153,-2.7318,-2.7507,-2.8386,-2.9026,-2.9227,-2.9377,-2.9591,-2.9767,-2.9779,-2.9779,-2.9779,-2.9779,-2.9779,-2.9779,-2.9779,-2.9779,-2.9779,-2.9779,-2.9779,-2.9779,-2.9779,-2.9792,-2.9792,-2.9753,-2.9663,-2.956,-2.9534,-2.9468,-2.9131,-2.8934,-2.8736,-2.8618,-2.851,-2.851,-2.851,-2.851,-2.851,-2.851,-2.851,-2.851,-2.851,-2.851,-2.851,-2.851,-2.851,-2.851,-2.851,-2.851,-2.851,-2.851,-2.851,-2.851,-2.851,-2.851,-2.8498,-2.8498,-2.851,-2.851,-2.851,-2.851,-2.851,-2.851,-2.851,-2.851,-2.851,-2.851,-2.851,-2.851,-2.851,-2.851,-2.851,-2.851,-2.851,-2.851,-2.851,-2.851,-2.851,-2.851,-2.851,-2.851,-2.851,-2.851,-2.851,-2.851,-2.8462,-2.8318,-2.8098,-2.7834,-2.7498,-2.709,-2.7066,-2.7462,-2.7318,-2.6934,-2.6681,-2.6477,-2.6154,-2.5841,-2.548,-2.5432,-2.5745,-2.6093,-2.637]},{"header":{"parameterUnit":"m.s-1","parameterCategory":1,"la1":31.0,"la2":29.5877,"lo1":-88.7671,"lo2":-86.6584,"dy":0.0162,"dx":0.0185,"nx":115,"ny":88,"refTime":"2023-05-04T12:00:00:Z","depth":0,"parameterNumber":3,"parameterNumberName":"V-component_of_WINDS"},"data":[0.0,0.0,0.0,0.0,0.0,0.0,0.0,0.0,0.0,0.0,0.0,0.0,0.0,0.0,0.0,0.0,0.0,0.0,0.0,0.0,0.0,0.0,0.0,0.0,0.0,0.0,0.0,0.0,0.0,0.0,0.0,0.0,0.0,0.0,0.0,0.0,0.0,0.0,0.0,0.0,0.0,0.0,0.0,0.0,0.0,0.0,0.0,0.0,0.0,0.0,0.0,0.0,0.0,0.0,0.0,0.0,0.0,0.0,0.0,0.0,0.0,0.0,0.0,0.0,0.0,0.0,0.0,0.0,0.0,0.0,0.0,0.0,0.0,0.0,0.0,0.0,0.0,0.0,0.0,0.0,0.0,0.0,0.0,0.0,0.0,0.0,0.0,0.0,0.0,0.0,0.0,0.0,0.0,0.0,0.0,0.0,0.0,0.0,0.0,0.0,0.0,0.0,0.0,0.0,0.0,0.0,0.0,0.0,0.0,0.0,0.0,0.0,0.0,0.0,0.0,0.0,0.0,0.0,0.0,0.0,0.0,0.0,0.0,0.0,0.0,0.0,0.0,0.0,0.0,0.0,0.0,0.0,0.0,0.0,0.0,0.0,0.0,0.0,0.0,0.0,0.0,0.0,0.0,0.0,0.0,0.0,0.0,0.0,0.0,0.0,0.0,0.0,0.0,0.0,0.0,0.0,0.0,0.0,0.0,0.0,0.0,0.0,0.0,0.0,0.0,0.0,0.0,0.0,0.0,0.0,0.0,0.0,0.0,0.0,0.0,0.0,0.0,0.0,0.0,0.0,0.0,0.0,0.0,0.0,0.0,0.0,0.0,0.0,0.0,0.0,0.0,0.0,0.0,0.0,0.0,0.0,0.0,0.0,0.0,0.0,0.0,0.0,0.0,0.0,0.0,0.0,0.0,0.0,0.0,0.0,0.0,0.0,0.0,0.0,0.0,0.0,0.0,0.0,0.0,0.0,0.0,0.0,0.0,0.0,0.0,0.0,0.0,0.0,0.0,0.0,0.0,0.0,0.0,0.0,0.0,0.0,0.0,0.0,0.0,0.0,0.0,0.0,0.0,0.0,0.0,0.0,0.0,0.0,0.0,0.0,0.0,0.0,0.0,0.0,0.0,0.0,0.0,0.0,0.0,0.0,0.0,0.0,0.0,0.0,0.0,0.0,0.0,0.0,0.0,0.0,0.0,0.0,0.0,0.0,0.0,0.0,0.0,0.0,0.0,0.0,0.0,0.0,0.0,0.0,0.0,0.0,0.0,0.0,0.0,0.0,0.0,0.0,0.0,0.0,0.0,0.0,0.0,0.0,0.0,0.0,0.0,0.0,0.0,0.0,0.0,0.0,0.0,0.0,0.0,0.0,0.0,0.0,0.0,0.0,0.0,0.0,0.0,0.0,0.0,0.0,0.0,0.0,0.0,0.0,0.0,0.0,0.0,0.0,0.0,0.0,0.0,0.0,0.0,0.0,0.0,0.0,0.0,0.0,0.0,0.0,0.0,0.0,0.0,0.0,0.0,0.0,0.0,0.0,0.0,0.0,0.0,0.0,0.0,0.0,0.0,0.0,0.0,0.0,0.0,0.0,0.0,0.0,0.0,0.0,0.0,0.0,0.0,0.0,0.0,0.0,0.0,0.0,0.0,0.0,0.0,0.0,0.0,0.0,0.0,0.0,0.0,0.0,0.0,0.0,0.0,0.0,0.0,0.0,0.0,0.0,0.0,0.0,0.0,0.0,0.0,0.0,0.0,0.0,0.0,0.0,0.0,0.0,0.0,0.0,0.0,0.0,0.0,0.0,0.0,0.0,0.0,0.0,0.0,0.0,0.0,0.0,0.0,0.0,0.0,0.0,0.0,0.0,0.0,0.0,0.0,0.0,0.0,0.0,0.0,0.0,0.0,0.0,0.0,0.0,0.0,0.0,0.0,0.0,0.0,0.0,0.0,0.0,0.0,0.0,0.0,0.0,0.0,0.0,0.0,0.0,0.0,0.0,0.0,0.0,0.0,0.0,0.0,0.0,0.0,0.0,0.0,0.0,0.0,0.0,0.0,0.0,0.0,0.0,0.0,0.0,0.0,0.0,0.0,0.0,0.0,0.0,0.0,0.0,0.0,0.0,0.0,0.0,0.0,0.0,0.0,0.0,0.0,0.0,0.0,0.0,0.0,0.0,0.0,0.0,0.0,0.0,0.0,0.0,0.0,0.0,0.0,0.0,0.0,0.0,0.0,0.0,0.0,0.0,0.0,0.0,0.0,0.0,0.0,0.0,0.0,0.0,0.0,0.0,0.0,0.0,0.0,0.0,0.0,0.0,0.0,0.0,0.0,0.0,0.0,0.0,0.0,0.0,0.0,0.0,0.0,0.0,0.0,0.0,0.0,0.0,0.0,0.0,0.0,0.0,0.0,0.0,0.0,0.0,0.0,0.0,0.0,0.0,0.0,0.0,0.0,0.0,0.0,0.0,0.0,0.0,0.0,0.0,0.0,0.0,0.0,0.0,0.0,0.0,0.0,0.0,0.0,0.0,0.0,0.0,0.0,0.0,0.0,0.0,0.0,0.0,0.0,0.0,0.0,0.0,0.0,0.0,0.0,0.0,0.0,0.0,0.0,0.0,0.0,0.0,0.0,0.0,0.0,0.0,0.0,0.0,0.0,0.0,0.0,0.0,0.0,0.0,0.0,0.0,0.0,0.0,0.0,0.0,0.0,0.0,0.0,0.0,0.0,0.0,0.0,0.0,0.0,0.0,0.0,0.0,0.0,0.0,0.0,0.0,0.0,0.0,0.0,0.0,0.0,0.0,0.0,0.0,0.0,0.0,0.0,0.0,0.0,0.0,0.0,0.0,0.0,0.0,0.0,0.0,0.0,0.0,0.0,0.0,0.0,0.0,0.0,0.0,0.0,0.0,0.0,0.0,0.0,0.0,0.0,0.0,0.0,0.0,0.0,0.0,0.0,0.0,0.0,0.0,0.0,0.0,0.0,0.0,0.0,0.0,0.0,0.0,0.0,0.0,0.0,0.0,0.0,0.0,0.0,0.0,0.0,0.0,0.0,0.0,0.0,0.0,0.0,0.0,0.0,0.0,0.0,0.0,0.0,0.0,0.0,0.0,0.0,0.0,0.0,0.0,0.0,0.0,0.0,0.0,0.0,0.0,0.0,0.0,0.0,0.0,0.0,0.0,0.0,0.0,0.0,0.0,0.0,0.0,0.0,0.0,0.0,0.0,0.0,0.0,0.0,0.0,0.0,0.0,0.0,0.0,0.0,0.0,0.0,0.0,0.0,0.0,0.0,0.0,0.0,0.0,0.0,0.0,0.0,0.0,0.0,0.0,0.0,0.0,0.0,0.0,0.0,0.0,0.0,0.0,0.0,0.0,0.0,0.0,0.0,0.0,0.0,0.0,0.0,0.0,0.0,0.0,0.0,0.0,0.0,0.0,0.0,0.0,0.0,0.0,0.0,0.0,0.0,0.0,0.0,0.0,0.0,0.0,0.0,0.0,0.0,0.0,0.0,0.0,0.0,0.0,0.0,0.0,0.0,0.0,0.0,0.0,0.0,0.0,0.0,0.0,0.0,0.0,0.0,0.0,0.0,0.0,0.0,0.0,0.0,0.0,0.0,0.0,0.0,0.0,0.0,0.0,0.0,0.0,0.0,0.0,0.0,0.0,0.0,0.0,0.0,0.0,0.0,0.0,0.0,0.0,0.0,0.0,0.0,0.0,0.0,0.0,0.0,0.0,0.0,0.0,0.0,0.0,0.0,0.0,0.0,0.0,0.0,0.0,0.0,0.0,0.0,0.0,0.0,0.0,0.0,0.0,0.0,0.0,0.0,0.0,0.0,0.0,0.0,0.0,0.0,0.0,0.0,0.0,0.0,0.0,0.0,0.0,0.0,0.0,0.0,0.0,0.0,0.0,0.0,0.0,0.0,0.0,0.0,0.0,0.0,0.0,0.0,0.0,0.0,0.0,0.0,0.0,0.0,0.0,0.0,0.0,0.0,0.0,0.0,0.0,0.0,0.0,0.0,0.0,0.0,0.0,0.0,0.0,0.0,0.0,0.0,0.0,0.0,0.0,0.0,0.0,0.0,0.0,0.0,0.0,0.0,0.0,0.0,0.0,0.0,0.0,0.0,0.0,0.0,0.0,0.0,0.0,0.0,0.0,0.0,0.0,0.0,0.0,0.0,0.0,0.0,0.0,0.0,0.0,0.0,0.0,0.0,0.0,0.0,0.0,0.0,0.0,0.0,0.0,0.0,0.0,0.0,0.0,1.2895,0.0,0.0,0.0,0.0,0.0,0.0,0.0,0.0,0.0,0.0,0.0,0.0,0.0,0.0,0.0,0.0,0.0,0.0,0.0,0.0,0.0,0.0,0.0,0.0,0.0,0.0,0.0,0.0,0.0,0.0,0.0,0.0,0.0,0.0,0.0,0.0,0.0,0.0,0.0,0.0,0.0,0.0,0.0,0.0,0.0,0.0,0.0,0.0,0.0,0.0,0.0,0.0,0.0,0.0,0.0,0.0,0.0,0.0,0.0,0.0,0.0,0.0,0.0,0.0,0.0,0.0,0.0,0.0,0.0,0.0,0.0,0.0,0.0,0.0,0.0,0.0,0.0,0.0,0.0,0.0,0.0,0.0,0.0,0.0,0.0,0.0,0.0,0.0,0.0,0.0,0.0,0.0,0.0,0.0,0.0,0.0,0.0,0.0,0.0,0.0,0.0,0.0,0.0,0.0,0.0,0.0,0.0,0.0,0.0,0.0,1.2915,1.2905,1.2646,1.2637,1.2895,0.0,0.0,0.0,0.0,0.0,0.0,0.0,0.0,0.0,0.0,0.0,0.0,0.0,0.0,0.0,0.0,0.0,0.0,0.0,0.0,0.0,0.0,0.0,0.0,0.0,0.0,0.0,0.0,0.0,0.0,0.0,0.0,0.0,0.0,0.0,0.0,0.0,0.0,0.0,0.0,0.0,0.0,0.0,0.0,0.0,0.0,0.0,0.0,0.0,0.0,0.0,0.0,0.0,0.0,0.0,0.0,0.0,0.0,0.0,0.0,0.0,0.0,0.0,0.0,0.0,0.0,0.0,0.0,0.0,0.0,0.0,0.0,0.0,0.0,0.0,0.0,0.0,0.0,0.0,0.0,0.0,0.0,0.0,0.0,0.0,0.0,0.0,0.0,0.0,0.0,0.0,0.0,0.0,0.0,0.0,0.0,0.0,0.0,0.0,0.0,0.0,0.0,0.0,0.0,0.0,0.0,0.0,0.0,0.0,0.0,0.0,0.0,1.2695,1.2676,1.2998,0.0,0.0,0.0,0.0,0.0,0.0,0.0,0.0,0.0,0.0,0.0,0.0,0.0,0.0,0.0,0.0,0.0,0.0,0.0,0.0,0.0,0.0,0.0,0.0,0.0,0.0,0.0,0.0,0.0,0.0,0.0,0.0,0.0,0.0,0.0,0.0,0.0,0.0,0.0,0.0,0.0,0.0,0.0,0.0,0.0,0.0,0.0,0.0,0.0,0.0,0.0,0.0,0.0,0.0,0.0,0.0,0.0,0.0,0.0,0.0,0.0,0.0,0.0,0.0,0.0,0.0,0.0,0.0,0.0,0.0,0.0,0.0,0.0,0.0,0.0,0.0,0.0,0.0,0.0,0.0,0.0,0.0,0.0,0.0,0.0,0.0,0.0,0.0,0.0,0.0,0.0,0.0,0.0,0.0,0.0,0.0,0.0,0.0,0.0,0.0,0.0,0.0,0.0,0.0,0.0,0.0,0.0,0.0,0.0,0.0,1.3081,1.3437,1.3408,0.0,1.3402,0.0,0.0,0.0,0.0,0.0,0.0,0.0,0.0,0.0,0.0,0.0,0.0,0.0,0.0,0.0,0.0,0.0,0.0,0.0,0.0,0.0,0.0,0.0,0.0,0.0,0.0,0.0,0.0,0.0,0.0,0.0,0.0,0.0,0.0,0.0,0.0,0.0,0.0,0.0,0.0,0.0,0.0,0.0,0.0,0.0,0.0,0.0,0.0,0.0,0.0,0.0,0.0,0.0,0.0,0.0,0.0,0.0,0.0,0.0,0.0,0.0,0.0,0.0,0.0,0.0,0.0,0.0,0.0,0.0,0.0,0.0,0.0,0.0,0.0,0.0,0.0,0.0,0.0,0.0,0.0,0.0,0.0,0.0,0.0,0.0,0.0,0.0,0.0,0.0,0.0,0.0,0.0,0.0,0.0,0.0,0.0,0.0,0.0,0.0,0.0,0.0,0.0,0.0,0.0,0.0,0.0,0.0,0.0,0.0,0.0,1.3076,1.3471,1.348,1.3389,0.0,0.0,0.0,0.0,0.0,0.0,0.0,0.0,0.0,0.0,0.0,0.0,0.0,0.0,0.0,0.0,0.0,0.0,0.0,0.0,0.0,0.0,0.0,0.0,0.0,0.0,0.0,0.0,0.0,0.0,0.0,0.0,0.0,0.0,0.0,0.0,0.0,0.0,0.0,0.0,0.0,0.0,0.0,0.0,0.0,0.0,0.0,0.0,0.0,0.0,0.0,0.0,0.0,0.0,0.0,0.0,0.0,0.0,0.0,0.0,0.0,0.0,0.0,0.0,0.0,0.0,0.0,0.0,0.0,0.0,0.0,0.0,0.0,0.0,0.0,0.0,0.0,0.0,0.0,0.0,0.0,0.0,0.0,0.0,0.0,0.0,0.0,0.0,0.0,0.0,0.0,0.0,0.0,0.0,0.0,0.0,0.0,0.0,0.0,0.0,0.0,0.0,0.0,0.0,0.0,0.0,0.0,0.0,0.0,0.0,1.2964,1.3052,1.3311,1.3213,1.3066,1.2915,0.0,0.0,0.0,0.0,0.0,0.0,0.0,0.0,0.0,0.0,0.0,0.0,0.0,0.0,0.0,0.0,0.0,0.0,0.0,0.0,0.0,0.0,0.0,0.0,0.0,0.0,0.0,0.0,0.0,0.0,0.0,0.0,0.0,0.0,0.0,0.0,0.0,0.0,0.0,0.0,0.0,0.0,0.0,0.0,0.0,0.0,0.0,0.0,0.0,0.0,0.0,0.0,0.0,0.0,0.0,0.0,0.0,0.0,0.0,0.0,0.0,0.0,0.0,0.0,0.0,0.0,0.0,0.0,0.0,0.0,0.0,0.0,0.0,0.0,0.0,0.0,0.0,0.0,0.0,0.0,0.0,0.0,0.0,0.0,0.0,0.0,0.0,0.0,0.0,0.0,0.0,0.0,0.0,0.0,0.0,0.0,0.0,0.0,0.0,0.0,0.0,0.0,0.0,0.0,0.0,0.0,0.0,0.0,1.3428,1.3076,1.2881,1.2925,1.2476,1.2471,0.0,0.0,0.0,0.0,0.0,0.0,0.0,0.0,0.0,0.0,0.0,0.0,0.0,0.0,0.0,0.0,0.0,0.0,0.0,0.0,0.0,0.0,0.0,0.0,0.0,0.0,0.0,0.0,0.0,0.0,0.0,0.0,0.0,0.0,0.0,0.0,0.0,0.0,0.0,0.0,0.0,0.0,0.0,0.0,0.0,0.0,0.0,0.0,0.0,0.0,0.0,0.0,0.0,0.0,0.0,0.0,0.0,0.0,0.0,0.0,0.0,0.0,0.0,0.0,0.0,0.0,0.0,0.0,0.0,0.0,0.0,0.0,0.0,0.0,0.0,0.0,0.0,0.0,0.0,0.0,0.0,0.0,0.0,0.0,0.0,0.0,0.0,0.0,0.0,0.0,0.0,0.0,0.0,0.0,0.0,0.0,0.0,0.0,0.0,0.0,0.0,0.0,0.0,0.0,0.0,0.0,0.0,0.0,0.0,1.2666,1.2539,1.2437,1.2437,1.2291,1.2291,0.0,0.0,0.0,0.0,0.0,0.0,0.0,0.0,0.0,0.0,0.0,0.0,0.0,0.0,0.0,0.0,0.0,0.0,0.0,0.0,0.0,0.0,0.0,0.0,0.0,0.0,0.0,0.0,0.0,0.0,0.0,0.0,0.0,0.0,0.0,0.0,0.0,0.0,0.0,0.0,0.0,0.0,0.0,0.0,0.0,0.0,0.0,0.0,0.0,0.0,0.0,0.0,0.0,0.0,0.0,0.0,0.0,0.0,0.0,0.0,0.0,0.0,0.0,0.0,0.0,0.0,0.0,0.0,0.0,0.0,0.0,0.0,0.0,0.0,0.0,0.0,0.0,0.0,0.0,0.0,0.0,0.0,0.0,0.0,0.0,0.0,0.0,0.0,0.0,0.0,0.0,0.0,0.0,0.0,0.0,0.0,0.0,0.0,0.0,0.0,0.0,0.0,0.0,0.0,0.0,0.0,0.0,0.0,0.0,1.2213,0.0,1.2227,1.1999,1.1999,1.2012,0.0,0.0,0.0,0.0,0.0,0.0,0.0,0.0,0.0,0.0,0.0,0.0,0.0,0.0,0.0,0.0,0.0,0.0,0.0,0.0,0.0,0.0,0.0,0.0,0.0,0.0,0.0,0.0,0.0,0.0,0.0,0.0,0.0,0.0,0.0,0.0,0.0,0.0,0.0,0.0,0.0,0.0,0.0,0.0,0.0,0.0,0.0,0.0,0.0,0.0,0.0,0.0,0.0,0.0,0.0,0.0,0.0,0.0,0.0,0.0,0.0,0.0,0.0,0.0,0.0,0.0,0.0,0.0,0.0,0.0,0.0,0.0,0.0,0.0,0.0,0.0,0.0,0.0,0.0,0.0,0.0,0.0,0.0,0.0,0.0,0.0,0.0,0.0,0.0,0.0,0.0,0.0,0.0,0.0,0.0,0.0,0.0,0.0,0.0,0.0,0.0,0.0,0.0,0.0,0.0,0.0,0.0,0.0,1.2496,1.222,1.244,1.2295,1.1645,1.1667,1.1648,0.0,0.0,0.0,0.0,0.0,0.0,0.0,0.0,0.0,0.0,0.0,0.0,0.0,0.0,0.0,0.0,0.0,0.0,0.0,0.0,0.0,0.0,0.0,0.0,0.0,0.0,0.0,0.0,0.0,0.0,0.0,0.0,0.0,0.0,0.0,0.0,0.0,0.0,0.0,0.0,0.0,0.0,0.0,0.0,0.0,0.0,0.0,0.0,0.0,0.0,0.0,0.0,0.0,0.0,0.0,0.0,0.0,0.0,0.0,0.0,0.0,0.0,0.0,0.0,0.0,0.0,0.0,0.0,0.0,0.0,0.0,0.0,0.0,0.0,0.0,0.0,0.0,0.0,0.0,0.0,0.0,0.0,0.0,0.0,0.0,0.0,0.0,0.0,0.0,0.0,0.0,0.0,0.0,0.0,0.0,0.0,0.0,0.0,0.0,0.0,0.0,0.0,0.0,0.0,0.0,0.0,0.0,0.0,0.0,1.17,1.2231,1.259,1.2729,1.2222,1.229,0.0,0.0,0.0,0.0,0.0,0.0,0.0,0.0,0.0,0.0,0.0,0.0,0.0,0.0,0.0,0.0,0.0,0.0,0.0,0.0,0.0,0.0,0.0,0.0,0.0,0.0,0.0,0.0,0.0,0.0,0.0,0.0,0.0,0.0,0.0,0.0,0.0,0.0,0.0,0.0,0.0,0.0,0.0,0.0,0.0,0.0,0.0,0.0,0.0,0.0,0.0,0.0,0.0,0.0,0.0,0.0,0.0,0.0,0.0,0.0,0.0,0.0,0.0,0.0,0.0,0.0,0.0,0.0,0.0,0.0,0.0,0.0,0.0,0.0,0.0,0.0,0.0,0.0,0.0,0.0,0.0,0.0,0.0,0.0,0.0,0.0,0.0,0.0,0.0,0.0,0.0,0.0,0.0,0.0,0.0,0.0,0.0,0.0,0.0,0.0,0.0,0.0,0.0,0.0,0.0,0.0,0.0,0.0,0.0,1.3054,1.314,1.328,1.3454,1.2693,1.2648,1.3388,0.0,0.0,0.0,0.0,0.0,0.0,0.0,0.0,0.0,0.0,0.0,0.0,0.0,0.0,0.0,0.0,0.0,0.0,0.0,0.0,0.0,0.0,0.0,0.0,0.0,0.0,0.0,0.0,0.0,0.0,0.0,0.0,0.0,0.0,0.0,0.0,0.0,0.0,0.0,0.0,0.0,0.0,0.0,0.0,0.0,0.0,0.0,0.0,0.0,0.0,0.0,0.0,0.0,0.0,0.0,0.0,0.0,0.0,0.0,0.0,0.0,0.0,0.0,0.0,0.0,0.0,0.0,0.0,0.0,0.0,0.0,0.0,0.0,0.0,0.0,0.0,0.0,0.0,0.0,0.0,0.0,0.0,0.0,0.0,0.0,0.0,0.0,0.0,0.0,0.0,0.0,0.0,0.0,0.0,0.0,0.0,0.0,0.0,0.0,0.0,0.0,0.0,0.0,0.0,0.0,0.0,0.0,0.0,1.5803,1.5029,1.4419,1.3909,1.3196,1.2873,0.0,0.0,0.0,0.0,0.0,0.0,0.0,0.0,0.0,0.0,0.0,0.0,0.0,0.0,0.0,0.0,0.0,0.0,0.0,0.0,0.0,0.0,0.0,0.0,0.0,0.0,0.0,0.0,0.0,0.0,0.0,0.0,0.0,0.0,0.0,0.0,0.0,0.0,0.0,0.0,0.0,0.0,0.0,0.0,0.0,0.0,0.0,0.0,0.0,0.0,0.0,0.0,0.0,0.0,0.0,0.0,0.0,0.0,0.0,0.0,0.0,0.0,0.0,0.0,0.0,0.0,0.0,0.0,0.0,0.0,0.0,0.0,0.0,0.0,0.0,0.0,0.0,0.0,0.0,0.0,0.0,0.0,0.0,0.0,0.0,0.0,0.0,0.0,0.0,0.0,0.0,0.0,0.0,0.0,0.0,0.0,0.0,0.0,0.0,0.0,0.0,0.0,0.0,0.0,0.0,0.0,0.0,0.0,0.0,1.7072,1.7338,1.7063,1.614,1.5137,1.4688,0.0,0.0,0.0,0.0,0.0,0.0,0.0,0.0,0.0,0.0,0.0,0.0,0.0,0.0,0.0,0.0,0.0,0.0,0.0,0.0,0.0,0.0,0.0,0.0,0.0,0.0,0.0,0.0,0.0,0.0,0.0,0.0,0.0,0.0,0.0,0.0,0.0,0.0,0.0,0.0,0.0,0.0,0.0,0.0,0.0,0.0,0.0,0.0,0.0,0.0,0.0,0.0,0.0,0.0,0.0,0.0,0.0,0.0,0.0,0.0,0.0,0.0,0.0,0.0,0.0,0.0,0.0,0.0,0.0,0.0,0.0,0.0,0.0,0.0,0.0,0.0,0.0,0.0,0.0,0.0,0.0,0.0,0.0,0.0,0.0,0.0,0.0,0.0,0.0,0.0,0.0,0.0,0.0,0.0,0.0,0.0,0.0,0.0,0.0,0.0,0.0,0.0,0.0,0.0,0.0,0.0,0.0,0.0,1.7684,1.851,1.9136,1.9026,1.819,1.7013,1.6009,0.0,0.0,0.0,0.0,0.0,0.0,0.0,0.0,0.0,0.0,0.0,0.0,0.0,0.0,0.0,0.0,0.0,0.0,0.0,0.0,0.0,0.0,0.0,0.0,0.0,0.0,0.0,0.0,0.0,0.0,0.0,0.0,0.0,0.0,0.0,0.0,0.0,0.0,0.0,0.0,0.0,0.0,0.0,0.0,0.0,0.0,0.0,0.0,0.0,0.0,0.0,0.0,0.0,0.0,0.0,0.0,0.0,0.0,0.0,0.0,0.0,0.0,0.0,0.0,0.0,0.0,0.0,0.0,0.0,0.0,0.0,0.0,0.0,0.0,0.0,0.0,0.0,0.0,0.0,0.0,0.0,0.0,0.0,0.0,0.0,0.0,0.0,0.0,0.0,0.0,0.0,0.0,0.0,0.0,0.0,0.0,0.0,0.0,0.0,0.0,0.0,0.0,0.0,0.0,0.0,0.0,0.0,0.0,1.8794,1.9868,2.0466,2.0466,1.9793,1.8553,1.6945,0.0,0.0,0.0,0.0,0.0,0.0,0.0,0.0,0.0,0.0,0.0,0.0,0.0,0.0,0.0,0.0,0.0,0.0,0.0,0.0,0.0,0.0,0.0,0.0,0.0,0.0,0.0,0.0,0.0,0.0,0.0,0.0,0.0,0.0,0.0,0.0,0.0,0.0,0.0,0.0,0.0,0.0,0.0,0.0,0.0,0.0,0.0,0.0,0.0,0.0,0.0,0.0,0.0,0.0,0.0,0.0,0.0,0.0,0.0,0.0,0.0,0.0,0.0,0.0,0.0,0.0,0.0,0.0,0.0,0.0,0.0,0.0,0.0,0.0,0.0,0.0,0.0,0.0,0.0,0.0,0.0,0.0,0.0,0.0,0.0,0.0,0.0,0.0,0.0,0.0,0.0,0.0,0.0,0.0,0.0,0.0,0.0,0.0,0.0,0.0,0.0,0.0,0.0,0.0,0.0,0.0,0.0,0.0,1.9363,2.041,2.1356,2.1187,1.9844,1.8522,1.7235,0.0,0.0,0.0,0.0,0.0,0.0,0.0,0.0,0.0,0.0,0.0,0.0,0.0,0.0,0.0,0.0,0.0,0.0,0.0,0.0,0.0,0.0,0.0,0.0,0.0,0.0,0.0,0.0,0.0,0.0,0.0,0.0,0.0,0.0,0.0,0.0,0.0,0.0,0.0,0.0,0.0,0.0,0.0,0.0,0.0,0.0,0.0,0.0,1.7331,0.0,0.0,0.0,0.0,0.0,0.0,0.0,0.0,0.0,0.0,0.0,0.0,0.0,0.0,0.0,0.0,0.0,0.0,0.0,0.0,0.0,0.0,0.0,0.0,0.0,0.0,0.0,0.0,0.0,0.0,0.0,0.0,0.0,0.0,0.0,0.0,0.0,0.0,0.0,0.0,0.0,0.0,0.0,0.0,0.0,0.0,0.0,0.0,0.0,0.0,0.0,0.0,0.0,0.0,0.0,0.0,0.0,0.0,0.0,1.9624,2.0952,2.1777,2.1548,2.0213,1.9224,1.7987,0.0,0.0,0.0,0.0,0.0,0.0,0.0,0.0,0.0,0.0,0.0,0.0,0.0,0.0,0.0,0.0,0.0,0.0,0.0,0.0,0.0,0.0,0.0,0.0,0.0,0.0,0.0,0.0,0.0,0.0,0.0,0.0,0.0,0.0,0.0,0.0,0.0,0.0,0.0,0.0,0.0,0.0,0.0,0.0,0.0,0.0,0.0,0.0,0.0,0.0,0.0,0.0,0.0,0.0,0.0,0.0,0.0,0.0,0.0,0.0,0.0,0.0,0.0,0.0,0.0,0.0,0.0,0.0,0.0,0.0,0.0,0.0,0.0,0.0,0.0,0.0,0.0,0.0,0.0,0.0,0.0,0.0,0.0,0.0,0.0,0.0,0.0,0.0,0.0,0.0,0.0,0.0,0.0,0.0,0.0,0.0,0.0,0.0,0.0,0.0,0.0,0.0,0.0,0.0,0.0,0.0,0.0,1.8819,1.9805,2.1452,2.1885,2.1608,2.0646,1.9913,1.8584,1.6575,0.0,0.0,0.0,0.0,0.0,0.0,0.0,0.0,0.0,0.0,0.0,0.0,0.0,0.0,0.0,0.0,0.0,0.0,0.0,0.0,0.0,0.0,0.0,0.0,0.0,0.0,0.0,0.0,0.0,0.0,0.0,0.0,0.0,0.0,0.0,0.0,0.0,0.0,1.6863,1.7631,0.0,0.0,0.0,0.0,0.0,0.0,0.0,0.0,1.8484,0.0,0.0,0.0,0.0,0.0,0.0,0.0,0.0,0.0,0.0,0.0,0.0,0.0,0.0,0.0,0.0,0.0,0.0,0.0,0.0,0.0,0.0,0.0,0.0,0.0,0.0,0.0,0.0,0.0,0.0,0.0,0.0,0.0,0.0,0.0,0.0,0.0,0.0,0.0,0.0,0.0,0.0,0.0,0.0,0.0,0.0,0.0,0.0,0.0,0.0,0.0,0.0,0.0,0.0,0.0,0.0,1.9328,1.9126,1.9985,2.1993,2.1716,2.1235,2.0581,1.9227,1.806,1.7243,0.0,0.0,0.0,0.0,0.0,0.0,0.0,0.0,0.0,0.0,0.0,0.0,0.0,0.0,0.0,0.0,0.0,0.0,0.0,0.0,0.0,0.0,0.0,0.0,0.0,0.0,0.0,0.0,0.0,0.0,0.0,0.0,0.0,0.0,0.0,0.0,0.0,0.0,0.0,1.8764,1.9447,0.0,0.0,0.0,0.0,0.0,0.0,0.0,0.0,1.8915,0.0,0.0,0.0,0.0,0.0,0.0,0.0,0.0,0.0,0.0,0.0,0.0,0.0,0.0,0.0,0.0,0.0,0.0,0.0,0.0,0.0,0.0,0.0,0.0,0.0,0.0,0.0,0.0,0.0,0.0,0.0,0.0,0.0,0.0,0.0,0.0,0.0,0.0,0.0,0.0,0.0,0.0,0.0,0.0,0.0,0.0,0.0,0.0,0.0,0.0,0.0,0.0,0.0,0.0,0.0,1.9183,1.9369,2.0298,2.2101,2.1668,2.1163,2.061,1.9312,1.8241,0.0,0.0,0.0,0.0,0.0,0.0,0.0,0.0,0.0,0.0,0.0,0.0,0.0,0.0,0.0,0.0,0.0,0.0,0.0,0.0,0.0,0.0,0.0,0.0,0.0,0.0,0.0,0.0,0.0,0.0,0.0,0.0,0.0,0.0,0.0,0.0,0.0,0.0,0.0,0.0,1.9335,1.9675,2.0173,0.0,0.0,0.0,0.0,0.0,0.0,1.9398,1.9518,0.0,0.0,0.0,0.0,0.0,0.0,0.0,0.0,0.0,0.0,0.0,0.0,0.0,0.0,0.0,0.0,0.0,0.0,0.0,0.0,0.0,0.0,0.0,0.0,0.0,0.0,0.0,0.0,0.0,0.0,0.0,0.0,0.0,0.0,0.0,0.0,0.0,0.0,0.0,0.0,0.0,0.0,0.0,0.0,0.0,0.0,0.0,0.0,0.0,0.0,0.0,0.0,0.0,0.0,0.0,1.8977,1.9652,2.0762,2.2262,2.1782,2.1158,2.0584,1.9395,1.8293,0.0,0.0,0.0,0.0,0.0,0.0,0.0,0.0,0.0,0.0,0.0,0.0,0.0,0.0,0.0,0.0,0.0,0.0,0.0,0.0,0.0,0.0,0.0,0.0,0.0,0.0,0.0,0.0,0.0,0.0,0.0,0.0,0.0,0.0,0.0,0.0,0.0,0.0,0.0,0.0,0.0,2.0076,2.0621,2.007,0.0,0.0,0.0,0.0,2.0547,2.0352,0.0,0.0,0.0,0.0,0.0,0.0,0.0,0.0,0.0,0.0,0.0,0.0,0.0,0.0,0.0,0.0,0.0,0.0,0.0,0.0,0.0,0.0,0.0,0.0,0.0,0.0,0.0,0.0,0.0,0.0,0.0,0.0,0.0,0.0,0.0,0.0,0.0,0.0,0.0,0.0,0.0,0.0,0.0,0.0,0.0,0.0,0.0,0.0,0.0,0.0,0.0,0.0,0.0,0.0,0.0,0.0,1.9059,2.0083,2.1384,2.2837,2.2006,2.1194,2.0592,1.887,1.7651,0.0,0.0,0.0,0.0,0.0,0.0,0.0,0.0,0.0,0.0,0.0,0.0,0.0,0.0,0.0,0.0,0.0,0.0,0.0,0.0,0.0,0.0,0.0,0.0,0.0,0.0,0.0,0.0,0.0,0.0,0.0,0.0,0.0,0.0,0.0,0.0,0.0,0.0,0.0,0.0,0.0,2.1564,2.1635,2.1126,2.0918,0.0,0.0,2.0658,2.0947,2.0909,0.0,0.0,0.0,0.0,0.0,0.0,0.0,0.0,0.0,0.0,0.0,0.0,0.0,0.0,0.0,0.0,0.0,0.0,0.0,0.0,0.0,0.0,0.0,0.0,0.0,0.0,0.0,0.0,0.0,0.0,0.0,0.0,0.0,0.0,0.0,0.0,0.0,0.0,0.0,0.0,0.0,0.0,0.0,0.0,0.0,0.0,0.0,0.0,0.0,0.0,0.0,0.0,0.0,0.0,0.0,1.8202,1.9475,2.0677,2.1854,2.302,2.2058,2.1217,2.0613,1.8946,1.7717,0.0,0.0,0.0,0.0,0.0,0.0,0.0,0.0,0.0,0.0,0.0,0.0,0.0,0.0,0.0,0.0,0.0,0.0,0.0,0.0,0.0,0.0,0.0,0.0,0.0,0.0,0.0,0.0,0.0,0.0,0.0,0.0,0.0,0.0,0.0,0.0,0.0,0.0,0.0,0.0,0.0,0.0,2.2372,2.1838,0.0,0.0,0.0,2.1665,2.2416,0.0,0.0,0.0,0.0,0.0,0.0,0.0,0.0,0.0,0.0,0.0,0.0,0.0,0.0,0.0,0.0,0.0,0.0,0.0,0.0,0.0,0.0,0.0,0.0,0.0,0.0,0.0,0.0,0.0,0.0,0.0,0.0,0.0,0.0,0.0,0.0,0.0,0.0,0.0,0.0,0.0,0.0,0.0,0.0,0.0,0.0,0.0,0.0,0.0,0.0,0.0,0.0,0.0,0.0,0.0,0.0,0.0,1.9674,2.105,2.2229,2.3115,2.2099,2.1248,2.0638,1.913,0.0,0.0,0.0,0.0,0.0,0.0,0.0,0.0,0.0,0.0,0.0,0.0,0.0,0.0,0.0,0.0,0.0,0.0,0.0,0.0,0.0,0.0,0.0,0.0,0.0,0.0,0.0,2.1162,0.0,0.0,0.0,0.0,0.0,0.0,0.0,0.0,0.0,0.0,0.0,0.0,0.0,0.0,2.2598,2.3084,2.2684,2.2725,0.0,0.0,2.2653,2.3614,2.343,2.3099,0.0,0.0,0.0,0.0,0.0,0.0,0.0,0.0,0.0,0.0,0.0,0.0,0.0,0.0,0.0,0.0,0.0,0.0,0.0,0.0,0.0,0.0,0.0,0.0,0.0,0.0,0.0,0.0,0.0,0.0,0.0,0.0,0.0,0.0,0.0,0.0,0.0,0.0,0.0,0.0,0.0,0.0,0.0,0.0,0.0,0.0,0.0,0.0,0.0,0.0,0.0,0.0,0.0,0.0,1.8681,1.9366,2.1026,2.2366,2.3296,2.2286,2.1367,2.0714,1.9337,1.8054,0.0,0.0,0.0,0.0,0.0,0.0,0.0,0.0,0.0,0.0,0.0,0.0,0.0,0.0,0.0,0.0,0.0,0.0,0.0,0.0,0.0,0.0,0.0,0.0,0.0,0.0,0.0,0.0,0.0,0.0,0.0,0.0,0.0,0.0,0.0,0.0,0.0,0.0,0.0,0.0,0.0,2.3643,2.3818,2.3789,2.4007,0.0,2.4225,2.3789,2.3891,2.3847,2.363,2.2989,0.0,0.0,0.0,0.0,0.0,0.0,0.0,0.0,0.0,0.0,0.0,0.0,0.0,0.0,0.0,0.0,0.0,0.0,0.0,0.0,0.0,0.0,0.0,0.0,0.0,0.0,0.0,0.0,0.0,0.0,0.0,0.0,0.0,0.0,0.0,0.0,0.0,0.0,0.0,0.0,0.0,0.0,0.0,0.0,0.0,0.0,0.0,0.0,0.0,0.0,0.0,0.0,0.0,1.9485,2.0345,2.1807,2.2911,2.3521,2.279,2.1889,2.0924,1.968,1.8612,0.0,0.0,0.0,0.0,0.0,0.0,0.0,0.0,0.0,0.0,0.0,0.0,0.0,0.0,0.0,0.0,0.0,0.0,0.0,0.0,0.0,0.0,0.0,0.0,0.0,0.0,0.0,0.0,2.2563,2.2501,2.2873,0.0,0.0,0.0,0.0,0.0,0.0,0.0,0.0,0.0,0.0,2.3974,2.4389,2.4486,0.0,0.0,2.5251,2.4921,2.453,2.4486,2.4152,2.3099,2.2888,0.0,0.0,0.0,0.0,0.0,0.0,0.0,0.0,0.0,0.0,0.0,0.0,0.0,0.0,0.0,0.0,0.0,0.0,0.0,0.0,0.0,0.0,0.0,0.0,0.0,0.0,0.0,0.0,0.0,0.0,0.0,0.0,0.0,0.0,0.0,0.0,0.0,0.0,0.0,0.0,0.0,0.0,0.0,0.0,0.0,0.0,0.0,0.0,0.0,0.0,0.0,0.0,1.9967,2.1019,2.2186,2.3098,2.3725,2.2991,2.2177,2.1287,2.0167,1.9229,0.0,0.0,0.0,0.0,0.0,0.0,0.0,0.0,0.0,0.0,0.0,0.0,0.0,0.0,0.0,0.0,0.0,0.0,0.0,0.0,0.0,0.0,0.0,0.0,0.0,0.0,0.0,0.0,2.3186,2.2888,2.2888,0.0,0.0,0.0,0.0,0.0,0.0,0.0,0.0,0.0,0.0,2.4302,2.4752,2.4863,2.5038,2.5444,2.5342,2.5052,2.4607,2.4723,2.4428,2.3105,0.0,0.0,0.0,0.0,0.0,0.0,0.0,0.0,0.0,0.0,0.0,0.0,0.0,0.0,0.0,0.0,0.0,0.0,0.0,0.0,0.0,0.0,0.0,0.0,0.0,0.0,0.0,1.9212,0.0,0.0,1.9394,0.0,0.0,0.0,0.0,0.0,0.0,0.0,0.0,0.0,0.0,0.0,0.0,0.0,0.0,0.0,0.0,0.0,0.0,0.0,0.0,0.0,0.0,1.991,2.1106,2.1936,2.2851,2.3823,2.2748,2.2066,2.1845,2.0777,1.9897,1.9288,0.0,0.0,0.0,0.0,0.0,0.0,0.0,0.0,0.0,0.0,0.0,0.0,0.0,0.0,0.0,0.0,0.0,0.0,0.0,0.0,0.0,0.0,0.0,0.0,0.0,0.0,2.2909,2.2902,2.2888,0.0,0.0,0.0,0.0,0.0,0.0,0.0,0.0,0.0,2.3804,2.4404,2.4795,2.48,2.4878,2.495,2.4882,2.4399,2.3978,2.3978,2.4442,2.4365,0.0,0.0,0.0,0.0,0.0,0.0,0.0,0.0,0.0,0.0,0.0,0.0,0.0,0.0,0.0,0.0,0.0,0.0,0.0,0.0,0.0,0.0,0.0,0.0,0.0,0.0,0.0,2.134,2.0494,0.0,0.0,0.0,0.0,0.0,0.0,0.0,0.0,0.0,0.0,0.0,2.1118,2.1142,0.0,0.0,0.0,0.0,0.0,0.0,0.0,0.0,0.0,0.0,0.0,0.0,2.0685,2.188,2.2566,2.327,2.4001,2.3257,2.2623,2.2192,2.1045,2.0096,1.9463,0.0,0.0,0.0,0.0,0.0,0.0,0.0,0.0,0.0,0.0,0.0,0.0,0.0,0.0,0.0,0.0,0.0,0.0,0.0,0.0,0.0,0.0,0.0,0.0,0.0,2.2781,0.0,0.0,0.0,0.0,0.0,0.0,0.0,0.0,0.0,0.0,0.0,2.3644,2.3885,2.4805,2.5458,2.5473,2.585,2.6141,0.0,0.0,0.0,0.0,0.0,0.0,0.0,0.0,0.0,0.0,0.0,0.0,0.0,0.0,2.5553,2.3897,2.3572,2.3667,2.3964,0.0,0.0,0.0,0.0,0.0,0.0,0.0,0.0,0.0,0.0,0.0,0.0,0.0,0.0,2.2308,2.1275,2.1237,0.0,0.0,0.0,0.0,0.0,0.0,0.0,0.0,2.143,2.1672,2.1711,2.1927,2.1914,2.1711,2.1722,2.1529,0.0,0.0,0.0,0.0,0.0,0.0,0.0,0.0,2.1412,2.2603,2.3215,2.3811,2.434,2.3825,2.3228,2.2605,2.144,2.0522,1.9858,2.0148,2.0452,0.0,0.0,0.0,0.0,0.0,0.0,0.0,0.0,0.0,0.0,0.0,0.0,0.0,0.0,0.0,0.0,0.0,0.0,0.0,0.0,0.0,0.0,0.0,2.3117,0.0,0.0,0.0,0.0,0.0,0.0,0.0,0.0,0.0,2.3411,2.3823,2.4317,2.4772,2.5551,2.6079,2.6079,0.0,0.0,0.0,0.0,0.0,0.0,0.0,2.5159,2.499,2.4834,2.493,2.566,2.6294,2.7045,2.81,0.0,0.0,2.5236,2.5061,2.5241,2.537,2.5393,2.5512,2.6057,2.5288,2.4744,0.0,0.0,0.0,0.0,2.4083,0.0,0.0,0.0,2.3208,2.2556,0.0,2.1498,0.0,0.0,0.0,0.0,2.0927,2.0941,0.0,0.0,2.1862,2.2219,2.2361,2.2903,2.289,2.2359,2.2357,2.2072,2.1518,2.1491,0.0,0.0,0.0,0.0,0.0,0.0,2.2022,2.3201,2.3798,2.4367,2.4951,2.4422,2.3798,2.3134,2.2009,2.1114,2.0599,2.1193,2.1318,2.0771,2.1536,0.0,0.0,0.0,0.0,0.0,0.0,0.0,0.0,0.0,0.0,0.0,0.0,0.0,0.0,0.0,0.0,0.0,0.0,0.0,0.0,2.3706,0.0,0.0,0.0,0.0,0.0,0.0,0.0,0.0,0.0,2.4506,2.4459,2.4596,2.5144,2.6387,0.0,0.0,0.0,0.0,2.6155,2.5863,2.5285,2.5116,2.5704,2.5835,2.5764,2.5461,0.0,0.0,2.6765,2.6868,2.7218,2.7806,2.8267,2.8362,2.8665,2.8101,2.7795,2.8085,2.8085,2.8268,2.8559,2.7937,2.7442,2.484,0.0,0.0,0.0,0.0,2.4125,2.3992,2.3825,2.3365,2.2805,2.2126,2.1694,0.0,0.0,0.0,0.0,0.0,0.0,2.1732,2.2207,2.2563,2.2761,2.2814,2.3081,2.3251,2.3279,2.3291,2.331,2.332,2.3144,2.2407,2.1155,0.0,0.0,0.0,0.0,2.2619,2.3771,2.4014,2.4408,2.4991,2.4422,2.3594,2.2564,2.1805,2.1318,2.1141,2.1352,2.1414,2.1369,2.1687,0.0,0.0,0.0,0.0,0.0,0.0,0.0,0.0,0.0,0.0,0.0,0.0,0.0,0.0,0.0,0.0,0.0,0.0,0.0,2.2835,2.2919,2.2931,0.0,0.0,0.0,0.0,0.0,0.0,0.0,0.0,0.0,2.6474,2.6396,2.628,0.0,0.0,2.7391,2.6961,2.7139,2.7305,2.7238,2.6971,0.0,2.7206,2.6922,2.6832,2.7354,2.8174,2.8959,2.9537,3.0192,3.091,3.1524,3.1758,3.169,3.1238,3.001,2.9119,2.9123,2.9437,2.976,2.9846,2.9336,2.8872,2.5628,2.4749,2.4775,2.4762,2.4762,2.4762,2.4762,2.4723,2.4164,2.3589,2.3055,2.2439,2.1877,2.138,2.1393,0.0,0.0,0.0,2.2234,2.271,2.3205,2.3447,2.3474,2.4026,2.4185,2.4069,2.4159,2.4177,2.4118,2.3951,2.3409,2.249,0.0,2.2293,2.2671,2.2876,2.335,2.4069,2.4326,2.4652,2.4991,2.4422,2.3635,2.2686,2.2088,2.1654,2.1399,2.1385,2.1434,2.152,2.165,2.1759,0.0,0.0,0.0,0.0,0.0,0.0,0.0,0.0,0.0,0.0,0.0,2.2194,2.2194,0.0,0.0,0.0,2.2791,2.3117,2.2978,2.3487,0.0,0.0,0.0,0.0,0.0,0.0,0.0,2.6512,2.6764,2.7178,2.7961,2.7938,2.7651,2.718,2.7994,2.8507,2.8148,0.0,2.8773,2.8614,2.8344,2.8278,2.8596,2.7923,2.7661,2.8587,2.9206,2.9921,3.0742,3.164,3.2341,3.2761,3.3182,3.3349,3.2921,3.1985,3.1164,3.0845,3.1281,3.172,3.1838,3.1328,3.0881,2.6438,2.5955,2.5923,2.5871,2.5793,2.578,2.578,2.5741,2.521,2.4704,2.4151,2.355,2.2986,2.2544,2.2532,0.0,2.2652,2.2652,2.2841,2.3164,2.4001,2.4327,2.4341,2.5452,2.5532,2.4732,2.4998,2.4848,2.4352,2.4306,2.4267,2.4267,2.3759,2.3457,2.3376,2.3906,2.4218,2.4327,2.4844,2.5048,2.502,2.4435,2.3811,2.3215,2.2605,2.1995,2.144,2.1385,2.1385,2.1423,2.153,2.1602,2.1602,0.0,0.0,0.0,0.0,0.0,0.0,0.0,0.0,0.0,0.0,0.0,0.0,0.0,0.0,0.0,2.356,0.0,2.3698,2.491,0.0,0.0,0.0,2.5597,2.5723,2.587,2.639,2.7588,0.0,0.0,2.8973,2.9114,2.9021,2.885,2.9333,2.9748,2.9732,2.9962,3.0134,2.9659,2.9329,2.925,2.9486,2.8793,2.8569,2.9494,2.9614,3.0139,3.0986,3.1801,3.222,3.2349,3.3077,3.3704,3.372,3.3786,3.3824,3.2802,3.3217,3.3764,3.3829,3.3363,3.2878,2.7249,2.7085,2.7098,2.6602,2.5793,2.578,2.578,2.5741,2.521,2.4926,2.4756,2.4164,2.3838,2.3707,2.3694,2.4103,2.4773,2.4773,2.5202,2.5939,2.6341,2.6293,2.5894,2.6357,2.6341,2.5911,2.5962,2.6038,2.6133,2.5881,2.5761,2.579,2.588,2.5492,2.4614,2.4725,2.5255,2.6148,2.5841,2.5564,2.5355,2.4545,2.3811,2.3202,2.2644,2.202,2.1426,2.1385,2.1385,2.141,2.1626,2.1759,2.1759,2.1973,0.0,0.0,0.0,0.0,0.0,0.0,0.0,0.0,0.0,2.231,2.2572,0.0,2.2592,0.0,2.4336,2.4776,2.4881,2.5202,0.0,0.0,2.574,2.6145,2.7026,2.7157,2.7565,2.8629,2.8746,2.884,2.9059,2.9114,2.9091,2.906,2.9147,2.9281,2.9257,2.9249,2.9225,2.9194,2.9441,2.9526,2.9399,2.9667,3.018,3.1086,3.1538,3.1817,3.1759,3.2713,3.3345,3.3021,3.3482,3.3951,3.3984,3.4059,3.38,3.3242,3.3557,3.4025,3.4059,3.3534,3.3097,2.7725,2.7503,2.7503,2.7124,2.655,2.655,2.655,2.6511,2.5981,2.5751,2.5725,2.5132,2.4853,2.487,2.502,2.5359,2.5831,2.6039,2.6437,2.6991,2.7262,2.723,2.694,2.7314,2.7371,2.7126,2.6991,2.7182,2.7607,2.7155,2.7086,2.7374,2.7567,2.7312,2.6656,2.6368,2.6568,2.7229,2.6763,2.63,2.5909,2.5163,2.4382,2.3608,2.3085,2.2574,2.21,2.1955,2.1827,2.1688,2.1817,2.1793,2.164,2.1996,2.232,0.0,0.0,0.0,0.0,0.0,0.0,0.0,0.0,0.0,0.0,0.0,2.4054,2.4762,2.5322,2.5692,2.586,2.6225,2.6558,2.6773,2.6969,2.7357,2.8008,2.8132,2.8427,2.9028,2.9114,2.9114,2.9114,2.9114,2.9114,2.9114,2.9114,2.9225,2.9556,2.9761,2.9824,2.9564,2.9996,3.0342,3.0053,3.0735,3.1333,3.1517,3.1787,3.1923,3.1783,3.2618,3.3253,3.2981,3.3314,3.3622,3.354,3.329,3.3032,3.2805,3.2902,3.3129,3.3161,3.287,3.2676,2.8119,2.7661,2.7596,2.759,2.7623,2.7603,2.757,2.753,2.7066,2.6908,2.6914,2.6382,2.6159,2.6172,2.6472,2.6614,2.6675,2.7009,2.7253,2.7448,2.7676,2.7797,2.78,2.8282,2.8426,2.8269,2.8004,2.8157,2.8736,2.817,2.8184,2.8736,2.8852,2.8881,2.8853,2.8455,2.8151,2.7909,2.7657,2.7204,2.6551,2.6036,2.5218,2.4163,2.3708,2.3257,2.2825,2.2602,2.2351,2.2077,2.2123,2.1983,2.165,2.217,2.2757,0.0,2.3981,0.0,0.0,0.0,0.0,0.0,0.0,0.0,0.0,2.5878,2.5915,2.5853,2.6455,2.6847,2.6871,2.7555,2.8036,2.8061,2.8422,2.8692,2.8708,2.8811,2.8967,2.9068,2.9075,2.9075,2.9114,2.9114,2.9114,2.9114,2.9114,2.9288,2.9911,3.0417,3.0535,3.0236,3.0686,3.0946,3.1214,3.1729,3.189,3.1358,3.139,3.132,3.1301,3.1981,3.2478,3.2366,3.2611,3.2821,3.2667,3.2273,3.1965,3.1828,3.1925,3.2062,3.2101,3.2109,3.2222,2.8478,2.8618,2.8166,2.8131,2.836,2.8099,2.798,2.7967,2.7861,2.7971,2.8217,2.8109,2.8056,2.8056,2.8133,2.8311,2.8565,2.8628,2.8848,2.9142,2.9285,2.9122,2.8685,2.9027,2.9002,2.8624,2.8633,2.8786,2.9015,2.8912,2.8897,2.9029,2.9572,2.9837,2.9866,0.0,0.0,0.0,2.874,2.8353,2.7326,2.6806,2.5797,2.4238,2.398,0.0,2.2409,2.2436,2.2452,2.242,2.2709,0.0,0.0,0.0,0.0,0.0,0.0,0.0,0.0,0.0,0.0,0.0,2.7476,2.7433,2.626,2.6742,2.7034,2.6807,2.7527,2.8132,2.8269,2.8449,2.8622,2.885,2.8943,2.8967,2.8897,2.8897,2.8904,2.8943,2.8943,2.899,2.9075,2.9114,2.9114,2.9114,2.9114,2.9161,2.9304,2.9477,2.9682,3.0109,3.0362,3.0828,3.1928,3.1697,3.1453,3.1369,3.1804,3.167,3.1007,3.1246,3.1469,3.115,3.147,3.1887,3.1823,3.175,3.1454,3.0949,3.1277,3.1742,3.1948,3.2012,3.2044,2.9059,2.8512,2.8396,2.8341,0.0,2.8341,2.8438,2.8554,2.8033,2.8013,2.8373,2.8522,2.8587,2.8619,2.878,2.894,2.9099,2.9257,2.954,2.9834,2.9913,2.994,2.9836,3.0014,3.0017,2.987,2.9633,2.9704,3.0041,2.9731,2.9774,3.0085,3.0438,3.0601,3.0615,3.0984,3.0821,3.0084,3.0075,2.9508,2.8354,2.7811,2.6724,2.5027,2.4646,0.0,0.0,0.0,0.0,0.0,0.0,0.0,0.0,2.4405,0.0,2.5313,2.597,2.6419,2.6639,2.7179,2.7555,2.7675,2.834,2.8412,2.7665,2.7976,2.8155,2.8062,2.8474,2.8748,2.8803,2.8803,2.8826,2.8944,2.8951,2.8905,2.8865,2.8858,2.8842,2.8858,2.8873,2.8928,2.899,2.9075,2.9114,2.9114,2.9114,2.9114,2.9114,2.9114,2.9367,3.0077,3.022,3.0568,3.1476,3.1507,3.1049,3.0949,3.1075,3.0996,3.0513,3.068,3.0871,3.0871,3.1023,3.1102,3.0999,3.0783,3.0485,3.0243,3.0364,3.0628,3.0838,3.108,3.1298,2.9842,2.8765,2.894,2.8812,2.8521,2.8736,2.8908,2.894,2.8183,0.0,0.0,2.8651,2.878,2.878,2.9067,2.9194,2.9226,2.954,2.9834,3.008,3.0172,3.0401,3.0762,3.0791,3.0925,3.1043,3.0556,3.0585,3.1131,3.0628,3.0599,3.1117,3.1161,3.119,3.1234,3.1205,3.1351,3.1567,3.1234,3.0497,2.944,2.8827,2.7731,2.6115,2.557,2.5055,2.455,2.443,2.4208,2.391,2.4425,2.4633,2.4387,2.5329,2.6154,2.6705,2.7261,2.7764,2.8189,2.8348,2.8411,2.842,2.8604,2.8818,2.9021,2.8959,2.8936,2.9045,2.9029,2.9006,2.8897,2.8873,2.8865,2.8818,2.881,2.8794,2.8771,2.8771,2.8755,2.8771,2.8795,2.8858,2.8873,2.9006,2.9075,2.9075,2.9091,2.9114,2.913,2.9256,2.958,3.0069,3.022,3.0425,3.0875,3.1018,3.0749,3.0141,3.0141,3.0172,3.0062,3.0125,3.0347,3.0615,3.0521,3.0306,3.0164,2.9821,2.9489,2.957,2.9614,2.9617,2.9643,3.0062,3.0455,3.1225,3.1241,3.0752,3.0408,3.0164,2.9905,2.9402,2.8729,2.9131,2.9352,2.9383,2.9446,2.9446,2.9477,2.9509,2.954,2.954,2.9896,3.005,3.0111,3.0401,3.0582,3.0642,3.0732,3.0881,3.1029,3.1086,3.1217,3.1423,3.1348,3.1363,3.1438,3.1453,3.1539,3.167,3.1698,3.1784,3.1925,3.1496,3.1021,3.0569,2.9756,2.8742,2.7555,2.6765,2.6096,2.5518,2.5637,2.5682,2.5637,2.5925,2.6091,2.6061,2.6734,2.7179,2.7317,2.7887,2.8304,2.8356,2.8387,2.8444,2.8565,2.8493,2.858,2.8818,2.8826,2.8818,2.8842,2.8842,2.8826,2.8818,2.8803,2.8803,2.8794,2.881,2.8755,2.8636,2.8636,2.8636,2.8636,2.8645,2.8692,2.8787,2.8889,2.8943,2.8943,2.9013,2.9114,2.9193,2.9659,3.0046,3.0188,3.022,3.0251,3.033,3.0346,3.0054,2.9367,2.9801,2.9927,2.943,2.9358,2.9445,2.943,2.9461,2.9405,2.9327,2.9239,2.919,2.9268,2.961,2.9816,2.9379,2.9752,3.0085,3.1357,3.1274,3.086,3.0703,3.0698,3.0397,2.9845,2.9176,2.9477,2.9477,2.9352,2.9509,2.9602,2.9602,2.9602,2.9602,2.9602,2.9772,3.0036,3.0371,3.0507,3.0791,3.1058,3.1146,3.1205,3.1292,3.138,3.1453,3.1511,3.1496,3.1496,3.1496,3.1496,3.1539,3.1641,3.1626,3.1712,3.1898,3.1754,3.1451,3.1022,3.0649,2.9705,2.8183,2.7759,2.7096,2.6115,2.6161,2.6206,2.6206,2.6688,2.6934,2.6949,2.758,2.795,2.795,2.8227,2.8411,2.8411,2.8411,2.8436,2.8468,2.842,2.846,2.8565,2.8652,2.8708,2.8794,2.881,2.8771,2.8723,2.8684,2.8676,2.8565,2.8565,2.8556,2.8532,2.8493,2.8493,2.8477,2.8565,2.8636,2.8684,2.8803,2.8834,2.8858,2.8936,2.899,2.899,2.932,2.9611,2.9611,2.9611,2.9595,2.9611,2.9595,2.943,2.9146,2.9367,2.943,2.9146,2.9114,2.9114,2.9114,2.9114,2.9114,2.9114,2.9114,2.9137,2.9222,2.9366,2.9445,2.9294,2.9452,2.95,3.1548,3.1195,3.0862,3.0774,3.0779,3.0443,3.0038,2.9617,2.9602,2.946,2.9257,2.9477,2.9602,2.9602,2.9665,2.9696,2.9696,2.9789,3.0113,3.0672,3.0687,3.0984,3.1467,3.1496,3.1496,3.1496,3.1496,3.1496,3.1496,3.1496,3.1496,3.1496,3.1496,3.1496,3.1496,3.1496,3.1583,3.1727,3.1855,3.1738,3.1387,3.1274,3.044,2.8962,2.8679,2.8073,2.6919,2.6842,2.6842,2.6857,2.7349,2.7626,2.7642,2.8104,2.8411,2.8411,2.8411,2.8411,2.8411,2.8411,2.8411,2.8411,2.8411,2.8411,2.8396,2.8493,2.8612,2.87,2.87,2.8652,2.8565,2.8549,2.8517,2.8436,2.8411,2.8436,2.8411,2.8411,2.8411,2.842,2.8493,2.8565,2.8589,2.8676,2.8771,2.8818,2.8858,2.8889,2.8912,2.8982,2.9052,2.9052,2.9075,2.9146,2.9114,2.9146,2.913,2.9114,2.913,2.9161,2.9114,2.9114,2.9114,2.9114,2.9114,2.9114,2.9114,2.9114,2.916,2.9206,2.9208,2.9153,2.9222,2.9199,2.9176,3.228,3.2182,3.164,3.1045,3.0489,2.995,2.9655,2.9602,2.9602,2.9602,2.954,2.9571,2.9602,2.9634,2.9927,3.005,3.008,3.0371,3.0657,3.0925,3.097,3.1161,3.1467,3.1496,3.1496,3.1496,3.1496,3.1496,3.1496,3.1496,3.1496,3.1496,3.1496,3.1496,3.1496,3.1496,3.1511,3.1539,3.1524,3.1667,3.1903,3.1463,3.0842,3.0046,2.9551,2.8981,2.8181,2.8227,2.8211,2.8227,2.8258,2.8304,2.8319,2.8381,2.8411,2.8411,2.8411,2.8411,2.8411,2.8411,2.8427,2.8411,2.8442,2.8427,2.8411,2.8436,2.8436,2.846,2.846,2.846,2.842,2.8436,2.8436,2.8411,2.8411,2.8411,2.8411,2.8411,2.8411,2.8411,2.8466,2.8411,2.8521,2.8587,2.8645,2.8747,2.8779,2.8803,2.8803,2.8865,2.8943,2.8967,2.9013,2.9075,2.9114,2.9114,2.9114,2.9114,2.9114,2.9114,2.9114,2.9114,2.9114,2.9114,2.9114,2.9114,2.9114,2.9114,2.9114,2.9137,2.9137,2.9114,2.9137,2.9137,2.916,3.2623,3.2834,3.1893,3.112,3.0484,3.0249,2.994,2.9617,2.9602,2.9602,2.9602,2.9602,2.9696,2.9927,3.0249,3.0401,3.0401,3.0538,3.0747,3.097,3.0999,3.119,3.1467,3.1496,3.1496,3.1496,3.1496,3.1496,3.1496,3.1496,3.1496,3.1496,3.1496,3.1496,3.1496,3.1496,3.1496,3.1496,3.1496,3.1568,3.1682,3.1695,3.1192,3.0322,3.0073,2.9448,2.8535,2.8411,2.8411,2.8411,2.8411,2.8411,2.8411,2.8411,2.8411,2.8411,2.8411,2.8581,2.8981,2.8996,2.8972,2.8996,2.9012,2.8818,2.8442,2.8411,2.8411,2.8411,2.8411,2.8411,2.8411,2.8411,2.8411,2.8411,2.8411,2.8427,2.8411,2.8411,2.8519,2.8889,2.8642,2.8596,2.8842,2.8691,2.8523,2.8565,2.8628,2.866,2.8684,2.8779,2.8842,2.8897,2.8928,2.9013,2.9091,2.9114,2.9114,2.9114,2.9114,2.9114,2.9114,2.9114,2.9114,2.9114,2.9114,2.9114,2.9114,2.9114,2.9114,2.9114,2.9114,2.9114,2.9114,2.9114,2.9137,3.2398,3.2595,3.1518,3.0763,3.0295,3.0372,3.015,2.9769,2.9789,2.9789,2.982,2.9929,3.0097,3.0341,3.0538,3.0642,3.0687,3.0717,3.0866,3.1087,3.1058,3.1175,3.1467,3.1496,3.1496,3.1496,3.1496,3.1496,3.1496,3.1496,3.1496,3.1496,3.1496,3.1496,3.1496,3.1496,3.1496,3.1496,3.1496,3.1496,3.1509,3.1617,3.1189,3.0258,3.0297,2.9746,2.8488,2.8411,2.8411,2.8411,2.8556,2.8688,2.8688,2.8688,2.8688,2.8704,2.8833,2.9181,2.9658,2.9664,2.9587,2.9417,2.9387,2.9135,2.8565,2.8411,2.8488,2.8704,2.8688,2.8658,2.8427,2.8565,2.8673,2.8688,2.8812,2.895,2.8996,2.895,2.9181,2.951,2.911,2.8765,2.8981,2.8704,2.8436,2.8436,2.8493,2.8525,2.8565,2.8676,2.8779,2.8865,2.8897,2.8967,2.9091,2.9114,2.9114,2.9114,2.9114,2.9114,2.9114,2.9114,2.9114,2.9114,2.9114,2.9114,2.9114,2.9114,2.9114,2.9114,2.9114,2.9114,2.9114,2.9114,2.9114,3.1541,3.1448,3.0351,2.9933,2.9865,3.0045,3.0123,3.005,3.0189,3.0266,3.0312,3.0673,3.0911,3.0911,3.0717,3.0747,3.097,3.097,3.1161,3.1424,3.1146,3.1175,3.1496,3.1496,3.1496,3.1496,3.1496,3.1496,3.1496,3.1496,3.1496,3.1496,3.1496,3.1496,3.1496,3.1496,3.1496,3.1496,3.1496,3.1496,3.1465,3.111,3.0673,3.013,3.0151,2.9639,2.8587,2.8427,2.8442,2.8427,2.9012,2.9335,2.9325,2.9356,2.9356,2.9387,2.9925,3.0279,3.034,3.0356,3.0094,2.9541,2.9525,2.9141,2.8596,2.8581,2.8802,2.9319,2.9341,2.915,2.8719,2.9089,2.9341,2.9396,2.9894,3.0156,3.0233,3.0094,3.0279,3.0263,2.9817,2.9335,2.8704,2.8442,2.8488,2.8488,2.8442,2.8436,2.8444,2.8541,2.8645,2.8763,2.8842,2.8928,2.9068,2.9114,2.9114,2.9114,2.9114,2.9114,2.9114,2.9114,2.9114,2.9114,2.9114,2.9114,2.9114,2.9114,2.9114,2.9114,2.9114,2.9114,2.9114,2.9114,2.9114,3.2188,3.1448,3.0608,3.0017,2.9696,2.9758,2.9896,3.008,3.0158,3.028,3.0507,3.0687,3.0822,3.0999,3.0911,3.1043,3.1307,3.1322,3.138,3.1482,3.138,3.138,3.1467,3.1496,3.1496,3.1496,3.1496,3.1496,3.1496,3.1496,3.1496,3.1496,3.1496,3.1496,3.1496,3.1496,3.1496,3.1496,3.1496,3.1496,3.1496,3.1329,3.0992,3.0467,3.027,2.9786,2.8949,2.8993,2.9243,2.9633,2.951,2.9587,2.9986,3.0033,3.0033,3.0063,3.0279,3.0571,3.0966,3.1028,3.0751,3.0156,3.0443,3.0166,2.9366,2.9427,2.9787,2.9971,3.0033,2.9879,2.9827,2.991,3.0033,3.0063,3.0248,3.0448,3.0402,3.0402,3.054,3.0889,3.0782,3.0428,2.971,2.9294,2.9033,2.9012,2.8688,2.8488,2.8411,2.846,2.8548,2.8636,2.8708,2.8771,2.8943,2.9052,2.9075,2.9114,2.9114,2.9114,2.9114,2.9114,2.9114,2.9114,2.9114,2.9114,2.9114,2.9114,2.9114,2.9114,2.9114,2.9114,2.9114,2.9114,2.9114,3.1822,3.0895,3.0435,3.0045,2.9679,2.9741,2.9896,3.0125,3.0264,3.0462,3.0672,3.0807,3.0984,3.1131,3.1161,3.1278,3.1467,3.1496,3.1496,3.1496,3.1496,3.1496,3.1496,3.1496,3.1496,3.1496,3.1496,3.1496,3.1496,3.1496,3.1496,3.1496,3.1496,3.1496,3.1496,3.1496,3.1496,3.1496,3.1496,3.1496,3.1481,3.1286,3.0924,3.0506,3.0418,3.0055,2.9281,2.9536,2.9787,3.0017,3.0058,3.0258,3.0663,3.0951,3.0951,3.0782,3.0924,3.1228,3.1628,3.1732,3.1428,3.0828,3.1074,3.0889,2.9894,3.014,3.0448,3.0632,3.0735,3.0782,3.0986,3.1048,3.0966,3.0828,3.0894,3.1032,3.1032,3.1048,3.1182,3.1259,3.1089,3.0812,3.0448,2.9986,2.9756,2.9725,2.9304,2.9027,2.8756,2.8719,2.8645,2.8611,2.8612,2.87,2.885,2.8967,2.9052,2.9091,2.9114,2.9114,2.9114,2.9114,2.9114,2.9114,2.9114,2.9114,2.9114,2.9114,2.9114,2.9114,2.9114,2.9114,2.9114,2.9114,2.9114,3.0249,2.9816,2.9775,2.9865,2.9853,3.0005,3.0111,3.0233,3.0582,3.0791,3.091,3.1263,3.1439,3.1526,3.1482,3.1497,3.16,3.154,3.1496,3.1496,3.1496,3.1496,3.1496,3.1496,3.1496,3.1496,3.1496,3.1496,3.1496,3.1496,3.1496,3.1496,3.1496,3.1496,3.1496,3.1496,3.1496,3.1496,3.1496,3.1496,3.1421,3.0986,3.0531,3.0129,3.0667,3.0525,2.9404,3.0012,3.0202,2.9874,3.0689,3.1336,3.1443,3.1905,3.2044,3.1582,3.1967,3.2305,3.2336,3.2321,3.1997,3.1443,3.1409,3.1197,3.0571,3.0525,3.0843,3.1274,3.1351,3.1551,3.209,3.2121,3.1921,3.1593,3.1828,3.2151,3.2244,3.2321,3.2121,3.1536,3.1089,3.0509,3.0448,3.0432,3.0428,3.0412,3.0156,2.9817,2.931,2.9141,2.9046,2.8742,2.8697,2.8854,2.8881,2.892,2.9006,2.9068,2.9091,2.9114,2.9114,2.9114,2.9114,2.9114,2.9114,2.9114,2.9114,2.9114,2.9114,2.9114,2.9114,2.9114,2.9114,2.9114,2.9114,3.0467,3.0383,3.0114,3.0052,3.016,3.0357,3.0552,3.0703,3.0881,3.1073,3.1292,3.1438,3.175,3.1989,3.1735,3.175,3.2123,3.1735,3.1496,3.1496,3.1496,3.1511,3.1511,3.1511,3.1496,3.1496,3.1496,3.1496,3.1496,3.1496,3.1496,3.1496,3.1496,3.1496,3.1496,3.1496,3.1496,3.1496,3.1496,3.1496,3.1496,3.1431,3.1319,3.1255,3.1615,3.1415,3.0662,3.0902,3.1213,3.1366,3.1397,3.1624,3.2013,3.2275,3.229,3.2121,3.2259,3.2398,3.2398,3.2367,3.209,3.1655,3.1797,3.172,3.1259,3.149,3.1813,3.1982,3.169,3.1659,3.2151,3.1951,3.1871,3.2044,3.2259,3.2398,3.2398,3.2382,3.2305,3.2163,3.189,3.1782,3.1659,3.1443,3.1074,3.0951,3.0397,2.9694,2.9448,2.9095,2.8704,2.8499,2.8755,2.9045,2.9043,2.9194,2.9422,2.9289,2.9186,2.913,2.9114,2.9114,2.9114,2.9114,2.9114,2.9114,2.9114,2.9114,2.9114,2.9114,2.9114,2.9114,2.9114,2.9114,2.9114,3.0305,3.0498,3.0221,3.0219,3.0417,3.0568,3.0687,3.0851,3.097,3.1117,3.1322,3.1438,3.172,3.1974,3.1675,3.1735,3.2049,3.1675,3.1496,3.1496,3.1496,3.163,3.1884,3.2138,3.2079,3.1899,3.1869,3.1735,3.1511,3.1496,3.1496,3.1496,3.1496,3.1496,3.1496,3.1496,3.1496,3.1496,3.1496,3.1496,3.1539,3.1641,3.1635,3.1568,3.1901,3.1812,3.134,3.1586,3.1855,3.1982,3.184,3.1982,3.2394,3.2398,3.2398,3.2351,3.2182,3.2105,3.2321,3.2121,3.1997,3.1886,3.2151,3.2228,3.1932,3.224,3.2382,3.2321,3.2028,3.1921,3.2228,3.2086,3.1997,3.2336,3.2382,3.2398,3.2382,3.2167,3.2182,3.2182,3.2105,3.2194,3.2198,3.2105,3.1655,3.1336,3.0689,2.9981,2.974,2.9218,2.8919,2.8781,2.9083,2.9228,2.9188,2.9472,2.9833,2.9587,2.9296,2.9186,2.9114,2.9114,2.9114,2.9114,2.9114,2.9114,2.9114,2.9114,2.9114,2.9114,2.9114,2.9114,2.9114,2.9114,2.913,2.9803,3.008,3.0111,3.031,3.0598,3.0672,3.0732,3.0717,3.094,3.1058,3.1161,3.138,3.157,3.16,3.1585,3.1585,3.157,3.154,3.1496,3.1525,3.1615,3.1899,3.2392,3.2976,3.2931,3.2497,3.2527,3.2213,3.1705,3.1765,3.1585,3.166,3.166,3.1525,3.1525,3.1496,3.1496,3.1496,3.1496,3.1496,3.1496,3.1539,3.1443,3.1167,3.1721,3.1875,3.1639,3.2013,3.2044,3.167,3.2059,3.2321,3.2398,3.2398,3.2398,3.2367,3.1824,3.1948,3.2136,3.1967,3.1813,3.2244,3.2336,3.2398,3.2336,3.2336,3.2398,3.2382,3.2244,3.2244,3.2321,3.2213,3.2244,3.2367,3.2398,3.2398,3.2336,3.189,3.1936,3.2182,3.189,3.1674,3.2321,3.2336,3.2013,3.152,3.1182,3.0705,3.0109,2.9494,2.9325,2.9248,2.9187,2.9194,2.9109,2.9499,2.9781,2.9444,2.9273,2.9336,2.917,2.9146,2.9114,2.9114,2.9114,2.9114,2.9114,2.9114,2.9114,2.9114,2.9114,2.9114,2.9114,2.9114,2.913,2.9682,2.9915,3.0296,3.0582,3.0791,3.1087,3.1263,3.1263,3.1322,3.1351,3.1409,3.1482,3.175,3.2138,3.169,3.175,3.1959,3.169,3.1496,3.1585,3.2034,3.2273,3.2617,3.317,3.3185,3.2706,3.2991,3.2901,3.2318,3.2617,3.2647,3.2243,3.2183,3.1959,3.1585,3.1511,3.1496,3.1496,3.1496,3.1496,3.1524,3.1626,3.168,3.1645,3.1962,3.2071,3.2014,3.2235,3.2351,3.2182,3.2302,3.2398,3.2398,3.2398,3.2398,3.2351,3.2213,3.2167,3.229,3.2182,3.2198,3.2351,3.2398,3.2398,3.2398,3.2398,3.2398,3.2305,3.2013,3.189,3.2198,3.1982,3.1951,3.2305,3.2398,3.2398,3.2367,3.2259,3.2213,3.2336,3.2198,3.2228,3.2305,3.2367,3.2121,3.1505,3.1028,3.0566,3.0017,2.9356,2.8987,2.8965,2.8904,2.8978,2.9113,2.9518,2.9608,2.9223,2.9249,2.9555,2.9368,2.917,2.9146,2.9114,2.9114,2.9114,2.9114,2.9114,2.9114,2.9114,2.9114,2.9114,2.9114,2.9114,2.9114,2.9727,2.996,3.028,3.0582,3.0896,3.1161,3.1365,3.1467,3.1496,3.1496,3.1496,3.1496,3.172,3.1989,3.1675,3.169,3.1989,3.1675,3.1511,3.1675,3.2467,3.3051,3.344,3.4008,3.3993,3.338,3.344,3.326,3.2961,3.308,3.2976,3.2886,3.2647,3.2273,3.1959,3.1615,3.1496,3.1496,3.1496,3.1496,3.1496,3.1597,3.1741,3.1855,3.2053,3.2135,3.2274,3.237,3.2398,3.2398,3.2398,3.2398,3.2398,3.2398,3.2398,3.2382,3.2136,3.2059,3.229,3.2167,3.2105,3.2321,3.2398,3.2398,3.2398,3.2398,3.2398,3.2351,3.1997,3.2059,3.2213,3.2028,3.2028,3.2321,3.2398,3.2398,3.2398,3.2382,3.2398,3.2398,3.2398,3.2398,3.2398,3.2398,3.2059,3.1551,3.1151,3.0612,3.0002,2.9264,2.8787,2.8904,2.9042,2.9215,2.9579,3.0006,3.0351,2.995,2.9753,2.9998,2.9791,2.9549,2.9572,2.954,2.9304,2.9209,2.9398,2.9382,2.9114,2.9114,2.9114,2.9114,2.9114,2.9114,2.9114,2.9803,3.005,3.0142,3.0477,3.0911,3.1029,3.1278,3.1482,3.1496,3.1496,3.1496,3.1496,3.154,3.1496,3.154,3.1511,3.154,3.1525,3.1705,3.2108,3.2931,3.3724,3.4502,3.4981,3.4861,3.4384,3.3873,3.3739,3.3604,3.3155,3.3185,3.3365,3.2976,3.2572,3.2273,3.1824,3.1525,3.1496,3.1496,3.1496,3.1496,3.1524,3.1655,3.1826,3.1968,3.2135,3.233,3.2398,3.2398,3.2398,3.2398,3.2398,3.2398,3.2398,3.2398,3.2336,3.2009,3.1905,3.2213,3.1951,3.1824,3.229,3.2398,3.2398,3.2398,3.2398,3.2398,3.2398,3.2398,3.2351,3.2367,3.2379,3.2351,3.2398,3.2398,3.2398,3.2398,3.2398,3.2398,3.2398,3.2398,3.2398,3.2398,3.2351,3.2151,3.1563,3.1197,3.0859,3.034,2.9817,2.9402,2.9233,2.9387,2.9556,3.0043,3.0551,3.0906,3.0985,3.0773,3.0725,3.0492,3.0293,3.0257,3.0203,3.0053,3.0077,3.0196,2.9975,2.9477,2.924,2.9319,2.9225,2.9114,2.9114,2.9114,2.9896,2.9758,3.0493,3.0777,3.0777,3.1161,3.1453,3.1496,3.1496,3.1496,3.1496,3.1496,3.1496,3.1496,3.1496,3.1496,3.1496,3.1555,3.2004,3.3095,3.3275,3.4218,3.5026,3.5415,3.5115,3.4696,3.4921,3.4756,3.4397,3.4457,3.4607,3.4173,3.3619,3.3021,3.2497,3.1944,3.1496,3.1496,3.1496,3.1496,3.1496,3.1496,3.1553,3.1683,3.1912,3.215,3.2342,3.2398,3.2398,3.2398,3.2398,3.2398,3.2398,3.2398,3.2398,3.2367,3.2317,3.2228,3.2321,3.2259,3.2213,3.2336,3.2398,3.2398,3.2398,3.2398,3.2398,3.2398,3.2398,3.2475,3.2475,3.2428,3.2413,3.2428,3.2398,3.2398,3.2398,3.2398,3.2398,3.2398,3.2398,3.2398,3.2398,3.2398,3.209,3.1578,3.1289,3.1074,3.072,3.0309,3.0002,2.971,2.9648,2.9817,3.0258,3.0797,3.1255,3.1601,3.1526,3.1435,3.1182,3.1045,3.0989,3.0948,3.0865,3.0905,3.0858,3.048,3.0006,2.9785,2.958,2.9437,2.9304,2.924,2.913,3.0522,3.0127,3.0628,3.0792,3.0866,3.1131,3.1336,3.1467,3.1496,3.1496,3.1496,3.1496,3.1496,3.1496,3.1496,3.1496,3.1496,3.1525,3.2034,3.2916,3.3305,3.3888,3.4577,3.519,3.528,3.4996,3.4921,3.4906,3.5011,3.4996,3.4906,3.4921,3.4277,3.3634,3.2976,3.2273,3.1839,3.154,3.1496,3.1496,3.1496,3.1496,3.1611,3.1754,3.201,3.2259,3.2382,3.2398,3.2398,3.2398,3.2398,3.2398,3.2398,3.2398,3.2398,3.2398,3.2398,3.2398,3.2398,3.2398,3.2382,3.2398,3.2398,3.2398,3.2398,3.2398,3.2398,3.2475,3.2659,3.2875,3.2875,3.2859,3.2767,3.2444,3.2413,3.2398,3.2398,3.2398,3.2398,3.2398,3.2398,3.2398,3.2398,3.2398,3.2336,3.1936,3.1948,3.169,3.1228,3.0859,3.0479,3.0202,3.0017,3.012,3.0489,3.0966,3.1536,3.1855,3.2033,3.1983,3.1871,3.1772,3.1701,3.1555,3.1401,3.1357,3.1272,3.0889,3.0654,3.0512,3.0275,2.9864,2.9532,2.9367,2.9225,3.124,3.0612,3.0702,3.0866,3.0999,3.1073,3.1263,3.1467,3.1496,3.1496,3.1496,3.1496,3.1496,3.1496,3.1496,3.1496,3.1496,3.154,3.1944,3.2617,3.3036,3.3514,3.4038,3.4771,3.5325,3.54,3.5055,3.5055,3.519,3.5011,3.5085,3.528,3.4818,3.4038,3.344,3.2826,3.2123,3.1585,3.1496,3.1496,3.1496,3.1496,3.1655,3.1968,3.215,3.233,3.237,3.2398,3.2398,3.2398,3.2398,3.2398,3.2398,3.2398,3.2398,3.2398,3.2398,3.2398,3.2398,3.2398,3.2398,3.2398,3.2398,3.2398,3.2398,3.2398,3.2398,3.2552,3.2767,3.3136,3.3352,3.3306,3.3059,3.2752,3.2567,3.249,3.2398,3.2398,3.2398,3.2398,3.2398,3.2398,3.2398,3.2398,3.2398,3.2398,3.2382,3.2271,3.1794,3.1428,3.112,3.0812,3.0628,3.0566,3.0889,3.1351,3.189,3.2028,3.2317,3.2317,3.2317,3.2199,3.204,3.1955,3.1815,3.1831,3.1809,3.1571,3.1369,3.1252,3.0749,3.0101,2.9753,2.9509,2.9335,3.1422,3.0628,3.1146,3.1219,3.1073,3.1292,3.1438,3.1496,3.1496,3.1496,3.1496,3.1496,3.1496,3.1496,3.1496,3.1496,3.1496,3.154,3.1824,3.2348,3.2721,3.3125,3.3993,3.4487,3.4981,3.537,3.531,3.537,3.5444,3.54,3.5325,3.5325,3.4861,3.4234,3.3574,3.2856,3.2243,3.1705,3.154,3.1496,3.1496,3.1553,3.1683,3.1996,3.2122,3.2247,3.237,3.2398,3.2398,3.2398,3.2398,3.2398,3.2398,3.2398,3.2398,3.2398,3.2398,3.2398,3.2398,3.2398,3.2398,3.2398,3.2398,3.2398,3.2398,3.2413,3.2444,3.2521,3.2613,3.2829,3.3336,3.3475,3.3398,3.3229,3.3198,3.3029,3.2613,3.2475,3.2444,3.2413,3.2413,3.2398,3.2398,3.2398,3.2398,3.2398,3.2398,3.2382,3.2151,3.1967,3.1828,3.152,3.127,3.1228,3.1305,3.1813,3.2275,3.2228,3.2394,3.2379,3.2394,3.2382,3.2322,3.2183,3.2318,3.2487,3.2379,3.2144,3.209,3.1968,3.1182,3.0283,3.0054,2.984,2.9406,3.1618,3.1132,3.138,3.1424,3.1307,3.1438,3.1496,3.1496,3.1496,3.1496,3.1496,3.1496,3.1496,3.1496,3.1496,3.1496,3.1511,3.1496,3.169,3.2004,3.2363,3.2736,3.3649,3.4113,3.4592,3.4996,3.528,3.5489,3.5489,3.5489,3.5489,3.5444,3.513,3.4666,3.3993,3.338,3.2662,3.2079,3.169,3.1496,3.1524,3.164,3.184,3.1953,3.2122,3.2274,3.237,3.2398,3.2398,3.2398,3.2398,3.2398,3.2398,3.2398,3.2398,3.2398,3.2398,3.2398,3.2398,3.2398,3.2398,3.2398,3.2398,3.2398,3.2398,3.2428,3.2536,3.2798,3.2921,3.3029,3.3367,3.3706,3.3752,3.3552,3.3706,3.3598,3.3136,3.2936,3.2736,3.2521,3.2459,3.2444,3.2398,3.2398,3.2398,3.2398,3.2398,3.2398,3.2398,3.2321,3.2198,3.2059,3.1778,3.1794,3.1767,3.2044,3.2398,3.2398,3.2398,3.2398,3.2398,3.2398,3.2425,3.2372,3.2617,3.2773,3.2745,3.2482,3.2583,3.2541,3.1584,3.0772,3.0456,3.0148,2.9659,3.1812,3.1496,3.1496,3.157,3.1675,3.1555,3.16,3.166,3.157,3.1496,3.1496,3.1496,3.1496,3.154,3.1645,3.172,3.172,3.1824,3.1959,3.1914,3.2273,3.2542,3.3036,3.3634,3.4442,3.4981,3.525,3.5489,3.5489,3.5489,3.5489,3.5474,3.5489,3.5055,3.4264,3.3604,3.308,3.2362,3.1898,3.1583,3.1626,3.1769,3.1953,3.1981,3.2219,3.2315,3.2398,3.2398,3.2398,3.2398,3.2398,3.2398,3.2398,3.2398,3.2398,3.2398,3.2398,3.2398,3.2398,3.2398,3.2398,3.2398,3.2398,3.2398,3.2398,3.2444,3.2582,3.3075,3.3136,3.3198,3.3413,3.4058,3.4135,3.3998,3.4243,3.4412,3.3706,3.3306,3.3075,3.2859,3.2628,3.2505,3.249,3.2398,3.2398,3.2398,3.2398,3.2398,3.2398,3.2398,3.2336,3.2351,3.2275,3.2259,3.2244,3.2198,3.2398,3.2398,3.2398,3.2398,3.2398,3.2398,3.2425,3.2425,3.2496,3.2605,3.2687,3.2784,3.2737,3.2463,3.175,3.1187,3.0793,3.0321,2.9848,3.1812,3.1496,3.1496,3.1839,3.2183,3.172,3.1839,3.2243,3.175,3.1511,3.1585,3.1511,3.1511,3.1645,3.2079,3.2288,3.2467,3.2721,3.2632,3.2213,3.2482,3.2886,3.329,3.3455,3.4457,3.507,3.5415,3.5489,3.5489,3.5489,3.5489,3.5489,3.54,3.4936,3.3963,3.3634,3.2856,3.1913,3.173,3.1756,3.1756,3.1683,3.1783,3.1953,3.2066,3.2191,3.237,3.2398,3.2398,3.2398,3.2398,3.2398,3.2398,3.2398,3.2398,3.2398,3.2398,3.2398,3.2398,3.2398,3.2398,3.2398,3.2398,3.2398,3.2398,3.2413,3.2459,3.2459,3.2552,3.2875,3.3398,3.4043,3.4305,3.4551,3.4736,3.4443,3.3814,3.3829,3.3583,3.3029,3.2736,3.2644,3.2598,3.249,3.2398,3.2398,3.2413,3.2475,3.2428,3.2459,3.2398,3.2398,3.2398,3.2398,3.2398,3.2398,3.2398,3.2398,3.2398,3.2398,3.2398,3.2398,3.2398,3.2425,3.2468,3.248,3.2578,3.266,3.2757,3.2476,3.1888,3.1438,3.1024,3.0548,3.0125,3.1513,3.1234,3.1409,3.166,3.1869,3.1615,3.1884,3.2243,3.1809,3.172,3.1929,3.163,3.169,3.1974,3.2064,3.2138,3.2482,3.2886,3.2587,3.2392,3.2721,3.3215,3.3514,3.3903,3.4651,3.522,3.5489,3.5489,3.5489,3.5489,3.5489,3.5489,3.5444,3.5085,3.3933,3.3664,3.3006,3.2302,3.1924,3.1841,3.1883,3.1896,3.1938,3.2094,3.2163,3.2274,3.2385,3.2398,3.2398,3.2398,3.2398,3.2398,3.2398,3.2398,3.2398,3.2398,3.2398,3.2398,3.2398,3.2398,3.2398,3.2398,3.2398,3.2398,3.2398,3.2413,3.2598,3.2967,3.2598,3.2752,3.3244,3.366,3.3798,3.4152,3.4968,3.446,3.4044,3.4274,3.412,3.346,3.2906,3.2859,3.289,3.3013,3.2967,3.2936,3.3106,3.3334,3.3011,3.2613,3.2521,3.2398,3.2398,3.2398,3.2398,3.2398,3.2398,3.2398,3.2398,3.2398,3.2398,3.2398,3.2398,3.2398,3.2425,3.2453,3.248,3.2578,3.2676,3.24,3.2044,3.1659,3.1273,3.103,3.0642,3.1155,3.1029,3.1336,3.16,3.172,3.1585,3.1884,3.2392,3.1795,3.178,3.2004,3.1735,3.178,3.2123,3.1974,3.2228,3.2796,3.2916,3.2706,3.2781,3.314,3.371,3.3964,3.4354,3.4801,3.5489,3.5489,3.5489,3.5489,3.5489,3.5489,3.5474,3.522,3.4801,3.4203,3.3545,3.2811,3.23,3.1951,3.1885,3.2025,3.2094,3.2135,3.2191,3.2302,3.237,3.2398,3.2398,3.2398,3.2398,3.2398,3.2398,3.2398,3.2398,3.2398,3.2398,3.2398,3.2398,3.2398,3.2398,3.2398,3.2398,3.2444,3.2475,3.269,3.2582,3.2505,3.2952,3.2675,3.2782,3.326,3.3567,3.4014,3.4414,3.4937,3.4429,3.406,3.4214,3.4027,3.3213,3.2859,3.3121,3.3229,3.3537,3.3598,3.3521,3.375,3.4073,3.3642,3.2998,3.2675,3.2536,3.2398,3.2398,3.2398,3.2398,3.2398,3.2398,3.2398,3.2398,3.2398,3.2398,3.2398,3.2398,3.2398,3.2425,3.2453,3.2523,3.2535,3.2311,3.2071,3.1856,3.1561,3.1352,3.1244,3.0791,3.1029,3.138,3.1839,3.2303,3.1765,3.1884,3.2452,3.1795,3.1585,3.175,3.154,3.1555,3.178,3.2258,3.2706,3.3425,3.4084,3.3994,3.4038,3.4414,3.4367,3.4444,3.4578,3.4876,3.54,3.5489,3.5489,3.5489,3.5489,3.5489,3.5444,3.5115,3.4322,3.3724,3.3275,3.2811,3.2416,3.2217,3.2137,3.2203,3.2214,3.2214,3.2252,3.2249,3.2274,3.2413,3.2413,3.2398,3.2398,3.2398,3.2398,3.2398,3.2398,3.2398,3.2398,3.2398,3.2398,3.2398,3.2398,3.2428,3.2413,3.2505,3.2721,3.3075,3.269,3.2552,3.2628,3.2536,3.2767,3.3352,3.395,3.4183,3.4352,3.4506,3.4398,3.4106,3.4106,3.3827,3.2952,3.2782,3.3059,3.3583,3.3906,3.4168,3.4121,3.4289,3.4597,3.4029,3.3444,3.2982,3.2705,3.2475,3.2398,3.2398,3.2398,3.2398,3.2398,3.2398,3.2398,3.2398,3.2398,3.2398,3.2398,3.2398,3.2398,3.2398,3.2468,3.2449,3.2299,3.2137,3.1986,3.1953,3.1857,3.1883,3.1662,3.1901,3.1617,3.1645,3.1869,3.1615,3.1884,3.2318,3.1809,3.1765,3.2064,3.1735,3.1959,3.2497,3.2482,3.2871,3.3514,3.4204,3.4234,3.4322,3.4547,3.4771,3.4786,3.4906,3.5265,3.5459,3.5489,3.5489,3.5489,3.5489,3.5489,3.537,3.516,3.4756,3.4128,3.3455,3.3171,3.3183,3.3106,3.3131,3.289,3.2887,3.2887,3.2944,3.2437,3.2634,3.2875,3.2567,3.2459,3.2413,3.2413,3.2398,3.2398,3.2398,3.2398,3.2398,3.2398,3.2398,3.2398,3.2444,3.2567,3.2982,3.3044,3.3106,3.3367,3.309,3.3029,3.2936,3.2598,3.2721,3.3352,3.3629,3.3752,3.3875,3.406,3.4229,3.4212,3.4197,3.4012,3.3306,3.3029,3.3029,3.3644,3.4305,3.4566,3.4767,3.4951,3.4982,3.446,3.3875,3.3398,3.2875,3.2613,3.2413,3.2398,3.2398,3.2398,3.2398,3.2398,3.2398,3.2398,3.2398,3.2398,3.2398,3.2398,3.2398,3.2398,3.2398,3.2379,3.2317,3.2283,3.2245,3.2234,3.2249,3.2295,3.2005,3.2392,3.178,3.1496,3.1496,3.1496,3.1765,3.2049,3.1705,3.1735,3.2153,3.1735,3.1959,3.2617,3.2721,3.2886,3.3529,3.4113,3.4277,3.4577,3.4981,3.5145,3.51,3.5175,3.5429,3.5489,3.5489,3.5489,3.5489,3.5489,3.5489,3.5489,3.5444,3.5055,3.4474,3.3951,3.3728,3.3925,3.4014,3.4011,3.3723,3.3721,3.3692,3.3629,3.3121,3.3152,3.3275,3.2998,3.2598,3.2598,3.2567,3.2413,3.2398,3.2398,3.2398,3.2398,3.2398,3.2398,3.2398,3.2459,3.2705,3.3198,3.3044,3.3136,3.3321,3.3244,3.289,3.2936,3.2644,3.2752,3.3506,3.3904,3.4337,3.4706,3.4737,3.4844,3.4428,3.4258,3.4104,3.3796,3.3521,3.326,3.3966,3.4659,3.5121,3.5368,3.566,3.5583,3.506,3.4445,3.3752,3.3229,3.2752,3.2567,3.2398,3.2398,3.2398,3.2398,3.2398,3.2398,3.2398,3.2398,3.2398,3.2398,3.2398,3.2398,3.2398,3.2398,3.2398,3.2398,3.2364,3.2329,3.2412,3.2427,3.2473,3.1634,3.2378,3.1809,3.154,3.1555,3.1496,3.154,3.1615,3.154,3.1585,3.1705,3.157,3.1645,3.1974,3.2527,3.3051,3.3694,3.4307,3.4741,3.5205,3.531,3.5444,3.5444,3.5474,3.5489,3.5489,3.5489,3.5489,3.5489,3.5489,3.5489,3.5489,3.5459,3.522,3.4533,3.4059,3.3895,3.4015,3.4242,3.4406,3.4401,3.4429,3.4474,3.4291,3.3767,3.3752,3.386,3.3183,3.2859,3.3059,3.2767,3.2613,3.2567,3.2552,3.2505,3.2398,3.2398,3.2398,3.2398,3.2413,3.2859,3.3444,3.3413,3.3367,3.3336,3.309,3.2859,3.3229,3.2798,3.3213,3.3889,3.4536,3.5029,3.5168,3.5167,3.5106,3.4659,3.4351,3.4212,3.4135,3.3842,3.366,3.4351,3.5013,3.5568,3.5984,3.6338,3.6153,3.563,3.5029,3.4306,3.3675,3.3136,3.2675,3.2505,3.2428,3.2398,3.2398,3.2398,3.2398,3.2398,3.2398,3.2398,3.2398,3.2398,3.2398,3.2398,3.2398,3.2398,3.2398,3.2398,3.2422,3.2535,3.2574,3.2563,3.1796,3.2497,3.2243,3.2153,3.2093,3.1675,3.1496,3.1496,3.1525,3.1735,3.1989,3.1735,3.2079,3.2647,3.3021,3.3469,3.4143,3.4846,3.5415,3.5444,3.5489,3.5489,3.5489,3.5489,3.5489,3.5489,3.5489,3.5489,3.5489,3.5489,3.5489,3.5489,3.5489,3.5385,3.519,3.4986,3.499,3.5149,3.5275,3.5309,3.5033,3.5077,3.5167,3.5106,3.4474,3.4274,3.4505,3.3537,3.3167,3.3413,3.309,3.2982,3.2952,3.2952,3.2813,3.2536,3.2398,3.2398,3.2552,3.2767,3.3398,3.3814,3.4121,3.4168,3.466,3.4628,3.4289,3.3796,3.349,3.395,3.4397,3.4951,3.5306,3.4967,3.4905,3.4967,3.4751,3.4551,3.4397,3.4382,3.4197,3.4197,3.4613,3.4998,3.5537,3.6014,3.6307,3.6461,3.6107,3.5598,3.4951,3.4274,3.3629,3.2998,3.2628,3.2628,3.249,3.2398,3.2398,3.2398,3.2398,3.2398,3.2398,3.2398,3.2398,3.2398,3.2398,3.2398,3.2398,3.2398,3.2398,3.2398,3.2453,3.2496,3.2492,3.1884,3.2437,3.2228,3.2288,3.2392,3.2019,3.175,3.154,3.1511,3.1765,3.1974,3.169,3.2049,3.2931,3.344,3.3844,3.4533,3.5175,3.5489,3.5489,3.5489,3.5489,3.5489,3.5489,3.5489,3.5489,3.5489,3.5489,3.5489,3.5489,3.5489,3.5489,3.5489,3.5474,3.5462,3.5449,3.5516,3.5648,3.573,3.5843,3.5676,3.5723,3.583,3.5568,3.5152,3.4705,3.4674,3.4106,3.3306,3.3506,3.3552,3.3336,3.3229,3.3213,3.3013,3.2613,3.2398,3.2505,3.2829,3.3075,3.3567,3.3875,3.4597,3.4737,3.4675,3.4137,3.4106,3.3952,3.4198,3.4522,3.4874,3.5398,3.5444,3.5121,3.5321,3.5429,3.5414,3.5244,3.5198,3.5121,3.4828,3.4828,3.4813,3.5028,3.5398,3.5814,3.623,3.6353,3.6445,3.5938,3.546,3.4844,3.4212,3.3614,3.3152,3.2921,3.2736,3.2444,3.2444,3.249,3.2398,3.2398,3.2398,3.2398,3.2398,3.2398,3.2398,3.2398,3.2398,3.2398,3.2398,3.2398,3.2398,3.2425,3.2468,3.1899,3.2348,3.1824,3.1974,3.2437,3.2348,3.2019,3.1511,3.1496,3.1525,3.1511,3.154,3.2019,3.2647,3.3245,3.3918,3.4608,3.525,3.5415,3.5489,3.5489,3.5489,3.5489,3.5489,3.5489,3.5489,3.5489,3.5489,3.5489,3.5489,3.5489,3.5489,3.5489,3.5489,3.5522,3.5572,3.5638,3.5752,3.5928,3.604,3.6043,3.6245,3.6307,3.5984,3.5429,3.5321,3.4983,3.4137,3.3706,3.3721,3.386,3.3229,3.2998,3.3167,3.2936,3.2721,3.2613,3.2844,3.3183,3.3413,3.3583,3.3844,3.3844,3.3614,3.3644,3.3798,3.4014,3.4137,3.4337,3.486,3.5337,3.5629,3.586,3.5984,3.6215,3.6292,3.6292,3.6261,3.6245,3.6014,3.5553,3.5383,3.5275,3.5383,3.5321,3.5706,3.6061,3.6276,3.6307,3.6138,3.5691,3.5383,3.4782,3.4229,3.3829,3.3506,3.3121,3.289,3.269,3.2675,3.2552,3.2505,3.2536,3.2536,3.2444,3.2398,3.2398,3.2398,3.2398,3.2398,3.2398,3.2398,3.2398,3.2398,3.2425,3.1884,3.2497,3.2811,3.2751,3.2452,3.1989,3.166,3.1525,3.1496,3.1496,3.1496,3.1496,3.2093,3.3185,3.344,3.4173,3.4906,3.5385,3.5459,3.5489,3.5489,3.5489,3.5489,3.5489,3.5489,3.5489,3.5489,3.5489,3.5489,3.5489,3.5489,3.5489,3.5489,3.5489,3.5522,3.5569,3.5621,3.5735,3.5958,3.6085,3.6226,3.6383,3.646,3.6184,3.566,3.5614,3.526,3.4168,3.3829,3.4212,3.4305,3.3996,3.4027,3.4489,3.4613,3.3906,3.3521,3.3244,3.346,3.3891,3.415,3.4212,3.4489,3.4506,3.4414,3.4289,3.4414,3.4568,3.4845,3.5445,3.5799,3.603,3.6168,3.6307,3.6492,3.6492,3.6492,3.6492,3.6492,3.6368,3.5922,3.5722,3.5599,3.5321,3.5306,3.5599,3.5907,3.6153,3.6276,3.6138,3.5984,3.5706,3.5444,3.4922,3.4536,3.4181,3.3721,3.3352,3.3198,3.3106,3.309,3.3029,3.2844,3.269,3.2598,3.249,3.2398,3.2398,3.2398,3.2398,3.2398,3.2398,3.2398,3.2398,3.2398,3.1899,3.2497,3.2647,3.2452,3.2079,3.1675,3.1496,3.1496,3.1496,3.1496,3.1496,3.1496,3.2228,3.3275,3.3305,3.3888,3.5385,3.513,3.516,3.5489,3.5489,3.5489,3.5489,3.5489,3.5489,3.5489,3.5489,3.5489,3.5489,3.5489,3.5489,3.5489,3.5489,3.5489,3.5489,3.5522,3.5572,3.5671,3.5816,3.5958,3.6148,3.632,3.6383,3.6353,3.586,3.5691,3.5691,3.4491,3.4291,3.4767,3.489,3.4736,3.4628,3.4859,3.5244,3.4597,3.4243,3.4121,3.4306,3.4351,3.4489,3.4597,3.4921,3.4767,3.472,3.4582,3.4936,3.526,3.5691,3.6107,3.6307,3.6492,3.6476,3.6492,3.6492,3.6492,3.6492,3.6492,3.6476,3.6445,3.6245,3.603,3.5753,3.5414,3.5383,3.5876,3.6153,3.6261,3.6384,3.6368,3.6276,3.6091,3.5922,3.566,3.5275,3.4844,3.4459,3.4091,3.3906,3.3798,3.3737,3.3598,3.3444,3.3121,3.2767,3.2613,3.2398,3.2398,3.2398,3.2398,3.2398,3.2398,3.2398,3.2398,3.2398,3.1854,3.2348,3.175,3.1645,3.1585,3.1555,3.1496,3.1496,3.1496,3.1496,3.1496,3.1496,3.2183,3.3066,3.3051,3.3799,3.4816,3.5013,3.5145,3.5489,3.5489,3.5489,3.5489,3.5489,3.5489,3.5489,3.5489,3.5489,3.5489,3.5489,3.5489,3.5489,3.5489,3.5489,3.5489,3.5489,3.5554,3.5636,3.5703,3.5799,3.6022,3.6179,3.6274,3.6337,3.5999,3.5737,3.5907,3.5506,3.4813,3.526,3.5414,3.5136,3.5059,3.4936,3.5213,3.5183,3.4905,3.489,3.4922,3.4921,3.4736,3.469,3.4643,3.4951,3.5122,3.4967,3.5244,3.5521,3.5845,3.6184,3.6399,3.6476,3.6492,3.6492,3.6492,3.6492,3.6492,3.6492,3.6476,3.6461,3.6415,3.623,3.6199,3.5922,3.586,3.6292,3.6399,3.643,3.6445,3.6492,3.6445,3.6368,3.6245,3.6076,3.5861,3.5491,3.5198,3.4905,3.4613,3.4351,3.415,3.4104,3.406,3.3383,3.2644,3.2536,3.2398,3.2398,3.2413,3.2398,3.2398,3.2398,3.2398,3.2413,3.2398,3.16,3.172,3.157,3.178,3.2153,3.172,3.1496,3.1496,3.1496,3.1496,3.1496,3.1555,3.1974,3.2781,3.308,3.3829,3.4577,3.5011,3.531,3.5459,3.5489,3.5489,3.5489,3.5489,3.5489,3.5489,3.5489,3.5489,3.5489,3.5489,3.5489,3.5489,3.5489,3.5489,3.5489,3.5489,3.5522,3.5587,3.5604,3.5767,3.6085,3.6289,3.643,3.6292,3.5984,3.5922,3.5891,3.5337,3.5136,3.5367,3.5445,3.5645,3.5984,3.5968,3.6061,3.6091,3.5629,3.5521,3.5445,3.5399,3.5321,3.546,3.5614,3.5876,3.5891,3.5491,3.5414,3.563,3.5876,3.6215,3.643,3.6461,3.6492,3.6492,3.6492,3.6492,3.6492,3.6492,3.6492,3.6492,3.6492,3.6492,3.6492,3.6492,3.6492,3.6492,3.6476,3.6476,3.6476,3.6492,3.6492,3.6445,3.6461,3.6322,3.6184,3.6045,3.5722,3.5321,3.4951,3.4736,3.4551,3.4397,3.4183,3.3167,3.2459,3.2613,3.2659,3.2428,3.2428,3.2413,3.2398,3.2398,3.2444,3.2475,3.2428,3.1675,3.1929,3.1929,3.1974,3.1959,3.1645,3.1496,3.1496,3.1496,3.1496,3.1496,3.157,3.2004,3.2721,3.3066,3.3918,3.4666,3.4951,3.5205,3.5385,3.5489,3.5489,3.5489,3.5489,3.5489,3.5489,3.5489,3.5489,3.5489,3.5489,3.5489,3.5489,3.5489,3.5489,3.5489,3.5489,3.5489,3.5489,3.5554,3.5797,3.6085,3.6226,3.632,3.6136,3.6214,3.6199,3.6107,3.5707,3.5768,3.5876,3.5999,3.6076,3.6322,3.6368,3.643,3.6368,3.6138,3.5968,3.5953,3.5907,3.5891,3.6061,3.6153,3.6292,3.6322,3.5968,3.5938,3.6153,3.6184,3.6461,3.6461,3.6492,3.6492,3.6492,3.6492,3.6492,3.6492,3.6492,3.6492,3.6492,3.6492,3.6492,3.6492,3.6492,3.6492,3.6492,3.6492,3.6492,3.6492,3.6492,3.6492,3.6492,3.6492,3.6492,3.6384,3.6322,3.6245,3.5784,3.5306,3.5136,3.4951,3.4674,3.4214,3.3675,3.329,3.3198,3.3152,3.2844,3.2521,3.2444,3.2428,3.2398,3.249,3.2644,3.2798,3.1809,3.2333,3.2333,3.2034,3.1555,3.1496,3.1496,3.1496,3.1496,3.157,3.1675,3.1675,3.2378,3.2811,3.317,3.4158,3.4831,3.4981,3.516,3.537,3.5489,3.5489,3.5489,3.5489,3.5489,3.5489,3.5489,3.5489,3.5489,3.5489,3.5489,3.5489,3.5489,3.5489,3.5489,3.5504,3.5504,3.5539,3.5621,3.5782,3.591,3.6037,3.6163,3.6274,3.6367,3.6492,3.6492,3.6492,3.6461,3.6445,3.6415,3.6415,3.6445,3.6492,3.6492,3.6445,3.643,3.6353,3.6399,3.6353,3.6384,3.6461,3.6492,3.6492,3.6492,3.6476,3.6445,3.6445,3.6476,3.6492,3.6492,3.6492,3.6492,3.6492,3.6492,3.6492,3.6492,3.6492,3.6492,3.6492,3.6492,3.6492,3.6492,3.6492,3.6492,3.6492,3.6492,3.6492,3.6492,3.6492,3.6492,3.6492,3.6492,3.6492,3.6492,3.6476,3.643,3.6168,3.5722,3.5552,3.529,3.4813,3.4659,3.4829,3.4506,3.4029,3.366,3.3367,3.3029,3.2644,3.2444,3.2475,3.2813,3.2998,3.3321,3.157,3.169,3.169,3.16,3.1511,3.1496,3.1496,3.1496,3.1525,3.178,3.2183,3.2288,3.2557,3.2781,3.3829,3.4592,3.4831,3.5011,3.5265,3.5474,3.5489,3.5489,3.5489,3.5489,3.5489,3.5489,3.5489,3.5489,3.5489,3.5489,3.5489,3.5489,3.5489,3.5504,3.5504,3.5537,3.5587,3.5621,3.5668,3.5748,3.5973,3.6132,3.6289,3.6383,3.6492,3.6492,3.6492,3.6492,3.6492,3.6492,3.6492,3.6492,3.6492,3.6492,3.6492,3.6492,3.6492,3.6492,3.6492,3.6492,3.6492,3.6492,3.6492,3.6492,3.6492,3.6492,3.6476,3.6476,3.6492,3.6492,3.6492,3.6492,3.6492,3.6492,3.6492,3.6492,3.6492,3.6492,3.6492,3.6492,3.6492,3.6492,3.6492,3.6492,3.6492,3.6492,3.6492,3.6492,3.6492,3.6492,3.6492,3.6492,3.6492,3.6492,3.6492,3.6492,3.643,3.6245,3.6045,3.5706,3.5275,3.4751,3.472,3.5229,3.5044,3.4551,3.4227,3.3966,3.3475,3.3075,3.2613,3.2552,3.2952,3.3398,3.3752]}]]